     2.10           OBSERVATION DATA    G (GPS)             RINEX VERSION / TYPE
teqc 2005May6 SOPAC 20050707 00:30:02UTC                    PGM / RUN BY / DATE
Linux 2.4.20-8|Pentium IV|gcc|Linux|486/DX+                 COMMENT
BIT 2 OF LLI FLAGS DATA COLLECTED UNDER A/S CONDITION       COMMENT
HPGN D CA 02 FG                                             MARKER NAME
02FG                                                        MARKER NUMBER
Ron Wroten                                                  OBSERVER / AGENCY
0220308727 TRIMBLE 5700 2.01                                REC # / TYPE / VERS
12471045 TRM41249.00 NONE                                   ANT # / TYPE
 -2622600.0000 -4107678.0000  4101032.0000                  APPROX POSITION XYZ
        2.0000        0.0000        0.0000                  ANTENNA: DELTA H/E/N
     1     1                                                WAVELENGTH FACT L1/2
     6    L1    L2    C1    P2    P1    D1                  # / TYPES OF OBSERV
    15.0000                                                 INTERVAL
Northern California Height Modernization 2004               COMMENT
                                                            COMMENT
SOPAC - Scripps Orbit and Permanent Array Center            COMMENT
IGPP - Institute of Geophysics and Planetary Physics        COMMENT
SIO - Scripps Institution of Oceanography                   COMMENT
UCSD - University of California, San Diego                  COMMENT
                                                            COMMENT
email: archive@gpsmail.ucsd.edu                             COMMENT
ftp://garner.ucsd.edu                                       COMMENT
http://sopac.ucsd.edu                                       COMMENT
                                                            COMMENT
                                                            COMMENT
Approximate Lat, Lon : 40.270, -122.557                     COMMENT
                                                            COMMENT
SNR is mapped to RINEX snr flag value [0-9]                 COMMENT
L1 & L2: 2-19 dBHz = 1, 20-27 dBHz = 2, 28-31 dBHz = 3      COMMENT
32-35 dBHz = 4, 36-38 dBHz = 5, 39-41 dBHz = 6              COMMENT
42-44 dBHz = 7, 45-48 dBHz = 8, >= 49 dBHz = 9              COMMENT
  2004     9     9    20    48    0.0000000     GPS         TIME OF FIRST OBS
                                                            END OF HEADER
 04  9  9 20 48  0.0000000  0  5G 3G 8G13G16G23
   -105222.62157    -70158.52052  23340617.8674   23340618.4964

   -166493.38757   -120868.04353  23254227.3674   23254228.3634
    -58599.31259
    -45766.65656                  20270366.5004   20270364.0904

    113049.69157     69421.75052  23666656.6334   23666655.6804

     64911.22759     40863.27355  21177259.9844   21177256.1724

 04  9  9 20 48 15.0000000  0  5G 3G 8G13G16G23
   -138287.69547    -95923.49642  23334326.3914   23334326.1994
      2204.3384
   -217287.87548   -160448.14143  23244561.8284   23244562.6214
      3386.2994
    -76586.41448    -59782.58646  20266943.9614   20266941.3204
      1199.1404
    149274.94547     97649.18442  23673550.3134   23673548.5664
     -2415.0174
     83931.17649     55683.97745  21180879.4534   21180875.4614
     -1267.9974
 04  9  9 20 48 30.0000000  0  6G 3G 8G13G16G27G23
   -171330.23446   -121670.93042  23328037.9304   23328038.2624
      2202.8364
   -268130.70748   -200065.89543  23234887.0084   23234887.4104
      3389.5224
    -94560.46548    -73788.34446  20263523.6644   20263520.8524
      1198.2704
    185475.83247    125857.62942  23680438.7584   23680437.9304
     -2413.3924
    -94080.78158    -71900.56655  21664737.8054   21664736.3014

    102955.76649     70508.31346  21184499.8594   21184495.6604
     -1268.3064
 04  9  9 20 48 45.0000000  0  6G 3G 8G13G16G27G23
   -204322.77046   -147379.39142  23321759.7894   23321759.3444
      2199.5024
   -318994.52047   -239700.00843  23225207.4224   23225207.8984
      3390.9214
   -112493.98049    -87762.52046  20260110.6484   20260108.2854
      1195.5684
    221679.11747    154067.95742  23687328.4224   23687326.6024
     -2413.5524
   -126519.07049    -97177.16045  21658564.9534   21658563.4734
      2162.5534
    122012.15249     85357.42245  21188125.8444   21188121.9884
     -1270.4264
 04  9  9 20 49  0.0000000  0  6G 3G 8G13G16G27G23
   -237248.02747   -173035.40242  23315494.1254   23315493.7034
      2195.0174
   -369862.27348   -279337.20743  23215527.6644   23215528.0004
      3391.1844
   -130369.83648   -101691.76246  20256709.0704   20256706.5044
      1191.7244
    257901.49247    182293.12942  23694221.2194   23694219.7544
     -2414.8254
   -158954.78548   -122451.73045  21652392.6564   21652391.1524
      2162.3814
    141117.22349    100244.47345  21191761.7894   21191757.6884
     -1273.6714
 04  9  9 20 49 15.0000000  0  6G 3G 8G13G16G27G23
   -270099.38746   -198633.84842  23309242.5474   23309242.8834
      2190.0914
   -420727.65648   -318972.54743  23205848.5864   23205848.8834
      3391.0264
   -148181.60249   -115571.06246  20253319.5084   20253317.1884
      1187.4514
    294148.97347    210537.89142  23701118.8364   23701117.3164
     -2416.4994
   -191381.65649   -147719.41445  21646221.6094   21646220.7464
      2161.7914
    160277.27049    115174.35245  21195407.6024   21195403.8874
     -1277.3364
 04  9  9 20 49 30.0000000  0  6G 3G 8G13G16G27G23
   -302875.76247   -224173.87542  23303005.9774   23303005.5744
      2185.0924
   -471589.94148   -358605.46542  23196169.6804   23196170.5124
      3390.8194
   -165928.31649   -129399.68046  20249942.3754   20249940.0274
      1183.1144
    330422.03547    238802.57842  23708021.1254   23708020.1954
     -2418.2044
   -223798.78548   -172979.50845  21640052.9694   21640051.8094
      2161.1424
    179493.05949    130147.66445  21199064.1414   21199060.2154
     -1281.0534
 04  9  9 20 49 45.0000000  0  6G 3G 8G13G16G27G23
   -335576.67647   -249655.07442  23296783.6094   23296782.7974
      2180.0614
   -522448.84048   -398235.75842  23186491.4064   23186492.3284
      3390.5934
   -183609.62548   -143177.32846  20246577.7194   20246575.2624
      1178.7544
    366720.74247    267087.25842  23714929.1564   23714927.7074
     -2419.9144
   -256206.01248   -198231.88345  21633886.4694   21633885.0234
      2160.4824
    198764.79349    145164.57445  21202731.6094   21202727.7704
     -1284.7824
 04  9  9 20 50  0.0000000  0  6G 3G 8G13G16G27G23
   -368203.09447   -275078.24642  23290575.0864   23290574.4734
      2175.0954
   -573305.59848   -437864.38743  23176814.4384   23176815.0554
      3390.4514
   -201226.65249   -156904.88346  20243225.1334   20243222.9384
      1174.4684
    403043.27347    295390.49642  23721840.6254   23721839.9304
     -2421.5024
   -288604.71948   -223477.62545  21627720.8984   21627719.5514
      2159.9144
    218091.03549    160223.95745  21206409.3204   21206405.3054
     -1288.4164
 04  9  9 20 50 15.0000000  0  6G 3G 8G13G16G27G23
   -400759.66046   -300446.96542  23284379.3444   23284379.7034
      2170.4384
   -624165.11748   -477495.16043  23167135.8754   23167136.1414
      3390.6354
   -218784.25449   -170586.13346  20239884.1334   20239881.9964
      1170.5074
    439384.39547    323708.20342  23728756.1094   23728755.1334
     -2422.7414
   -320999.77349   -248720.51645  21621556.2584   21621555.1604
      2159.6704
    237466.73049    175321.87145  21210096.5474   21210092.7464
     -1291.7134
 04  9  9 20 50 30.0000000  0  6G 3G 8G13G16G27G23
   -433246.43447   -325761.31642  23278196.8054   23278196.9064
      2165.7854
   -675027.71547   -517128.34043  23157456.9384   23157457.1764
      3390.8404
   -236282.48449   -184221.11746  20236554.5704   20236552.4804
      1166.5494
    475743.44947    352039.91042  23735674.4534   23735674.0354
     -2423.9374
   -353391.54349   -273960.85245  21615392.3674   21615391.1914
      2159.4514
    256891.65249    190458.14546  21213793.2504   21213789.0124
     -1294.9954
 04  9  9 20 50 45.0000000  0  6G 3G 8G13G16G27G23
   -465663.68047   -351021.49642  23272028.3204   23272027.7274
      2161.1504
   -725893.68748   -556764.13743  23147777.2424   23147777.4184
      3391.0654
   -253721.89849   -197810.27747  20233236.0784   20233233.2814
      1162.6284
    512119.56647    380384.90242  23742597.2974   23742596.2114
     -2425.0744
   -385780.77749   -299199.20745  21609228.6484   21609228.0204
      2159.2824
    276365.09049    205632.23045  21217498.6884   21217494.6914
     -1298.2294
 04  9  9 20 51  0.0000000  0  6G 3G 8G13G16G27G23
   -498006.37146   -376223.58242  23265873.0944   23265873.5004
      2156.1794
   -776758.37948   -596398.94143  23138097.9144   23138098.0004
      3390.9794
   -271097.39149   -211349.61746  20229929.6174   20229926.8204
      1158.3664
    548517.21547    408746.65642  23749523.6254   23749521.8954
     -2426.5104
   -418162.45349   -324431.66445  21603066.7034   21603065.8284
      2158.7784
    295891.80949    220847.82445  21221214.6094   21221210.5204
     -1301.7814
 04  9  9 20 51 15.0000000  0  6G 3G 8G13G16G27G23
   -530278.30547   -401370.51242  23259733.0084   23259732.6334
      2151.4624
   -827625.97748   -636036.00843  23128418.3594   23128418.5744
      3391.1734
   -288413.06649   -224842.35246  20226634.0474   20226631.9614
      1154.3784
    584931.78947    437121.61742  23756453.1024   23756451.9384
     -2427.6384
   -450540.90649   -349661.62545  21596905.2664   21596904.0434
      2158.5644
    315467.59449    236101.65645  21224939.8054   21224935.3954
     -1305.0524
 04  9  9 20 51 30.0000000  0  6G 3G 8G13G16G27G23
   -562478.47746   -426461.53542  23253605.0704   23253605.4384
      2146.6784
   -878495.59448   -675674.64543  23118738.0634   23118738.3634
      3391.3084
   -305668.09449   -238287.83646  20223350.7504   20223348.5984
      1150.3354
    621363.91447    465510.24642  23763385.9384   23763384.8914
     -2428.8084
   -482915.44549   -374888.53545  21590744.7344   21590743.6564
      2158.3034
    335093.05149    251394.19945  21228674.4304   21228670.2304
     -1308.3644
 04  9  9 20 51 45.0000000  0  6G 3G 8G13G16G27G23
   -594608.24646   -451497.69542  23247491.1334   23247490.5394
      2141.9854
   -929368.73848   -715316.04343  23109057.2814   23109057.5354
      3391.5434
   -322863.77749   -251687.06646  20220078.9454   20220076.2464
      1146.3794
    657811.60547    493910.99242  23770321.5084   23770320.8914
     -2429.8464
   -515287.59049   -400113.56245  21584584.6024   21584583.3094
      2158.1434
    354766.47349    266724.11345  21232417.6484   21232414.0594
     -1311.5614
 04  9  9 20 52  0.0000000  0  6G 3G 8G13G16G27G23
   -626667.82446   -476479.16442  23241389.9064   23241389.8634
      2137.3054
   -980245.85548   -754960.51643  23099375.5084   23099375.8914
      3391.8084
   -340000.37549   -265040.26246  20216817.7424   20216815.5234
      1142.4404
    694273.97747    522323.21542  23777260.2344   23777258.9104
     -2430.8254
   -547657.95349   -425337.21145  21578424.8054   21578423.3954
      2158.0244
    374487.44149    282091.07445  21236171.0004   21236166.6844
     -1314.7314
 04  9  9 20 52 15.0000000  0  6G 3G 8G13G16G27G23
   -658660.88745   -501408.79742  23235301.5084   23235302.0434
      2132.8714
  -1031130.85948   -794611.14143  23089692.6804   23089692.6334
      3392.3344
   -357081.89548   -278350.53947  20213567.1254   20213564.4454
      1138.7684
    730746.89546    550743.59042  23784200.5004   23784199.7624
     -2431.5284
   -580030.35549   -450562.45745  21572264.9144   21572263.1374
      2158.1604
    394251.98849    297491.99245  21239931.5864   21239927.8524
     -1317.6364
 04  9  9 20 52 30.0000000  0  6G 3G 8G13G16G27G23
   -690587.10546   -526286.33242  23229226.0314   23229226.5704
      2128.4154
  -1082023.78148   -834267.93043  23080008.1804   23080008.2814
      3392.8614
   -374108.03549   -291617.66046  20210326.9614   20210324.5274
      1135.0764
    767229.99647    579171.97742  23791143.5164   23791142.3014
     -2432.2074
   -612404.92249   -475789.38745  21566103.4844   21566102.0984
      2158.3044
    414059.98049    312926.76245  21243701.3524   21243697.0944
     -1320.5334
 04  9  9 20 52 45.0000000  0  6G 3G 8G13G16G27G23
   -722445.70646   -551111.23442  23223163.9844   23223163.9964
      2123.9074
  -1132924.14148   -873930.51243  23070321.7814   23070321.5394
      3393.3574
   -391078.33249   -304841.27346  20207098.0394   20207095.2234
      1131.3534
    803723.30147    607608.25042  23798088.7114   23798087.0704
     -2432.8874
   -644781.34449   -501017.75045  21559942.7034   21559941.5434
      2158.4284
    433911.67649    328395.59846  21247479.0554   21247475.0044
     -1323.4464
 04  9  9 20 53  0.0000000  0  6G 3G 8G13G16G27G23
   -754232.22346   -575879.89142  23217115.4614   23217114.9774
      2119.1014
  -1183827.64848   -913595.53143  23060634.8284   23060635.2304
      3393.5674
   -407988.25048   -318017.82846  20203879.9534   20203877.4574
      1127.3284
    840230.79747    636055.65242  23805035.3444   23805033.8984
     -2433.8334
   -677155.27348   -526244.18745  21553782.1564   21553780.7894
      2158.2624
    453811.47749    343901.91445  21251265.6414   21251261.8014
     -1326.6534
 04  9  9 20 53 15.0000000  0  6G 3G 8G13G16G27G23
   -785950.16846   -600595.13742  23211079.4774   23211079.5594
      2114.5304
  -1234738.03948   -953265.94143  23050947.4454   23050947.0084
      3394.0264
   -424841.34849   -331150.11346  20200673.0784   20200670.7584
      1123.5404
    876748.46547    664510.91042  23811985.0164   23811983.3204
     -2434.5114
   -709530.37549   -551471.53145  21547621.3834   21547620.1024
      2158.3404
    473755.55149    359442.71945  21255061.0784   21255057.4734
     -1329.6054
 04  9  9 20 53 30.0000000  0  6G 3G 8G13G16G27G23
   -817603.03145   -625259.68442  23205056.0394   23205055.8284
      2110.1914
  -1285659.05948   -992944.61343  23041257.2504   23041256.9804
      3394.7354
   -441641.51248   -344241.14847  20197475.8754   20197473.2544
      1120.0114
    913272.12547    692970.86342  23818935.3364   23818933.4534
     -2434.9114
   -741910.66848   -576702.92645  21541459.6334   21541458.5314
      2158.6864
    493739.87949    375014.89846  21258864.0864   21258860.0634
     -1332.2894
 04  9  9 20 53 45.0000000  0  6G 3G 8G13G16G27G23
   -849183.89847   -649868.14542  23199046.4064   23199046.4104
      2105.3914
  -1336583.76248  -1032626.16843  23031566.7814   23031566.8404
      3394.9804
   -458381.90248   -357285.60547  20194290.5704   20194287.6604
      1116.0264
    949808.02347    721440.37942  23825887.8524   23825885.7344
     -2435.7274
   -774289.37548   -601933.07045  21535298.2504   21535296.8954
      2158.5804
    513771.07449    390623.60545  21262675.3594   21262671.8554
     -1335.4134
 04  9  9 20 54  0.0000000  0  6G 3G 8G13G16G27G23
   -880696.21146   -674423.16842  23193049.5784   23193049.8134
      2100.8214
  -1387516.02048  -1072313.59843  23021874.9064   23021874.4064
      3395.4844
   -475065.94548   -370286.16446  20191115.6254   20191112.9104
      1112.2704
    986352.35947    749916.44542  23832841.4534   23832839.9964
     -2436.2894
   -806670.28948   -627164.94545  21529136.3364   21529135.0124
      2158.7284
    533845.37949    406265.89545  21266495.8834   21266491.7544
     -1338.2874
 04  9  9 20 54 15.0000000  0  6G 3G 8G13G16G27G23
   -912138.81647   -698923.87142  23187066.5234   23187066.7034
      2096.1744
  -1438454.89548  -1112006.18043  23012181.0784   23012181.6484
      3395.9254
   -491692.61749   -383242.01246  20187951.7274   20187948.8594
      1108.4454
   1022905.53547    778399.41042  23839797.4774   23839795.9534
     -2436.8784
   -839052.51648   -652397.84446  21522974.0704   21522972.8984
      2158.8154
    553963.64849    421942.44145  21270324.0864   21270320.1954
     -1341.2184
 04  9  9 20 54 30.0000000  0  6G 3G 8G13G16G27G23
   -943512.32045   -723370.74642  23181096.0234   23181096.1764
      2091.5674
  -1489401.34048  -1151704.67643  23002486.7734   23002485.6214
      3396.4304
   -508262.75048   -396153.80946  20184798.3754   20184795.7734
      1104.6764
   1059466.25447    806888.27342  23846753.9614   23846753.1374
     -2437.3814
   -871437.06248   -677632.54745  21516811.1484   21516810.2544
      2158.9704
    574124.82849    437652.42645  21274160.6174   21274156.6644
     -1344.0794
 04  9  9 20 54 45.0000000  0  6G 3G 8G13G16G27G23
   -974814.28546   -747761.86742  23175139.8984   23175140.2234
      2086.7984
  -1540353.08648  -1191407.29343  22992790.2194   22992790.4494
      3396.7834
   -524774.07048   -409019.77346  20181656.3834   20181654.1214
      1100.7554
   1096036.55147    835384.56342  23853713.7274   23853712.6094
     -2438.0204
   -903821.61348   -702867.25445  21510648.5634   21510647.6094
      2158.9704
    594331.00849    453397.48445  21278005.9304   21278001.9304
     -1347.0794
 04  9  9 20 55  0.0000000  0  6G 3G 8G13G16G27G23
  -1006048.43747   -772100.15642  23169195.9774   23169196.2194
      2082.2774
  -1591314.21148  -1231117.21543  22983092.7814   22983093.1684
      3397.4084
   -541230.21149   -421842.74646  20178524.8134   20178522.3714
      1097.0764
   1132612.00447    863884.85942  23860673.0234   23860672.7974
     -2438.3644
   -936210.31248   -728105.18746  21504485.4694   21504484.1914
      2159.2474
    614578.28549    469174.55545  21281859.1414   21281854.8714
     -1349.8184
 04  9  9 20 55 15.0000000  0  6G 3G 8G13G16G27G23
  -1037212.32847   -796383.68442  23163265.7814   23163265.7814
      2077.5934
  -1642282.21148  -1270832.49243  22973393.6644   22973394.3674
      3397.8674
   -557628.98049   -434621.00846  20175404.3594   20175401.5004
      1093.2514
   1169194.57847    892390.73042  23867635.5864   23867633.9414
     -2438.8384
   -968600.95349   -753344.64846  21498321.5314   21498320.3404
      2159.3764
    634868.65649    484985.21145  21285720.0084   21285715.9964
     -1352.6914
 04  9  9 20 55 30.0000000  0  6G 3G 8G13G16G27G23
  -1068302.96147   -820610.14542  23157348.9534   23157349.0274
      2072.7094
  -1693254.62548  -1310551.22743  22963693.9454   22963694.3444
      3398.1614
   -573967.45348   -447352.28546  20172295.2974   20172292.6254
      1089.2324
   1205786.68447    920904.02042  23874598.6334   23874597.8754
     -2439.4744
  -1000990.93748   -778583.58645  21492158.1724   21492157.0434
      2159.3324
    655204.85949    500831.56645  21289589.9844   21289585.8794
     -1355.7474
 04  9  9 20 55 45.0000000  0  6G 3G 8G13G16G27G23
  -1099318.25047   -844777.89142  23151447.2664   23151447.3874
      2067.6864
  -1744229.23448  -1350271.66043  22953993.5394   22953993.8404
      3398.3074
   -590243.80149   -460035.16046  20169197.8204   20169195.2934
      1085.0904
   1242389.66047    949425.78542  23881564.1334   23881562.8554
     -2440.1984
  -1033378.34449   -803820.52045  21485994.9924   21485993.5084
      2159.1604
    675588.50449    516714.90245  21293468.6174   21293464.6564
     -1358.9104
 04  9  9 20 56  0.0000000  0  6G 3G 8G13G16G27G23
  -1130261.80946   -868889.72342  23145558.9304   23145559.1914
      2062.9044
  -1795209.92648  -1389996.82043  22944292.3204   22944293.1024
      3398.7134
   -606461.73049   -472672.50046  20166111.5554   20166109.1564
      1081.1954
   1278999.39147    977952.79742  23888530.7034   23888529.4734
     -2440.6494
  -1065767.10549   -829058.51245  21479831.9384   21479830.3284
      2159.2514
    696015.77349    532632.23445  21297355.5634   21297352.0044
     -1361.8184
 04  9  9 20 56 15.0000000  0  6G 3G 8G13G16G27G23
  -1161132.10547   -892944.48842  23139684.1724   23139684.5744
      2058.0204
  -1846195.58248  -1429725.87143  22934590.3444   22934590.4064
      3399.0444
   -622619.70749   -485263.12946  20163037.0784   20163034.3014
      1077.1984
   1315616.91447   1006485.87142  23895498.3134   23895497.6414
     -2441.1684
  -1098155.87149   -854296.50846  21473668.2114   21473666.8484
      2159.2514
    716487.82449    548584.44945  21301251.3984   21301247.6764
     -1364.8034
 04  9  9 20 56 30.0000000  0  6G 3G 8G13G16G27G23
  -1191929.87947   -916942.72742  23133823.7114   23133823.7154
      2053.1854
  -1897187.17648  -1469459.54343  22924886.7194   22924887.1174
      3399.4404
   -638718.68049   -497807.78546  20159973.2664   20159971.0124
      1073.2654
   1352240.85246   1035023.97742  23902467.6174   23902466.7034
     -2441.5964
  -1130545.86749   -879535.45345  21467504.5864   21467503.4734
      2159.3334
    737003.69149    564570.81645  21305155.8444   21305151.6414
     -1367.7244
 04  9  9 20 56 45.0000000  0  6G 3G 8G13G16G27G23
  -1222653.72346   -940883.37142  23127977.0784   23127977.5354
      2048.2564
  -1948183.55148  -1509196.94143  22915181.8834   22915182.9104
      3399.7584
   -654757.34049   -510305.44146  20156921.7034   20156918.7034
      1069.2444
   1388871.98847   1063567.67642  23909439.0084   23909437.8364
     -2442.0764
  -1162935.80149   -904774.35945  21461341.1024   21461339.9344
      2159.3294
    757564.25849    580592.01245  21309067.8914   21309063.8794
     -1370.7044
 04  9  9 20 57  0.0000000  0  6G 3G 8G13G16G27G23
  -1253299.60546   -964763.26642  23122145.6884   23122145.9734
      2043.0594
  -1999180.71148  -1548934.91843  22905477.8524   22905478.2544
      3399.8114
   -670731.74649   -522753.03146  20153881.5474   20153879.4304
      1064.9604
   1425513.86346   1092119.75042  23916411.6334   23916410.2584
     -2442.7924
  -1195322.01249   -930010.35545  21455178.1954   21455176.8094
      2159.0814
    778173.24249    596650.94145  21312989.7424   21312986.4384
     -1373.9324
 04  9  9 20 57 15.0000000  0  6G 3G 8G13G16G27G23
  -1283871.50446   -988585.53542  23116327.8204   23116328.2854
      2038.1274
  -2050183.00448  -1588676.92243  22895772.5314   22895773.1334
      3400.1534
   -686646.05149   -535153.78546  20150853.1024   20150850.6024
      1060.9544
   1462161.69547   1120676.44542  23923385.2344   23923384.3484
     -2443.1894
  -1227708.83249   -955246.82845  21449015.3204   21449014.2664
      2159.1214
    798826.25849    612744.16845  21316920.1094   21316916.3794
     -1376.8684
 04  9  9 20 57 30.0000000  0  6G 3G 8G13G16G27G23
  -1314367.17246  -1012348.36342  23110524.4534   23110524.4884
      2033.0454
  -2101188.48848  -1628421.42243  22886066.3594   22886066.9494
      3400.3664
   -702498.07449   -547506.01647  20147836.5314   20147833.9224
      1056.8024
   1498817.32447   1149239.24242  23930361.2034   23930359.8484
     -2443.7094
  -1260094.10549   -980482.10246  21442852.3364   21442851.0434
      2159.0184
    819525.30949    628873.28145  21320858.9924   21320855.5204
     -1379.9374
 04  9  9 20 57 45.0000000  0  6G 3G 8G13G16G27G23
  -1344786.89547  -1036052.04342  23104736.1414   23104736.2424
      2027.9824
  -2152197.54748  -1668168.68743  22876359.5394   22876359.9734
      3400.6044
   -718288.31649   -559810.10246  20144831.7504   20144829.2074
      1052.6834
   1535479.88347   1177807.42642  23937337.6954   23937336.1524
     -2444.1714
  -1292478.62549  -1005716.77345  21436689.6954   21436688.8914
      2158.9684
    840269.65249    645037.67245  21324806.7114   21324802.6884
     -1382.9564
 04  9  9 20 58  0.0000000  0  6G 3G 8G13G16G27G23
  -1375129.70746  -1059695.79342  23098962.1024   23098962.5864
      2022.8544
  -2203209.39148  -1707918.13743  22866652.7034   22866652.6954
      3400.7904
   -734015.79749   -572065.27346  20141839.1254   20141836.7424
      1048.4994
   1572149.84046   1206381.37942  23944315.2664   23944314.8164
     -2444.6644
  -1324861.51249  -1030950.18045  21430527.6414   21430526.1294
      2158.8594
    861060.12149    661238.01645  21328762.8834   21328758.9534
     -1386.0314
 04  9  9 20 58 15.0000000  0  6G 3G 8G13G16G27G23
  -1405393.66047  -1083278.07442  23093203.1804   23093203.0354
      2017.5974
  -2254222.22348  -1747668.35543  22856945.5634   22856945.1374
      3400.8554
   -749678.80949   -584270.21946  20138858.3364   20138856.0514
      1044.2014
   1608828.41446   1234962.02342  23951294.6954   23951294.1884
     -2445.2384
  -1357241.11749  -1056181.02745  21424365.9614   21424364.5514
      2158.6404
    881898.29749    677475.53145  21332728.2734   21332724.6214
     -1389.2124
 04  9  9 20 58 30.0000000  0  6G 3G 8G13G16G27G23
  -1435584.90247  -1106803.70743  23087457.7424   23087457.8244
      2012.7494
  -2305242.48848  -1787424.36743  22847235.7894   22847236.7114
      3401.3514
   -765283.60549   -596429.80147  20135888.5784   20135886.5164
      1040.3204
   1645508.85547   1263544.15642  23958275.2344   23958274.3914
     -2445.3634
  -1389623.96549  -1081414.41845  21418203.6724   21418202.1524
      2158.8574
    902777.68849    693745.16445  21336701.5944   21336697.4454
     -1391.9594
 04  9  9 20 58 45.0000000  0  6G 3G 8G13G16G27G23
  -1465701.08247  -1130270.83642  23081727.0164   23081727.4574
      2007.7454
  -2356267.89848  -1827184.38343  22837526.1414   22837526.3324
      3401.6944
   -780827.73449   -608542.11346  20132930.9534   20132928.4264
      1036.2754
   1682193.27045   1292129.35942  23965256.2194   23965255.1724
     -2445.6284
  -1422007.74649  -1106648.52045  21412041.1804   21412040.0124
      2158.9194
    923700.45749    710048.60245  21340682.8754   21340679.3404
     -1394.8514
 04  9  9 20 59  0.0000000  0  6G 3G 8G13G16G27G23
  -1495740.77047  -1153678.38742  23076010.2344   23076010.6054
      2002.6464
  -2407297.59448  -1866947.74643  22827815.8984   22827815.5984
      3401.9804
   -796309.95749   -620606.17647  20129984.6954   20129982.3874
      1032.1484
   1718882.28146   1320718.16042  23972237.5554   23972237.3404
     -2445.9344
  -1454391.51649  -1131882.61745  21405878.9064   21405877.5274
      2158.9184
    944667.58649    726386.59445  21344673.3834   21344669.2504
     -1397.8094
 04  9  9 20 59 15.0000000  0  6G 3G 8G13G16G27G23
  -1525703.38347  -1177025.86742  23070308.9454   23070308.9574
      1997.5084
  -2458330.91048  -1906713.93743  22818104.6724   22818104.6724
      3402.2214
   -811729.75849   -632621.60246  20127050.3444   20127047.9184
      1027.9874
   1755576.00446   1349310.64542  23979220.1094   23979219.1764
     -2446.2484
  -1486774.75849  -1157116.30945  21399716.5554   21399714.8594
      2158.8834
    965679.31649    742759.35945  21348671.2274   21348667.5274
     -1400.7824
 04  9  9 20 59 30.0000000  0  7G19G 3G 8G13G16G27G23
   -152515.80157   -113861.24653  24077610.7814   24077610.9454

  -1555591.40246  -1200315.21942  23064621.3754   23064621.7894
      1992.5354
  -2509370.75448  -1946485.19143  22808392.1954   22808392.2464
      3402.6564
   -827089.83249   -644590.50046  20124127.5004   20124125.0784
      1024.0054
   1792271.43846   1377904.43842  23986203.1884   23986202.1414
     -2446.3624
  -1519160.39549  -1182351.86346  21393553.6804   21393551.9924
      2159.0424
    986732.83649    759164.66845  21352677.8284   21352673.8444
     -1403.5684
 04  9  9 20 59 45.0000000  0  7G19G 3G 8G13G16G27G23
   -205005.94547   -154762.57842  24067622.9064   24067621.9184
      3499.3434
  -1585406.29747  -1223547.61743  23058947.9924   23058947.9384
      1987.6604
  -2560418.64848  -1986262.72343  22798678.2034   22798677.7544
      3403.1934
   -842391.83249   -656514.12947  20121215.5004   20121213.0354
      1020.1334
   1828966.34846   1406497.82042  23993185.9924   23993185.4574
     -2446.3274
  -1551550.17249  -1207590.64145  21387389.8914   21387388.8014
      2159.3184
   1007826.26249    775601.07845  21356691.6414   21356687.8914
     -1406.2284
 04  9  9 21  0  0.0000000  0  7G19G 3G 8G13G16G27G23
   -257506.41047   -195672.02042  24057632.2034   24057630.6414
      3500.0314
  -1615147.82047  -1246722.81643  23053287.9144   23053287.9844
      1982.7684
  -2611474.43748  -2026046.43743  22788961.9774   22788961.3204
      3403.7194
   -857635.57049   -668392.36747  20118315.1724   20118312.6564
      1016.2494
   1865660.53945   1435090.65242  24000168.6094   24000167.9654
     -2446.2794
  -1583944.07449  -1232832.62546  21381225.5084   21381224.1684
      2159.5934
   1028959.47349    792068.48845  21360713.2734   21360709.7704
     -1408.8814
 04  9  9 21  0 15.0000000  0  7G19G 3G 8G13G16G27G23
   -310018.28546   -236590.32043  24047638.8444   24047639.1094
      3500.7924
  -1644817.36746  -1269841.92243  23047642.0944   23047642.2464
      1977.9704
  -2662539.88348  -2065837.66443  22779244.5314   22779244.2504
      3404.3634
   -872822.43449   -680226.28946  20115424.8984   20115422.5514
      1012.4584
   1902352.09046   1463681.43042  24007150.5084   24007150.2344
     -2446.1034
  -1616343.68749  -1258079.07446  21375060.1644   21375059.0274
      2159.9744
   1050130.96949    808565.73045  21364741.7814   21364738.0004
     -1411.4334
 04  9  9 21  0 30.0000000  0  7G19G 3G 8G13G16G27G23
   -362534.98047   -277512.33242  24037644.9534   24037644.9184
      3501.1134
  -1674408.09346  -1292899.66042  23042011.1954   23042011.1134
      1972.7154
  -2713608.30148  -2105631.19543  22769526.7424   22769527.0354
      3404.5614
   -887945.91848   -692010.82046  20112547.3674   20112544.5594
      1008.2324
   1939047.12145   1492274.92642  24014133.4064   24014132.4024
     -2446.3354
  -1648742.61749  -1283324.98445  21368894.7034   21368893.9064
      2159.9294
   1071347.03149    825097.70745  21368779.7814   21368775.9454
     -1414.4044
 04  9  9 21  0 45.0000000  0  7G19G 3G 8G13G16G27G23
   -415060.59447   -318441.35542  24027650.7114   24027649.4264
      3501.7084
  -1703924.52747  -1315899.44142  23036394.7584   23036394.5784
      1967.7624
  -2764684.51648  -2145430.81243  22759807.3284   22759806.5634
      3405.0814
   -903010.60249   -703749.53146  20109680.2344   20109677.9384
      1004.3124
   1975740.65246   1520867.23442  24021116.0704   24021115.8954
     -2446.2354
  -1681145.46949  -1308573.95345  21362728.7894   21362727.6254
      2160.1904
   1092602.88749    841660.68445  21372824.1334   21372820.4734
     -1417.0574
 04  9  9 21  1  0.0000000  0  7G19G 3G 8G13G16G27G23
   -467592.18746   -359375.02342  24017653.4534   24017653.0084
      3502.1064
  -1733363.84047  -1338839.16442  23030793.0084   23030792.6454
      1962.6214
  -2815765.81248  -2185234.39143  22750086.9774   22750086.5204
      3405.4204
   -918013.69949   -715440.26246  20106825.6094   20106823.0864
      1000.2074
   2012435.05545   1549460.24242  24028099.1094   24028098.4024
     -2446.2934
  -1713549.71949  -1333824.00045  21356562.5634   21356561.2304
      2160.2834
   1113901.19549    858256.74245  21376877.2504   21376873.5084
     -1419.8874
 04  9  9 21  1 15.0000000  0  7G19G 3G 8G13G16G27G23
   -520128.72747   -400312.53942  24007656.9454   24007655.6054
      3502.4364
  -1762725.03547  -1361718.01243  23025204.9614   23025205.1644
      1957.4134
  -2866851.52048  -2225041.40243  22740365.3674   22740365.3284
      3405.7144
   -932954.31249   -727082.29746  20103982.1254   20103979.7344
       996.0414
   2049130.53146   1578054.06342  24035082.3134   24035081.8244
     -2446.3654
  -1745954.70349  -1359074.62946  21350396.0944   21350394.8484
      2160.3324
   1135242.44149    874886.25845  21380938.2034   21380934.7074
     -1422.7504
 04  9  9 21  1 30.0000000  0  7G19G 3G 8G13G16G27G23
   -572668.52346   -441252.61342  23997657.9694   23997657.5434
      3502.6534
  -1792006.55546  -1384534.77343  23019632.9454   23019632.6564
      1952.1014
  -2917940.23048  -2264850.74643  22730643.6954   22730642.7704
      3405.9144
   -947831.07849   -738674.58247  20101151.2814   20101148.5514
       991.7844
   2085828.29746   1606649.71142  24042064.9774   24042065.1054
     -2446.5184
  -1778359.07849  -1384324.77746  21344229.7894   21344228.4844
      2160.2924
   1156627.83249    891550.18045  21385007.5314   21385004.0354
     -1425.6934
 04  9  9 21  1 45.0000000  0  7G19G 3G 8G13G16G27G23
   -625211.48047   -482195.09442  23987659.9534   23987659.2424
      3502.8644
  -1821208.45747  -1407289.50042  23014076.0234   23014075.7704
      1946.7934
  -2969032.21148  -2304662.63343  22720921.0084   22720920.7734
      3406.1324
   -962644.06649   -750217.16847  20098332.4844   20098329.7034
       987.5334
   2122527.73846   1635246.61342  24049048.9924   24049048.7624
     -2446.6294
  -1810763.08249  -1409574.64145  21338063.3594   21338062.3054
      2160.2674
   1178057.03149    908248.23045  21389086.0474   21389082.1334
     -1428.6134
 04  9  9 21  2  0.0000000  0  7G19G 3G 8G13G16G27G23
   -677755.84046   -523138.71542  23977661.1724   23977660.0234
      3502.9574
  -1850329.26247  -1429981.02743  23008534.5164   23008534.6054
      1941.3874
  -3020126.11748  -2344476.04343  22711198.0784   22711197.9454
      3406.2604
   -977391.80949   -761708.91846  20095525.9064   20095523.6524
       983.1834
   2159229.73846   1663845.54742  24056034.1724   24056032.8524
     -2446.8004
  -1843165.58649  -1434823.33245  21331897.5704   21331896.0944
      2160.1674
   1199531.27749    924981.38745  21393172.0944   21393168.1954
     -1431.6164
 04  9  9 21  2 15.0000000  0  7G19G 3G 8G13G16G27G23
   -730302.07446   -564083.79342  23967661.7504   23967660.5824
      3503.0824
  -1879369.55947  -1452609.80943  23003008.8134   23003008.7384
      1936.0204
  -3071222.77348  -2384291.60243  22701474.3984   22701474.2774
      3406.4444
   -992075.11749   -773150.45347  20092732.0704   20092729.5164
       978.8874
   2195933.18846   1692445.62942  24063017.5784   24063016.7504
     -2446.8974
  -1875567.43749  -1460071.52045  21325731.4694   21325730.2234
      2160.1234
   1221049.65249    941748.93045  21397266.9384   21397263.3754
     -1434.5584
 04  9  9 21  2 30.0000000  0  7G19G 3G 8G13G16G27G23
   -782849.55146   -605029.80142  23957662.1414   23957661.2154
      3503.1654
  -1908328.67247  -1475175.36743  22997497.0394   22997497.1804
      1930.6084
  -3122321.64848  -2424108.86343  22691751.1884   22691750.9064
      3406.5924
  -1006693.51249   -784541.41046  20089950.1724   20089947.2934
       974.5604
   2232638.04746   1721046.75842  24070002.4224   24070002.2034
     -2446.9914
  -1907968.23449  -1485318.88345  21319565.9534   21319564.4884
      2160.0534
   1242612.32849    958550.99645  21401370.2664   21401366.2974
     -1437.5124
 04  9  9 21  2 45.0000000  0  7G19G 3G 8G13G16G27G23
   -835401.37946   -645979.26242  23947662.7344   23947661.2074
      3503.4554
  -1937210.07046  -1497680.33642  22992001.2974   22992001.7424
      1925.4274
  -3173426.20748  -2463930.57443  22682026.0784   22682025.9534
      3406.9714
  -1021250.03149   -795884.15647  20087180.1414   20087177.7114
       970.4354
   2269340.60946   1749646.09442  24076987.0634   24076986.4264
     -2446.8374
  -1940371.51649  -1510568.18445  21313399.3134   21313397.9964
      2160.2194
   1264215.76249    975384.81345  21405481.3524   21405477.5474
     -1440.2294
 04  9  9 21  3  0.0000000  0  7G19G 3G 8G13G16G27G23
   -887950.48446   -686926.54742  23937661.3594   23937661.5904
      3503.2744
  -1966006.69147  -1520119.25443  22986521.4144   22986521.1374
      1919.7754
  -3224530.10248  -2503751.75043  22672301.0944   22672300.8874
      3406.9264
  -1035738.35949   -807173.76246  20084422.9304   20084420.7424
       965.8894
   2306047.23846   1778248.63342  24083971.9694   24083971.0434
     -2447.1094
  -1972770.62149  -1535814.22345  21307234.1884   21307233.2384
      2159.9404
   1285866.53949    992255.52045  21409601.2584   21409597.1684
     -1443.3854
 04  9  9 21  3 15.0000000  0  7G19G 3G 8G13G16G27G23
   -940498.78946   -727873.22342  23927661.2424   23927661.8244
      3503.2204
  -1994720.65647  -1542493.76642  22981057.8054   22981058.4024
      1914.2644
  -3275635.43048  -2543574.04743  22662576.1094   22662576.4264
      3407.0224
  -1050160.70749   -818411.94946  20081678.5864   20081676.0514
       961.4904
   2342755.16446   1806852.20742  24090957.3524   24090956.6604
     -2447.1954
  -2005167.99649  -1561058.92246  21301069.2424   21301067.8284
      2159.8254
   1307562.24649   1009161.23845  21413729.8364   21413726.1294
     -1446.3804
 04  9  9 21  3 30.0000000  0  7G19G 3G 8G13G16G27G23
   -993048.31245   -768820.87542  23917661.7034   23917661.1994
      3503.3024
  -2023354.15247  -1564805.55943  22975608.7274   22975609.2894
      1908.9004
  -3326744.43048  -2583399.21943  22652850.3054   22652850.6334
      3407.2674
  -1064519.11749   -829600.32446  20078946.1724   20078943.5744
       957.2274
   2379461.77046   1835454.69542  24097942.6414   24097941.7854
     -2447.1074
  -2037565.87949  -1586304.02346  21294904.3284   21294902.7664
      2159.8594
   1329300.34849   1026100.00045  21417866.6024   21417863.1254
     -1449.2074
 04  9  9 21  3 45.0000000  0  7G19G 3G 8G13G16G27G23
  -1045594.85246   -809766.13742  23907662.0944   23907661.7704
      3503.1034
  -2051902.98847  -1587051.39842  22970176.2894   22970176.2934
      1903.2564
  -3377853.02748  -2623224.08243  22643124.3444   22643124.9734
      3407.2404
  -1078809.52049   -840735.70346  20076226.8674   20076224.1884
       952.6934
   2416170.69146   1864059.00842  24104927.8134   24104927.1524
     -2447.2614
  -2069960.41449  -1611546.50846  21288740.0004   21288738.5164
      2159.6364
   1351084.79749   1043074.86345  21422012.0004   21422008.1724
     -1452.2974
 04  9  9 21  4  0.0000000  0  7G19G 3G 8G13G16G27G23
  -1098141.72346   -850711.73042  23897663.4614   23897662.6994
      3503.1254
  -2080370.89547  -1609234.16042  22964758.5704   22964759.0394
      1897.8604
  -3428965.41448  -2663051.90243  22633398.2114   22633398.6914
      3407.4924
  -1093035.82449   -851821.13346  20073519.5554   20073516.9384
       948.4204
   2452877.60545   1892661.77742  24111912.8444   24111911.6954
     -2447.1284
  -2102355.60949  -1636789.50846  21282575.1414   21282573.7544
      2159.6804
   1372911.46149   1060082.64145  21426165.4384   21426161.4224
     -1455.1114
 04  9  9 21  4 15.0000000  0  7G19G 3G 8G13G16G27G23
  -1150687.22346   -891656.22742  23887664.2274   23887663.9804
      3503.0334
  -2108756.02047  -1631352.43042  22959357.8444   22959357.5904
      1892.3424
  -3480079.92248  -2702881.35543  22623671.9534   22623671.7424
      3407.6344
  -1107196.36349   -862855.32047  20070824.9694   20070822.4574
       944.0364
   2489583.85246   1921263.98442  24118897.8594   24118897.1884
     -2447.0834
  -2134749.95749  -1662031.84446  21276410.7974   21276409.2424
      2159.6234
   1394781.81649   1077124.45345  21430327.3284   21430323.4884
     -1458.0244
 04  9  9 21  4 29.9990000  0  7G19G 3G 8G13G16G27G23
  -1203226.45746   -932595.80542  23877666.7764   23877666.3274
      3502.6164
  -2137055.28947  -1653403.80942  22953972.3234   22953972.1244
      1886.6184
  -3531192.16848  -2742709.04343  22613945.1284   22613944.6904
      3407.4834
  -1121289.08249   -873836.66047  20068143.2064   20068140.8944
       939.5154
   2526287.63746   1949864.28942  24125882.8944   24125881.9994
     -2446.9194
  -2167140.28149  -1687271.04746  21270246.8004   21270245.5624
      2159.3554
   1416695.28949   1094199.84445  21434497.3554   21434493.6244
     -1460.8984
 04  9  9 21  4 44.9990000  0  7G19G 3G 8G13G16G27G23
  -1255766.65646   -973536.15242  23867667.6054   23867667.4294
      3502.6804
  -2165273.00848  -1675391.61743  22948602.6674   22948602.4294
      1881.1814
  -3582309.29348  -2782540.53943  22604218.1754   22604217.6554
      3407.8084
  -1135316.34449   -884766.99246  20065474.1124   20065471.3124
       935.1514
   2562992.85946   1978465.71142  24132867.1754   24132866.6594
     -2447.0154
  -2199531.52349  -1712510.96146  21264083.2454   21264081.6904
      2159.4164
   1438654.03549   1111310.53945  21438676.0264   21438671.9604
     -1463.9164
 04  9  9 21  4 59.9990000  0  6G19G 3G 8G13G27G23
  -1308303.73046  -1014474.09842  23857671.1834   23857670.0384
      3502.4724
  -2193406.88347  -1697314.11343  22943248.9334   22943248.9684
      1875.5924
  -3633427.88748  -2822373.19943  22594490.0734   22594490.3044
      3407.9064
  -1149276.84049   -895645.30547  20062817.2844   20062814.8944
       930.7004
  -2231921.39149  -1737749.80146  21257919.6674   21257917.9834
      2159.3244
   1460656.69149   1128455.44145  21442862.9254   21442859.3904
     -1466.8444
 04  9  9 21  5 14.9990000  0  6G19G 3G 8G13G27G23
  -1360837.55547  -1055409.48043  23847674.4724   23847673.7724
      3502.2554
  -2221456.78147  -1719171.16842  22937911.5734   22937910.7724
      1869.9934
  -3684548.21548  -2862207.18443  22584761.9564   22584762.1404
      3408.0224
  -1163170.72749   -906471.71146  20060173.4014   20060170.6634
       926.2594
  -2264310.11349  -1762987.75046  21251756.1674   21251754.7924
      2159.2484
   1482703.02349   1145634.36345  21447058.1984   21447054.1514
     -1469.7554
 04  9  9 21  5 29.9990000  0  6G19G 3G 8G13G27G23
  -1413366.60546  -1096341.13742  23837678.2144   23837677.7694
      3501.9374
  -2249421.46947  -1740961.82443  22932589.6754   22932589.1244
      1864.3134
  -3735669.05148  -2902041.55943  22575034.3624   22575033.8864
      3408.0564
  -1176996.71549   -917245.21547  20057542.2694   20057540.0424
       921.7334
  -2296696.57449  -1788223.94545  21245593.5264   21245591.7724
      2159.0974
   1504794.07449   1162848.14845  21451261.7844   21451258.2144
     -1472.7374
 04  9  9 21  5 44.9990000  0  6G19G 3G 8G13G27G23
  -1465888.87547  -1137267.53542  23827683.7224   23827682.2654
      3501.4854
  -2277299.02047  -1762684.57443  22927284.5814   22927285.0814
      1858.5034
  -3786788.44948  -2941874.83243  22565306.7614   22565306.4604
      3407.9604
  -1190752.95349   -927964.35546  20054924.3784   20054922.0894
       917.0834
  -2329079.26249  -1813457.19946  21239431.0974   21239429.3864
      2158.8464
   1526931.25448   1180097.86745  21455474.6284   21455470.8044
     -1475.8124
 04  9  9 21  5 59.9990000  0  6G19G 3G 8G13G27G23
  -1518402.04347  -1178186.84043  23817690.8004   23817689.8434
      3500.8784
  -2305087.39847  -1784337.84842  22921996.7694   22921996.6324
      1852.5594
  -3837904.73448  -2981705.68043  22555579.3704   22555579.2064
      3407.7524
  -1204437.62549   -938627.74647  20052320.6674   20052318.0734
       912.3114
  -2361456.10949  -1838685.90246  21233269.9954   21233268.3704
      2158.4574
   1549116.44949   1197385.00845  21459696.1834   21459692.5624
     -1479.0134
 04  9  9 21  6 14.9990000  0  6G19G 3G 8G13G27G23
  -1570903.59447  -1219097.07842  23807699.8554   23807699.4834
      3500.1034
  -2332784.23047  -1805919.78542  22916726.6444   22916726.1794
      1846.4554
  -3889015.72348  -3021532.39843  22545853.7374   22545853.2414
      3407.3994
  -1218048.43449   -949233.57046  20049730.9644   20049728.0774
       907.3874
  -2393825.02749  -1863908.42246  21227110.3624   21227108.5544
      2157.9284
   1571351.80948   1214711.22745  21463927.3704   21463923.7184
     -1482.3574
 04  9  9 21  6 29.9990000  0  6G19G 3G 8G13G27G23
  -1623394.23847  -1259998.80942  23797711.5814   23797710.2144
      3499.3764
  -2360390.17247  -1827430.89542  22911473.2534   22911472.5654
      1840.3964
  -3940122.18448  -3061355.58243  22536128.2534   22536127.8704
      3407.0974
  -1231586.14849   -959782.44146  20047154.7304   20047151.8784
       902.5144
  -2426187.08649  -1889125.60545  21220951.9174   21220950.4994
      2157.4714
   1593636.18849   1232075.65245  21468168.2144   21468164.3904
     -1485.6254
 04  9  9 21  6 44.9990000  0  6G19G 3G 8G13G27G23
  -1675875.32047  -1300893.13342  23787724.4334   23787723.2024
      3498.7394
  -2387907.00847  -1848872.55943  22906236.6514   22906236.5504
      1834.4564
  -3991226.02348  -3101176.73843  22526403.9174   22526403.0734
      3406.9234
  -1245052.54349   -970275.73046  20044592.0424   20044589.3514
       897.7604
  -2458544.12949  -1914338.87946  21214794.8084   21214793.5034
      2157.1364
   1615967.52049   1249476.65245  21472417.6594   21472414.0504
     -1488.7554
 04  9  9 21  6 59.9990000  0  6G19G 3G 8G13G27G23
  -1728346.64547  -1341779.81242  23777739.6514   23777737.7064
      3498.0884
  -2415334.52047  -1870244.63342  22901017.5814   22901017.3124
      1828.5014
  -4042327.25848  -3140995.86744  22516679.3864   22516678.7804
      3406.7494
  -1258447.59849   -980713.43747  20042042.8394   20042040.3974
       893.0044
  -2490896.28949  -1939548.33646  21208638.2064   21208636.7064
      2156.8114
   1638345.58649   1266914.08645  21476676.2694   21476672.5194
     -1491.8714
 04  9  9 21  7 14.9990000  0  6G19G 3G 8G13G27G23
  -1780810.66847  -1382660.82042  23767755.4094   23767754.2264
      3497.6024
  -2442675.50847  -1891549.28543  22895814.5424   22895814.0034
      1822.7334
  -4093428.81248  -3180815.21543  22506955.1754   22506954.6244
      3406.7704
  -1271774.05549   -991097.69546  20039507.1594   20039504.5854
       888.4304
  -2523246.39549  -1964756.19946  21202482.2304   21202480.8314
      2156.6744
   1660767.49649   1284385.66845  21480943.0194   21480939.3154
     -1494.7944
 04  9  9 21  7 29.9990000  0  6G19G 3G 8G13G27G23
  -1833265.97747  -1423535.00442  23757773.6674   23757772.6204
      3497.0214
  -2469928.53947  -1912785.37142  22890628.5424   22890628.5654
      1816.8694
  -4144529.65248  -3220634.02043  22497230.7064   22497230.3624
      3406.7234
  -1285030.75849  -1001427.59446  20036984.2764   20036981.8274
       883.7804
  -2555593.35549  -1989961.60945  21196326.5654   21196325.3624
      2156.4644
   1683234.26649   1301892.21545  21485218.4254   21485214.8944
     -1497.7854
 04  9  9 21  7 44.9990000  0  6G19G 3G 8G13G27G23
  -1885712.52347  -1464402.40642  23747793.5264   23747792.6514
      3496.4364
  -2497093.62947  -1933952.98042  22885459.0424   22885458.3434
      1811.0064
  -4195629.95748  -3260452.41043  22487506.1834   22487506.5194
      3406.6874
  -1298217.77349  -1011703.18447  20034474.5734   20034472.4564
       879.1344
  -2587937.60549  -2015164.91045  21190171.7304   21190170.5854
      2156.2834
   1705745.47348   1319433.39145  21489501.8554   21489498.3124
     -1500.7474
 04  9  9 21  7 59.9990000  0  6G19G 3G 8G13G27G23
  -1938151.34447  -1505263.76242  23737814.5734   23737812.9994
      3495.9214
  -2524172.23447  -1955053.17242  22880306.3784   22880305.9294
      1805.2404
  -4246731.26648  -3300271.58643  22477782.5894   22477781.8664
      3406.7544
  -1311336.53149  -1021925.60247  20031978.2304   20031976.2454
       874.5844
  -2620280.53149  -2040367.18046  21184017.2224   21184015.7844
      2156.1954
   1728299.52749   1337007.95345  21493793.7064   21493790.1244
     -1503.6044
 04  9  9 21  8 14.9990000  0  6G19G 3G 8G13G27G23
  -1990582.64847  -1546119.29342  23727837.1754   23727835.7064
      3495.4204
  -2551164.86747  -1976086.35542  22875169.6364   22875169.4604
      1799.5094
  -4297834.11748  -3340091.95743  22468057.6674   22468057.4484
      3406.8574
  -1324387.61349  -1032095.28146  20029494.9334   20029492.2064
       870.0724
  -2652622.90249  -2065569.01246  21177862.7224   21177860.9724
      2156.1584
   1750895.63349   1354615.28545  21498094.0034   21498090.0464
     -1506.4074
 04  9  9 21  8 29.9990000  0  6G19G 3G 8G13G27G23
  -2043003.90647  -1586966.93042  23717861.6284   23717860.0034
      3494.7514
  -2578068.88747  -1997050.49642  22870050.0894   22870049.4804
      1793.6014
  -4348936.18748  -3379911.72743  22458333.0584   22458333.0624
      3406.8054
  -1337368.62549  -1042210.34846  20027024.8474   20027022.3704
       865.4014
  -2684962.34449  -2090768.57446  21171708.4954   21171707.0264
      2155.9634
   1773536.01249   1372257.10545  21502402.1514   21502398.8234
     -1509.3594
 04  9  9 21  8 44.9990000  0  6G19G 3G 8G13G27G23
  -2095414.82847  -1627806.57442  23707887.8474   23707886.4054
      3494.0614
  -2604884.27348  -2017945.60542  22864947.3004   22864946.9954
      1787.6924
  -4400037.50448  -3419730.89543  22448609.5194   22448608.7144
      3406.7544
  -1350279.65249  -1052270.88747  20024567.8084   20024565.0624
       860.7354
  -2717299.20349  -2115966.12146  21165554.9564   21165553.7264
      2155.7914
   1796220.35949   1389933.19545  21506718.8784   21506715.5224
     -1512.2904
 04  9  9 21  8 59.9990000  0  6G19G 3G 8G13G27G23
  -2147817.01247  -1668639.35542  23697916.8704   23697915.3514
      3493.4794
  -2631612.96147  -2038773.12142  22859861.4014   22859860.1554
      1781.9124
  -4451139.97748  -3459550.96944  22438884.4804   22438884.1514
      3406.8324
  -1363122.57449  -1062278.36746  20022123.8554   20022121.4644
       856.1954
  -2749635.36749  -2141163.12546  21159401.7224   21159400.5194
      2155.7444
   1818946.64149   1407641.95745  21511043.6674   21511039.6834
     -1515.0854
 04  9  9 21  9 14.9990000  0  6G19G 3G 8G13G27G23
  -2200208.27346  -1709463.65642  23687946.3004   23687944.5464
      3492.7514
  -2658252.62147  -2059531.28942  22854791.2224   22854790.7654
      1775.9774
  -4502242.01648  -3499370.72743  22429160.0504   22429160.0074
      3406.8034
  -1375895.37549  -1072231.19946  20019693.4094   20019690.7844
       851.5204
  -2781968.96949  -2166358.12946  21153248.8944   21153247.4954
      2155.5734
   1841716.62149   1425384.77745  21515376.6444   21515372.9134
     -1517.9994
 04  9  9 21  9 29.9990000  0  6G19G 3G 8G13G27G23
  -2252591.83246  -1750281.93742  23677977.9254   23677977.0304
      3492.2374
  -2684806.78547  -2080222.82842  22849738.1834   22849738.4214
      1770.2784
  -4553346.82448  -3539192.61743  22419435.1594   22419434.7374
      3406.9874
  -1388601.39149  -1082131.98846  20017275.4404   20017272.9914
       847.0684
  -2814303.60949  -2191553.93746  21147095.5194   21147094.7694
      2155.6434
   1864526.44949   1443158.64545  21519717.3314   21519713.5224
     -1520.6554
 04  9  9 21  9 44.9990000  0  6G19G 3G 8G13G27G23
  -2304963.76647  -1791091.19542  23668011.7844   23668010.8434
      3491.4624
  -2711271.75448  -2100844.84042  22844702.1834   22844701.9374
      1764.3314
  -4604451.09048  -3579014.09843  22409710.1834   22409709.8314
      3406.9514
  -1401237.13749  -1091978.02347  20014871.0264   20014868.3904
       842.3834
  -2846635.91449  -2216747.93446  21140942.9804   21140941.8434
      2155.4874
   1887379.73048   1460966.36345  21524065.6514   21524062.6874
     -1523.5524
 04  9  9 21  9 59.9990000  0  6G19G 3G 8G13G27G23
  -2357321.68747  -1831889.49242  23658048.3394   23658047.2414
      3490.5284
  -2737645.28547  -2121395.61342  22839683.2764   22839683.0504
      1758.2354
  -4655552.80948  -3618833.58244  22399985.4874   22399985.5894
      3406.7814
  -1413800.49649  -1101767.65647  20012480.1834   20012477.5814
       837.5574
  -2878963.70749  -2241938.40646  21134790.7374   21134790.1594
      2155.1864
   1910278.19548   1478809.30145  21528423.3314   21528420.0424
     -1526.5644
 04  9  9 21 10 14.9990000  0  6G19G 3G 8G13G27G23
  -2409669.19846  -1872679.74642  23648087.4334   23648086.1904
      3489.8344
  -2763931.20347  -2141878.13342  22834681.7144   22834681.0734
      1752.3954
  -4706655.81648  -3658654.07043  22390261.3944   22390260.7614
      3406.8674
  -1426295.36349  -1111503.92247  20010102.4874   20010099.7374
       832.9914
  -2911291.14549  -2267128.61746  21128639.4804   21128638.3474
      2155.1634
   1933217.72348   1496684.22345  21532788.8154   21532785.4804
     -1529.3024
 04  9  9 21 10 29.9990000  0  6G19G 3G 8G13G27G23
  -2462004.59847  -1913460.45742  23638128.1514   23638126.2724
      3489.0274
  -2790127.63348  -2162290.91442  22829696.6364   22829696.1204
      1746.4294
  -4757758.28148  -3698474.14544  22380536.5114   22380536.2144
      3406.8314
  -1438720.07849  -1121185.50847  20007737.9724   20007735.4294
       828.3144
  -2943616.48449  -2292317.18446  21122488.6124   21122486.8704
      2155.0234
   1956199.94149   1514592.41445  21537161.9874   21537158.7804
     -1532.1484
 04  9  9 21 10 44.9990000  0  6G19G 3G 8G13G27G23
  -2514328.23047  -1954232.07043  23628171.3864   23628169.6204
      3488.2424
  -2816235.62147  -2182634.77042  22824728.0424   22824728.2884
      1740.5334
  -4808861.78548  -3738295.02743  22370812.1054   22370811.8124
      3406.9004
  -1451075.48849  -1130813.09847  20005387.1284   20005384.2064
       823.6944
  -2975941.00049  -2317505.10946  21116337.2064   21116336.0774
      2154.9684
   1979223.60248   1532532.90245  21541542.9334   21541539.7224
     -1534.9114
 04  9  9 21 10 59.9990000  0  6G19G 3G 8G13G27G23
  -2566640.75046  -1994995.00443  23618216.2454   23618215.4644
      3487.5014
  -2842255.81247  -2202910.21942  22819776.2764   22819776.3554
      1734.6794
  -4859966.74647  -3778117.03943  22361087.3944   22361087.1874
      3406.9974
  -1463362.53549  -1140387.42647  20003048.5344   20003046.2924
       819.1364
  -3008265.53549  -2342693.05546  21110186.1124   21110184.8274
      2154.9694
   2002287.71148   1550504.90245  21545932.2764   21545928.5854
     -1537.6074
 04  9  9 21 11 14.9990000  0  6G19G 3G 8G13G27G23
  -2618937.71546  -2035745.79342  23608264.7064   23608262.9804
      3486.4644
  -2868183.84447  -2223113.84042  22814842.4334   22814842.4764
      1728.5354
  -4911069.12948  -3817937.05944  22351362.6364   22351362.5424
      3406.8264
  -1475576.98849  -1149905.18046  20000724.5734   20000721.8584
       814.2974
  -3040585.96149  -2367877.80146  21104035.6674   21104033.8584
      2154.6954
   2025396.25448   1568511.52745  21550329.5734   21550326.2964
     -1540.5704
 04  9  9 21 11 29.9990000  0  6G19G 3G 8G13G27G23
  -2671220.87147  -2076485.86343  23598315.1834   23598313.9914
      3485.5444
  -2894021.75047  -2243247.25842  22809925.7614   22809925.6834
      1722.5274
  -4962171.16448  -3857756.78543  22341638.0894   22341638.0624
      3406.8024
  -1487720.59049  -1159367.73046  19998413.3554   19998411.1284
       809.5734
  -3072904.50049  -2393061.07446  21097885.5814   21097884.1324
      2154.5694
   2048547.00048   1586551.03145  21554735.0034   21554731.7334
     -1543.3834
 04  9  9 21 11 44.9990000  0  6G19G 3G 8G13G27G23
  -2723491.16446  -2117215.91443  23588368.7374   23588368.4764
      3484.6864
  -2919770.60548  -2263311.28542  22805025.9874   22805025.7804
      1716.5904
  -5013273.94148  -3897577.10543  22331914.3154   22331913.4644
      3406.8524
  -1499794.72349  -1168776.14146  19996116.2144   19996113.1594
       804.9424
  -3105222.30149  -2418243.77046  21091735.5344   21091734.2924
      2154.5204
   2071738.45348   1604622.26245  21559148.2454   21559144.9524
     -1546.0974
 04  9  9 21 11 59.9990000  0  6G19G 3G 8G13G27G23
  -2775748.32047  -2157935.68743  23578424.4804   23578423.0814
      3483.8104
  -2945430.40648  -2283305.90242  22800143.0974   22800142.4484
      1710.6534
  -5064377.65648  -3937398.15643  22322188.6444   22322188.7494
      3406.9144
  -1511799.52049  -1178130.53546  19993831.8704   19993829.5464
       800.3204
  -3137539.81649  -2443426.24246  21085585.6904   21085584.5854
      2154.5014
   2094970.46548   1622725.09045  21563569.1204   21563565.3154
     -1548.8014
 04  9  9 21 12 14.9990000  0  6G19G 3G 8G13G27G23
  -2827989.22347  -2198642.82442  23568483.5814   23568482.1714
      3482.7274
  -2970998.22748  -2303228.86342  22795277.8784   22795276.5814
      1704.5214
  -5115479.64848  -3977217.86744  22312464.2764   22312464.3314
      3406.7994
  -1523732.16849  -1187428.69946  19991560.7534   19991558.3624
       795.5104
  -3169854.12149  -2468606.21546  21079436.8474   21079435.3784
      2154.2874
   2118245.64148   1640861.56345  21567998.5814   21567995.1014
     -1551.6784
 04  9  9 21 12 29.9990000  0  6G19G 3G 8G13G27G23
  -2880215.55547  -2239338.63743  23558544.3474   23558543.6244
      3481.7554
  -2996475.96147  -2323081.61742  22790429.2224   22790428.5304
      1698.5164
  -5166581.57848  -4017037.52344  22302740.3084   22302740.0584
      3406.7954
  -1535594.53549  -1196672.10546  19989303.5344   19989301.1714
       790.8244
  -3202167.25849  -2493785.26646  21073287.5974   21073286.0034
      2154.2094
   2141561.67248   1659029.86745  21572435.5424   21572431.8584
     -1554.4024
 04  9  9 21 12 44.9990000  0  6G19G 3G 8G13G27G23
  -2932423.78946  -2280020.29342  23548609.0734   23548608.4724
      3480.5494
  -3021860.20348  -2342861.51642  22785598.8784   22785598.2104
      1692.2834
  -5217680.39848  -4056854.75044  22293016.2374   22293015.7414
      3406.5884
  -1547383.31649  -1205858.16846  19987060.0584   19987057.6084
       785.9194
  -3234476.04349  -2518960.93446  21067139.4404   21067137.8554
      2153.9194
   2164921.87148   1677232.59445  21576880.6364   21576877.1944
     -1557.3474
 04  9  9 21 12 59.9990000  0  6G19G 3G 8G13G27G23
  -2984614.17647  -2320688.08243  23538678.9254   23538676.6054
      3479.3594
  -3047151.41447  -2362568.94942  22780785.9094   22780785.7064
      1686.0814
  -5268776.75848  -4096670.06644  22283293.4094   22283292.9564
      3406.4244
  -1559099.10249  -1214987.35946  19984830.6204   19984828.0974
       781.0524
  -3266781.19149  -2544133.77346  21060992.0894   21060990.6944
      2153.6774
   2188325.35248   1695469.05145  21581334.3084   21581330.6474
     -1560.2324
 04  9  9 21 13 14.9990000  0  6G19G 3G 8G13G27G23
  -3036786.60247  -2361341.87943  23528749.9644   23528749.2614
      3478.1624
  -3072349.79348  -2382204.01243  22775990.9014   22775991.0194
      1679.8924
  -5319871.12948  -4136483.84844  22273570.2064   22273569.6834
      3406.2914
  -1570742.04749  -1224059.78547  19982615.4954   19982612.8044
       776.1964
  -3299083.12949  -2569304.11346  21054845.2144   21054843.9014
      2153.4634
   2211771.55948   1713738.78944  21585796.0264   21585792.5344
     -1563.0804
 04  9  9 21 13 29.9990000  0  6G19G 3G 8G13G27G23
  -3088939.41846  -2401980.36742  23518826.0344   23518824.2804
      3476.8544
  -3097453.77747  -2401765.54343  22771213.8704   22771213.2144
      1673.5994
  -5370961.94948  -4176294.84444  22263847.8234   22263847.5264
      3406.0554
  -1582310.72349  -1233074.34047  19980413.8084   19980411.0734
       771.2454
  -3331380.34449  -2594470.76246  21048699.2374   21048697.8744
      2153.1484
   2235261.80148   1732042.84845  21590266.0894   21590262.4484
     -1566.0164
 04  9  9 21 13 44.9990000  0  6G19G 3G 8G13G27G23
  -3141073.10546  -2442603.96943  23508905.7144   23508903.5034
      3475.5794
  -3122464.00847  -2421254.02743  22766454.8314   22766454.1164
      1667.3494
  -5422050.09848  -4216103.76244  22254126.2454   22254125.9564
      3405.8774
  -1593806.10249  -1242031.78147  19978226.1834   19978223.7304
       766.3594
  -3363673.94949  -2619634.60546  21042553.9334   21042552.5074
      2152.9074
   2258795.18848   1750380.52045  21594744.0424   21594740.6204
     -1568.8924
 04  9  9 21 13 59.9990000  0  6G19G 3G 8G13G27G23
  -3193188.05147  -2483212.98043  23498987.6054   23498986.7964
      3474.3304
  -3147381.03548  -2440669.87943  22761713.3624   22761712.9294
      1661.1354
  -5473136.23448  -4255911.10944  22244404.9874   22244403.9254
      3405.7424
  -1605228.58649  -1250932.41846  19976052.7304   19976050.3354
       761.4994
  -3395964.55549  -2644796.10946  21036409.3234   21036407.9834
      2152.7074
   2282370.75848   1768751.06345  21599230.9644   21599227.6674
     -1571.7054
 04  9  9 21 14 14.9990000  0  6G19G 3G 8G13G27G23
  -3245282.84847  -2523806.27742  23489074.0894   23489072.9804
      3472.9864
  -3172203.78148  -2460012.25042  22756989.4254   22756989.1554
      1654.8504
  -5524219.30148  -4295716.07444  22234683.8704   22234683.3154
      3405.5384
  -1616577.03149  -1259775.36747  19973893.1514   19973890.6244
       756.5634
  -3428251.03949  -2669954.39846  21030265.4724   21030263.9804
      2152.4324
   2305989.50448   1787155.24245  21603725.3474   21603721.4444
     -1574.5834
 04  9  9 21 14 29.9990000  0  6G19G 3G 8G13G27G23
  -3297359.96147  -2564385.78943  23479164.6444   23479163.2104
      3471.8084
  -3196934.89548  -2479283.23443  22752283.1204   22752283.0974
      1648.7414
  -5575302.10948  -4335520.83244  22224963.0814   22224962.8944
      3405.5214
  -1627854.33249  -1268562.87546  19971747.0264   19971744.7924
       751.8204
  -3460536.52049  -2695111.91046  21024121.3704   21024120.1514
      2152.3654
   2329648.31648   1805590.64545  21608227.3474   21608224.1124
     -1577.2544
 04  9  9 21 14 44.9990000  0  6G19G 3G 8G13G27G23
  -3349417.55147  -2604950.11743  23469258.3704   23469256.6324
      3470.5064
  -3221572.73048  -2498481.52742  22747594.5114   22747594.3624
      1642.5224
  -5626383.10948  -4375324.17644  22215242.5814   22215242.4684
      3405.4004
  -1639058.79749  -1277293.62946  19969615.0584   19969612.5344
       746.9644
  -3492819.29349  -2720267.30546  21017978.4804   21017977.1444
      2152.1854
   2353348.74248   1824058.46945  21612737.2764   21612734.0224
     -1580.0284
 04  9  9 21 14 59.9990000  0  6G19G 3G 8G13G27G23
  -3401454.36347  -2645498.22742  23459356.3944   23459354.3944
      3469.1214
  -3246116.28148  -2517606.37142  22742924.4014   22742923.6904
      1636.2374
  -5677461.43748  -4415125.44544  22205522.8474   22205522.5264
      3405.2224
  -1650189.55149  -1285966.94146  19967496.9094   19967494.2614
       742.0504
  -3525098.63349  -2745420.03146  21011836.0264   21011834.4804
      2151.9564
   2377091.37549   1842559.19944  21617255.4874   21617252.0224
     -1582.8424
 04  9  9 21 15 14.9990000  0  6G19G 3G 8G13G27G23
  -3453468.83247  -2686028.94543  23449458.0894   23449456.3434
      3467.6314
  -3270564.03948  -2536656.54743  22738271.3944   22738271.8084
      1629.8514
  -5728535.94148  -4454923.74244  22195803.7304   22195802.7454
      3404.9674
  -1661245.23049  -1294581.76247  19965393.1674   19965390.5974
       737.0454
  -3557373.25049  -2770569.07846  21005694.0814   21005692.7924
      2151.6414
   2400877.41848   1861093.74645  21621781.5344   21621778.3474
     -1585.7364
 04  9  9 21 15 29.9990000  0  6G19G 3G 8G13G27G23
  -3505462.96147  -2726543.80942  23439563.8944   23439561.7454
      3466.2754
  -3294918.21148  -2555633.81242  22733637.3624   22733637.4134
      1623.6114
  -5779608.68048  -4494720.65644  22186085.2614   22186084.3664
      3404.8494
  -1672227.96149  -1303139.73846  19963303.0194   19963300.3584
       732.1824
  -3589645.46149  -2795716.25046  20999552.8944   20999551.5624
      2151.4814
   2424704.35948   1879660.16844  21626315.5424   21626312.4954
     -1588.4634
 04  9  9 21 15 44.9990000  0  6G19G 3G 8G13G27G23
  -3557434.87947  -2767041.36343  23429673.6284   23429672.5424
      3464.7954
  -3319177.35248  -2574537.02342  22729020.9334   22729020.7804
      1617.2764
  -5830678.36748  -4534515.19544  22176366.6514   22176366.3154
      3404.6464
  -1683136.52749  -1311639.92247  19961227.4254   19961224.8314
       727.2384
  -3621914.01249  -2820860.56646  20993412.5814   20993411.2144
      2151.2374
   2448573.48448   1898259.45345  21630857.5424   21630854.7304
     -1591.2754
 04  9  9 21 15 59.9990000  0  6G19G 3G 8G13G27G23
  -3609385.54746  -2807522.38343  23419788.0584   23419785.5154
      3463.3784
  -3343342.43048  -2593366.93442  22724422.7304   22724422.2534
      1611.0054
  -5881746.19548  -4574308.27744  22166648.5194   22166648.2414
      3404.5224
  -1693972.08249  -1320083.21147  19959165.2374   19959162.7724
       722.3704
  -3654180.10949  -2846002.96946  20987272.3084   20987271.1674
      2151.0734
   2472483.45748   1916890.56644  21635408.2454   21635404.7104
     -1593.9984
 04  9  9 21 16 14.9990000  0  6G19G 3G 8G13G27G23
  -3661312.73046  -2847985.08642  23409906.4014   23409904.9214
      3461.8124
  -3367411.55148  -2612122.07842  22719842.9644   22719842.2924
      1604.6084
  -5932810.33248  -4614098.50044  22156931.2764   22156930.6324
      3404.2764
  -1704732.38749  -1328467.85947  19957117.6364   19957115.2884
       717.3544
  -3686441.89149  -2871142.00846  20981133.1674   20981131.6124
      2150.7854
   2496435.93849   1935554.80144  21639965.9094   21639962.9444
     -1596.8324
 04  9  9 21 16 29.9990000  0  6G19G 3G 8G13G27G23
  -3713216.80147  -2888429.77042  23400029.4334   23400027.4834
      3460.2714
  -3391385.17248  -2630802.80942  22715280.1594   22715280.3044
      1598.2414
  -5983871.63748  -4653886.49644  22147214.8944   22147214.0814
      3404.0874
  -1715418.33249  -1336794.57447  19955084.3154   19955081.5624
       712.3964
  -3718700.17649  -2896278.32446  20974994.6124   20974993.6084
      2150.5524
   2520430.07849   1954251.49244  21644531.8234   21644528.5344
     -1599.6094
 04  9  9 21 16 44.9990000  0  6G19G 3G 8G13G27G23
  -3765095.48447  -2928854.68743  23390157.4644   23390155.2764
      3458.5794
  -3415261.28148  -2649407.54743  22710736.7454   22710736.3554
      1591.7414
  -6034927.79348  -4693670.49244  22137498.5424   22137498.5384
      3403.7444
  -1726027.91449  -1345061.78147  19953065.4174   19953062.7884
       707.3054
  -3750952.92649  -2921410.33246  20968857.2764   20968855.5154
      2150.1834
   2544467.58249   1972981.98844  21649106.3784   21649102.5734
     -1602.5004
 04  9  9 21 16 59.9990000  0  6G19G 3G 8G13G27G23
  -3816948.90647  -2969259.92242  23380289.4014   23380287.4254
      3456.8954
  -3439040.27348  -2667936.61743  22706211.7304   22706211.7844
      1585.2664
  -6085979.62148  -4733451.12144  22127784.0264   22127783.2264
      3403.4554
  -1736561.45349  -1353269.73446  19951060.7694   19951058.2334
       702.2364
  -3783200.75449  -2946538.50446  20962720.7144   20962718.6904
      2149.8554
   2568547.88749   1991745.82045  21653688.4564   21653685.3584
     -1605.3544
 04  9  9 21 17 14.9990000  0  6G19G 3G 8G13G27G23
  -3868779.89847  -3009647.66843  23370426.6124   23370425.5654
      3455.3994
  -3462725.10548  -2686392.33243  22701705.0584   22701704.2534
      1578.9894
  -6137029.83248  -4773230.47744  22118069.5424   22118069.1834
      3403.3474
  -1747022.04349  -1361420.84446  19949070.3864   19949067.5194
       697.3734
  -3815446.95349  -2971665.40246  20956584.1674   20956583.1714
      2149.7474
   2592667.72748   2010540.46544  21658278.3084   21658274.6364
     -1607.9894
 04  9  9 21 17 29.9990000  0  6G19G 3G 8G13G27G23
  -3920586.43047  -3050016.35242  23360567.9334   23360566.2764
      3453.7694
  -3486314.07848  -2704773.33243  22697216.0894   22697215.6714
      1572.5984
  -6188077.28548  -4813007.69944  22108355.6284   22108354.8974
      3403.1644
  -1757408.12949  -1369513.89847  19947094.0034   19947091.2064
       692.4064
  -3847689.74249  -2996789.64546  20950448.5424   20950447.4764
      2149.5194
   2616828.55148   2029367.04744  21662875.9334   21662872.1364
     -1610.7224
 04  9  9 21 17 44.9990000  0  6G19G 3G 8G13G27G23
  -3972367.39147  -3090365.12142  23350714.3474   23350713.1904
      3452.0644
  -3509806.35248  -2723078.99243  22692745.9254   22692745.4874
      1566.1524
  -6239121.16048  -4852782.11744  22098642.3624   22098641.5624
      3402.9254
  -1767718.93049  -1377548.29347  19945131.6834   19945129.1754
       687.3874
  -3879928.55949  -3021910.80146  20944313.7304   20944312.5304
      2149.2544
   2641030.84848   2048225.94145  21667481.7064   21667478.1204
     -1613.4864
 04  9  9 21 17 59.9990000  0  6G19G 3G 8G13G27G23
  -4024119.01647  -3130691.03142  23340866.0344   23340865.1904
      3450.1084
  -3533198.25448  -2741306.43742  22688294.1124   22688293.7454
      1559.4604
  -6290157.74248  -4892550.85544  22088929.9334   22088929.6164
      3402.4394
  -1777950.75849  -1385521.14547  19943184.7534   19943182.1514
       682.1224
  -3912159.84449  -3047026.08246  20938180.5654   20938179.2144
      2148.7524
   2665278.07048   2067119.84844  21672095.6204   21672092.4404
     -1616.4824
 04  9  9 21 18 14.9990000  0  6G19G 3G 8G13G27G23
  -4075844.10947  -3170996.26642  23331023.0734   23331021.2924
      3448.3404
  -3556492.76648  -2759457.99643  22683862.1834   22683860.7494
      1552.9674
  -6341190.22348  -4932316.40644  22079219.0894   22079218.5114
      3402.1654
  -1788106.65649  -1393434.83646  19941252.0734   19941249.5894
       677.0604
  -3944386.78149  -3072137.97346  20932048.0034   20932046.5034
      2148.4634
   2689566.95748   2086046.22344  21676717.6204   21676714.4564
     -1619.2594
 04  9  9 21 18 29.9990000  0  6G19G 3G 8G13G27G23
  -4127545.01247  -3211282.66843  23321185.4484   23321183.2494
      3446.7274
  -3579692.42248  -2777535.65242  22679447.0194   22679446.2924
      1546.6444
  -6392221.07048  -4972080.68444  22069508.3394   22069507.4294
      3402.0574
  -1798189.24649  -1401291.39846  19939333.6284   19939331.0384
       672.1734
  -3976612.12949  -3097248.62146  20925915.4644   20925914.1874
      2148.3574
   2713894.65248   2105002.83644  21681347.5504   21681343.5344
     -1621.8464
 04  9  9 21 18 44.9990000  0  6G19G 3G 8G13G27G23
  -4179215.03546  -3251544.98442  23311352.2534   23311351.0074
      3444.6684
  -3602790.87148  -2795534.41043  22675051.3394   22675050.9764
      1539.8974
  -6443244.25447  -5011838.98444  22059799.0114   22059798.1904
      3401.5464
  -1808192.21549  -1409085.93046  19937429.8624   19937427.4524
       666.8654
  -4008829.47349  -3122353.04746  20919784.4804   20919783.4054
      2147.8234
   2738267.27748   2123994.46144  21685984.8704   21685981.8234
     -1624.8424
 04  9  9 21 18 59.9990000  0  6G19G 3G 8G13G27G23
  -4230856.68047  -3291785.18742  23301524.9334   23301523.7104
      3442.7764
  -3625790.93747  -2813456.52743  22670674.5814   22670674.4014
      1533.3384
  -6494262.50048  -5051593.43444  22050090.4564   22050089.6404
      3401.2164
  -1818118.42649  -1416820.64147  19935541.1674   19935538.5304
       661.7474
  -4041041.90649  -3147453.63746  20913655.0424   20913653.6904
      2147.4964
   2762681.71948   2143018.67644  21690631.4644   21690627.3864
     -1627.6294
 04  9  9 21 19 14.9990000  0  6G19G 3G 8G13G27G23
  -4282471.27747  -3332004.32442  23291703.1834   23291701.8234
      3440.9734
  -3648693.99248  -2831303.07043  22666316.0584   22666315.5624
      1526.8704
  -6545277.48848  -5091345.35244  22040382.6514   22040381.6554
      3400.9994
  -1827969.35249  -1424496.69147  19933666.5894   19933663.9524
       656.7284
  -4073250.92649  -3172551.56646  20907525.8554   20907524.6054
      2147.2684
   2787136.44948   2162074.28144  21695285.0654   21695281.3394
     -1630.3154
 04  9  9 21 19 29.9990000  0  6G19G 3G 8G13G27G23
  -4334061.66846  -3372204.60542  23281885.5654   23281884.6204
      3439.3594
  -3671503.07048  -2849076.34043  22661975.7764   22661975.4684
      1520.6054
  -6596292.25448  -5131097.09044  22030674.8004   22030674.0854
      3400.9844
  -1837748.16049  -1432116.54347  19931805.5734   19931803.0934
       651.9214
  -4105459.92649  -3197649.48046  20901396.5584   20901395.2534
      2147.2674
   2811627.89848   2181158.50044  21699945.6124   21699942.4374
     -1632.7634
 04  9  9 21 19 44.9990000  0  6G19G 3G 8G13G27G23
  -4385625.64146  -3412384.26242  23272072.8704   23272072.4484
      3437.5984
  -3694216.21148  -2866774.89843  22657653.4404   22657653.6284
      1514.2094
  -6647304.98048  -5170847.25044  22020967.5734   22020966.9014
      3400.8484
  -1847452.80149  -1439678.60247  19929958.9874   19929956.4994
       646.9764
  -4137666.80149  -3222745.73846  20895267.8474   20895266.4214
      2147.1254
   2836157.95748   2200272.80144  21704613.3784   21704610.0114
     -1635.3374
 04  9  9 21 19 59.9990000  0  6G19G 3G 8G13G27G23
  -4437164.41045  -3452544.32043  23262266.2764   23262264.2534
      3435.9184
  -3716834.91847  -2884399.85542  22653349.0264   22653349.2694
      1507.9144
  -6698317.31647  -5210597.09844  22011259.9404   22011259.0384
      3400.8224
  -1857084.95349  -1447184.17646  19928125.9954   19928123.5344
       642.1434
  -4169873.40649  -3247841.78546  20889139.4644   20889137.6474
      2147.1074
   2860724.80948   2219415.76244  21709288.6054   21709285.1404
     -1637.7904
 04  9  9 21 20 14.9990000  0  6G19G 3G 8G13G27G23
  -4488674.11346  -3492681.71543  23252464.0264   23252463.2884
      3433.9804
  -3739355.59048  -2901948.42643  22649063.5344   22649063.5504
      1501.3784
  -6749325.77748  -5250343.93044  22001553.1054   22001553.0624
      3400.5644
  -1866641.08649  -1454630.52046  19926307.4564   19926304.9054
       637.0764
  -4202076.14849  -3272934.82446  20883011.3004   20883009.6714
      2146.8494
   2885331.70348   2238589.91844  21713970.8474   21713967.6444
     -1640.4604
 04  9  9 21 20 29.9990000  0  6G19G 3G 8G13G27G23
  -4540153.85546  -3532795.75843  23242667.5034   23242666.2574
      3431.9834
  -3761777.62148  -2919420.12543  22644796.5584   22644796.7224
      1494.8024
  -6800329.92648  -5290087.40244  21991847.6674   21991846.8044
      3400.2774
  -1876120.62549  -1462017.17246  19924503.8084   19924501.1874
       631.9694
  -4234274.58249  -3298024.50846  20876883.9804   20876882.8784
      2146.5624
   2909979.06648   2257795.62144  21718660.8624   21718657.7264
     -1643.1584
 04  9  9 21 20 44.9990000  0  6G19G 3G 8G13G27G23
  -4591599.03547  -3572882.87543  23232877.5194   23232876.7924
      3429.6794
  -3784096.50047  -2936811.43742  22640551.2844   22640549.7454
      1487.9254
  -6851325.36348  -5329824.09044  21982143.1124   21982142.4804
      3399.6964
  -1885519.11349  -1469340.67246  19922715.1594   19922712.3274
       626.5664
  -4266464.39549  -3323107.47746  20870758.3704   20870756.8084
      2145.9884
   2934671.12148   2277036.14844  21723359.6364   21723356.8944
     -1646.1374
 04  9  9 21 20 59.9990000  0  6G19G 3G 8G13G27G23
  -4643015.18747  -3612947.38743  23223093.7614   23223092.5034
      3427.7434
  -3806318.10548  -2954126.96543  22636321.8004   22636321.0694
      1481.4404
  -6902317.78148  -5369558.42244  21972439.6594   21972439.6054
      3399.4954
  -1894842.52049  -1476605.66846  19920940.9254   19920938.5464
       621.5604
  -4298651.66449  -3348188.45346  20864633.4724   20864632.1834
      2145.8184
   2959401.67648   2296306.66444  21728066.0114   21728062.5654
     -1648.7044
 04  9  9 21 21 14.9990000  0  6G19G 3G 8G13G27G23
  -4694399.14546  -3652986.79743  23213315.3554   23213314.4764
      3425.5974
  -3828439.34847  -2971364.28543  22632111.4334   22632111.2884
      1474.7494
  -6953304.38348  -5409288.21944  21962737.3474   21962737.0974
      3399.1074
  -1904087.78549  -1483809.77046  19919181.5894   19919179.1364
       616.3514
  -4330833.35549  -3373265.09046  20858509.3474   20858507.8784
      2145.4464
   2984173.62548   2315609.45344  21732779.5734   21732776.8274
     -1651.4634
 04  9  9 21 21 29.9990000  0  6G19G 3G 8G13G27G23
  -4745749.31646  -3692999.86343  23203543.9254   23203543.2494
      3423.3454
  -3850458.99247  -2988522.44143  22627921.3474   22627921.0424
      1467.9764
  -7004283.93448  -5449012.51244  21953036.2224   21953035.8154
      3398.6374
  -1913253.54749  -1490951.92646  19917437.3314   19917434.7184
       611.0514
  -4363008.35949  -3398336.52046  20852386.9014   20852385.6244
      2145.0004
   3008987.98848   2334945.26644  21737502.1984   21737499.2024
     -1654.2914
 04  9  9 21 21 44.9990000  0  6G19G 3G 8G13G27G23
  -4797069.21547  -3732989.40243  23193778.8084   23193777.1164
      3421.3274
  -3872380.83647  -3005604.36743  22623749.6124   22623749.7334
      1461.4564
  -7055260.17648  -5488734.23444  21943335.9254   21943335.6514
      3398.4164
  -1922343.87949  -1498035.29746  19915707.5504   19915704.6674
       606.0224
  -4395180.44549  -3423405.66446  20846264.6054   20846263.2304
      2144.8064
   3033840.65248   2354310.94944  21742231.3864   21742228.3354
     -1656.8444
 04  9  9 21 21 59.9990000  0  6G19G 3G 8G13G27G23
  -4848355.22747  -3772952.48843  23184019.0114   23184017.5264
      3419.0674
  -3894201.31247  -3022607.32843  22619597.1904   22619597.1904
      1454.6984
  -7106229.83248  -5528450.82844  21933636.8474   21933636.1944
      3397.9774
  -1931355.22349  -1505057.12946  19913992.6284   19913990.0264
       600.7564
  -4427346.35949  -3448470.00046  20840143.5344   20840141.9134
      2144.3944
   3058734.94148   2373709.05944  21746968.7064   21746965.7064
     -1659.6194
 04  9  9 21 22 14.9990000  0  6G19G 3G 8G13G27G23
  -4899610.49647  -3812891.62543  23174265.0894   23174263.3124
      3417.0184
  -3915923.84047  -3039533.96143  22615464.0974   22615463.6754
      1448.1684
  -7157196.50848  -5568165.09444  21923938.3084   21923937.2264
      3397.7784
  -1940291.03549  -1512020.10546  19912292.1754   19912289.5934
       595.7214
  -4459509.69149  -3473532.33246  20834023.0974   20834021.4874
      2144.2224
   3083667.06348   2393136.65644  21751713.3004   21751709.9644
     -1662.1414
 04  9  9 21 22 29.9990000  0  6G19G 3G 8G13G27G23
  -4950831.00047  -3852803.66443  23164518.4334   23164517.2144
      3414.7004
  -3937544.79347  -3056381.43742  22611349.6674   22611349.1674
      1441.3974
  -7208156.54748  -5607874.20344  21914240.2694   21914240.2924
      3397.3364
  -1949147.73849  -1518921.43446  19910606.8624   19910604.5224
       590.4474
  -4491666.84049  -3498589.84046  20827903.7304   20827902.3154
      2143.8104
   3108640.45348   2412596.41044  21756465.5584   21756462.0894
     -1664.8934
 04  9  9 21 22 44.9990000  0  6G19G 3G 8G13G27G23
  -5002020.40247  -3892691.49243  23154777.4014   23154775.6204
      3412.6274
  -3959067.98847  -3073152.73442  22607253.4334   22607253.1054
      1434.8804
  -7259113.86348  -5647581.16044  21904543.5894   21904543.3274
      3397.1544
  -1957929.22749  -1525764.15646  19908935.9564   19908933.1404
       585.4334
  -4523821.85949  -3523645.70346  20821784.7764   20821783.5384
      2143.6684
   3133651.01648   2432085.12944  21761224.3784   21761221.9214
     -1667.3714
 04  9  9 21 22 59.9990000  0  6G19G 3G 8G13G27G23
  -5053178.97747  -3932555.27743  23145042.6904   23145040.6444
      3410.5724
  -3980493.89847  -3089848.24643  22603176.7064   22603175.9804
      1428.3944
  -7310069.15248  -5687286.56644  21894846.9484   21894846.4374
      3397.0194
  -1966635.98049  -1532548.64546  19907279.1054   19907276.6014
       580.4504
  -4555975.27749  -3548700.30946  20815666.1754   20815664.8554
      2143.5614
   3158697.93848   2451602.16844  21765990.7924   21765987.4404
     -1669.7954
 04  9  9 21 23 14.9990000  0  6G19G 3G 8G13G27G23
  -5104301.48047  -3972390.96943  23135313.7064   23135312.5384
      3408.1674
  -4001817.59047  -3106464.09443  22599118.5194   22599118.1594
      1421.5794
  -7361017.47348  -5726986.52344  21885152.2764   21885151.7334
      3396.5554
  -1975263.17649  -1539271.13346  19905637.1754   19905634.8274
       575.1464
  -4588122.23849  -3573749.87546  20809548.7924   20809547.2494
      2143.1314
   3183785.97748   2471151.26644  21770765.1284   21770761.7764
     -1672.5364
 04  9  9 21 23 29.9990000  0  6G19G 3G 8G13G27G23
  -5155389.35947  -4012199.68043  23125592.0114   23125590.9094
      3405.8594
  -4023040.77347  -3123001.62943  22595079.7454   22595079.8004
      1414.8794
  -7411960.46148  -5766682.33644  21875458.1124   21875457.3354
      3396.1994
  -1983812.53149  -1545932.96546  19904010.4174   19904008.0384
       569.9574
  -4620264.64549  -3598795.89846  20803432.4254   20803430.7614
      2142.8274
   3208913.15648   2490730.84844  21775546.3234   21775543.5624
     -1675.1454
 04  9  9 21 23 44.9990000  0  6G19G 3G 8G13G27G23
  -5206443.99247  -4051982.47343  23115876.4804   23115875.3044
      3403.6424
  -4044165.08248  -3139462.10243  22591060.5194   22591059.7024
      1408.2874
  -7462899.93048  -5806375.40644  21865764.4644   21865763.6944
      3395.9654
  -1992285.82049  -1552535.53546  19902397.9174   19902395.6714
       564.8864
  -4652404.34449  -3623839.81646  20797316.1204   20797314.9724
      2142.6474
   3234077.60248   2510339.46544  21780336.1364   21780332.1474
     -1677.6304
 04  9  9 21 23 59.9990000  0  6G19G 3G 8G13G27G23
  -5257464.89547  -4091738.98843  23106167.4484   23106166.1324
      3401.3934
  -4065190.20348  -3155845.29343  22587059.4564   22587058.7064
      1401.6754
  -7513835.86748  -5846065.71944  21856071.7924   21856071.1874
      3395.7294
  -2000682.75849  -1559078.60246  19900800.3704   19900797.9334
       559.7964
  -4684541.02749  -3648881.38346  20791201.0734   20791199.7724
      2142.4464
   3259279.34848   2529977.16444  21785131.0654   21785127.4874
     -1680.1164
 04  9  9 21 24 14.9990000  0  6G19G 3G 8G13G27G23
  -5308450.66047  -4131468.11743  23096465.5734   23096463.3664
      3399.0514
  -4086114.94147  -3172150.27343  22583077.2304   22583076.8624
      1394.9834
  -7564767.12548  -5885752.37944  21846379.8154   21846379.1514
      3395.4174
  -2009002.16849  -1565561.26246  19899217.1444   19899214.5194
       554.6274
  -4716673.63349  -3673919.76646  20785086.2454   20785085.0544
      2142.1744
   3284519.32848   2549644.64844  21789934.0194   21789930.9254
     -1682.6654
 04  9  9 21 24 29.9990000  0  6G19G 3G 8G13G27G23
  -5359399.60247  -4171168.56243  23086770.7694   23086768.6834
      3396.5964
  -4106938.05147  -3188376.05943  22579114.9874   22579114.4404
      1388.2074
  -7615692.17248  -5925434.23044  21836688.7454   21836688.5694
      3395.0034
  -2017242.73849  -1571982.49246  19897648.7454   19897646.4954
       549.3714
  -4748800.91849  -3698954.00846  20778973.0114   20778971.0894
      2141.8194
   3309798.57848   2569342.73844  21794744.5424   21794741.3234
     -1685.2834
 04  9  9 21 24 44.9990000  0  6G19G 3G 8G13G27G23
  -5410315.34447  -4210843.12143  23077081.1674   23077079.5464
      3394.3834
  -4127663.28947  -3204525.56642  22575170.8944   22575170.5074
      1381.6834
  -7666614.97348  -5965114.30544  21826998.5584   21826998.1754
      3394.8534
  -2025408.39149  -1578345.33646  19896095.4334   19896092.7574
       544.3774
  -4780926.83249  -3723987.18446  20772859.1594   20772858.0584
      2141.7284
   3335113.09448   2589068.29744  21799561.8784   21799558.5934
     -1687.6344
 04  9  9 21 24 59.9990000  0  6G19G 3G 8G13G27G23
  -5461193.93447  -4250488.74643  23067399.6364   23067397.3974
      3391.9064
  -4148286.79747  -3220595.82043  22571246.7614   22571246.1474
      1374.9014
  -7717531.83248  -6004789.75844  21817309.5424   21817309.1444
      3394.4574
  -2033495.30549  -1584646.82846  19894556.1594   19894553.6754
       539.1284
  -4813047.75049  -3749016.46546  20766747.2144   20766745.6014
      2141.3954
   3360466.46148   2608824.14144  21804386.4954   21804383.0694
     -1690.2244
 04  9  9 21 25 14.9990000  0  6G19G 3G 8G13G27G23
  -5512032.59847  -4290103.25843  23057725.1054   23057723.3514
      3389.2444
  -4168806.20747  -3236584.94143  22567341.3944   22567341.8664
      1367.9614
  -7768440.38348  -6044458.72744  21807622.3314   21807621.1324
      3393.9034
  -2041501.06249  -1590885.07846  19893032.6364   19893030.3234
       533.7174
  -4845161.22749  -3774039.94146  20760636.0264   20760634.6594
      2140.8984
   3385860.80548   2628611.89544  21809219.1984   21809216.1634
     -1692.9564
 04  9  9 21 25 29.9990000  0  6G19G 3G 8G13G27G23
  -5562834.05147  -4329688.77043  23048057.8004   23048056.6014
      3386.7644
  -4189224.44147  -3252495.23442  22563456.1834   22563456.1554
      1361.2164
  -7819343.62148  -6084123.57844  21797935.3234   21797934.5894
      3393.5494
  -2049428.94549  -1597062.66446  19891523.7374   19891521.4914
       528.5264
  -4877270.44149  -3799060.10246  20754525.8864   20754524.2724
      2140.6144
   3411292.93448   2648429.10544  21814058.8314   21814055.0114
     -1695.4754
 04  9  9 21 25 44.9990000  0  6G19G 3G 8G13G27G23
  -5613598.36747  -4369245.34442  23038398.2144   23038395.4954
      3384.2884
  -4209541.99647  -3268327.07443  22559589.8864   22559590.1554
      1354.5044
  -7870242.11748  -6123784.71144  21788249.8394   21788248.7304
      3393.2334
  -2057279.18049  -1603179.73046  19890030.2454   19890027.6594
       523.3494
  -4909375.85249  -3824077.30146  20748416.3624   20748415.0814
      2140.3614
   3436762.10948   2668275.19144  21818905.4644   21818902.1634
     -1697.9454
 04  9  9 21 25 59.9990000  0  6G19G 3G 8G13G27G23
  -5664324.80147  -4408772.38743  23028744.7224   23028742.6904
      3381.7624
  -4229758.20347  -3284079.94943  22555743.1364   22555742.4134
      1347.7474
  -7921135.37148  -6163441.77344  21778565.2764   21778564.5774
      3392.8844
  -2065051.21149  -1609235.87146  19888551.3784   19888548.7924
       518.1354
  -4941476.93749  -3849091.12946  20742307.5584   20742306.3084
      2140.0724
   3462268.68048   2688150.39844  21823759.1204   21823756.1324
     -1700.4384
 04  9  9 21 26 14.9990000  0  6G19G 3G 8G13G27G23
  -5715009.54347  -4448266.95343  23019099.8084   23019097.8624
      3378.9834
  -4249869.57047  -3299751.12143  22551915.5424   22551915.6474
      1340.7584
  -7972019.88748  -6203092.02344  21768881.9174   21768881.4014
      3392.3014
  -2072741.57449  -1615228.35946  19887087.9724   19887085.2724
       512.6914
  -4973570.38749  -3874099.00446  20736200.6444   20736199.0584
      2139.5634
   3487815.99648   2708057.36344  21828620.1124   21828617.3044
     -1703.1544
 04  9  9 21 26 29.9990000  0  6G19G 3G 8G13G27G23
  -5765654.29747  -4487730.36343  23009462.5034   23009460.4484
      3376.3174
  -4269877.97347  -3315342.07043  22548108.0264   22548107.6284
      1333.8934
  -8022897.61348  -6242736.98444  21759200.6444   21759199.7844
      3391.8484
  -2080352.31649  -1621158.80546  19885639.7764   19885636.7494
       507.3834
  -5005658.19549  -3899102.48046  20730094.4644   20730093.1944
      2139.1874
   3513401.88748   2727994.39144  21833489.4174   21833486.4174
     -1705.7264
 04  9  9 21 26 44.9990000  0  6G19G 3G 8G13G27G23
  -5816257.77347  -4527161.60242  22999833.3084   22999830.5424
      3373.5654
  -4289782.39847  -3330851.98443  22544320.5194   22544320.0814
      1326.9624
  -8073767.54348  -6282375.87144  21749520.1204   21749519.4564
      3391.3294
  -2087882.37549  -1627026.38346  19884206.8084   19884204.0074
       502.0044
  -5037739.47749  -3924100.87946  20723989.3704   20723987.5854
      2138.7524
   3539027.07448   2747962.03544  21838365.9804   21838362.6284
     -1708.3464
 04  9  9 21 26 59.9990000  0  6G19G 3G 8G13G27G23
  -5866818.71147  -4566559.69143  22990211.1984   22990209.4684
      3370.7294
  -4309581.94147  -3346280.18743  22540552.8234   22540552.2574
      1319.9704
  -8124628.75048  -6322007.94944  21739841.8154   21739840.8584
      3390.7474
  -2095330.88749  -1632830.43046  19882789.4724   19882786.4094
       496.5674
  -5069813.16449  -3949093.35946  20717885.9484   20717884.6554
      2138.2464
   3564692.28548   2767960.86744  21843249.8394   21843246.2574
     -1711.0144
 04  9  9 21 27 14.9990000  0  6G19G 3G 8G13G27G23
  -5917332.55947  -4605921.07843  22980598.4644   22980596.5154
      3367.5904
  -4329272.22748  -3361623.24643  22536805.9404   22536805.4874
      1312.6864
  -8175477.15248  -6361630.06244  21730165.3704   21730164.4914
      3389.8934
  -2102693.51649  -1638567.54746  19881388.2614   19881385.5504
       490.8424
  -5101875.18049  -3974076.73446  20711784.9484   20711783.3904
      2137.4684
   3590401.59048   2787994.05144  21848142.2064   21848138.9404
     -1713.9544
 04  9  9 21 27 29.9990000  0  6G19G 3G 8G13G27G23
  -5967800.22747  -4645246.50843  22970994.6284   22970993.0154
      3364.5114
  -4348854.43047  -3376882.09043  22533079.7614   22533079.0114
      1305.4804
  -8226313.80148  -6401243.00844  21720491.6674   21720490.4524
      3389.1104
  -2109971.41049  -1644238.63346  19880003.0814   19880000.7574
       485.1934
  -5133926.82849  -3999052.04346  20705685.8704   20705684.2144
      2136.7774
   3616153.57448   2808060.50444  21853042.4484   21853039.5894
     -1716.7994
 04  9  9 21 27 44.9990000  0  6G19G 3G 8G13G27G23
  -6018223.81247  -4684537.55943  22961399.8394   22961398.5464
      3361.5724
  -4368330.95748  -3392058.59843  22529373.3394   22529372.5464
      1298.4354
  -8277141.07448  -6440848.65644  21710819.4014   21710818.2804
      3388.4854
  -2117166.98849  -1649845.57446  19878633.9484   19878631.3824
       479.7054
  -5165970.48449  -4024021.11746  20699587.6834   20699586.1594
      2136.2444
   3641945.65248   2828158.18444  21857950.4404   21857947.5934
     -1719.4724
 04  9  9 21 27 59.9990000  0  6G19G 3G 8G13G27G23
  -6068602.65247  -4723793.75443  22951812.9484   22951811.0034
      3358.5894
  -4387701.52347  -3407152.52743  22525687.0504   22525686.5854
      1291.3714
  -8327958.91448  -6480446.94544  21701149.1204   21701147.9214
      3387.8564
  -2124280.03949  -1655388.21146  19877280.4174   19877277.7024
       474.2034
  -5198005.93749  -4048983.79746  20693491.8314   20693490.3944
      2135.6974
   3667777.97348   2848287.22744  21862866.9254   21862862.8434
     -1722.1554
 04  9  9 21 28 14.9990000  0  6G19G 3G 8G13G27G23
  -6118931.50847  -4763011.00043  22942235.5424   22942233.4444
      3355.2574
  -4406961.07047  -3422159.95343  22522022.4564   22522021.5654
      1283.9704
  -8378762.41448  -6520034.06644  21691481.1514   21691480.9564
      3386.9004
  -2131305.56649  -1660862.66046  19875943.5734   19875941.1404
       468.3684
  -5230028.23849  -4073936.23846  20687397.9644   20687396.6164
      2134.8204
   3693655.28548   2868451.33644  21867790.5424   21867787.9724
     -1725.1544
 04  9  9 21 28 29.9990000  0  6G19G 3G 8G13G27G23
  -6169214.06247  -4802192.14843  22932666.8314   22932665.3584
      3352.1704
  -4426113.51647  -3437083.93043  22518377.6904   22518377.4054
      1276.8304
  -8429555.22748  -6559612.85944  21681815.2844   21681814.8394
      3386.1884
  -2138247.60249  -1666272.03947  19874622.4644   19874619.6874
       462.8024
  -5262041.37949  -4098881.53546  20681306.3084   20681304.6164
      2134.2094
   3719573.36748   2888647.19144  21872722.8704   21872719.6754
     -1727.8724
 04  9  9 21 28 44.9990000  0  6G19G 3G 8G13G27G23
  -6219447.10946  -4841334.74243  22923108.1054   22923106.0074
      3348.8704
  -4445155.96148  -3451922.18443  22514753.9334   22514753.4254
      1269.4964
  -8480334.68448  -6599181.24644  21672152.8474   21672151.9684
      3385.2974
  -2145103.31649  -1671614.16046  19873317.8474   19873315.4764
       457.0484
  -5294042.57449  -4123817.52346  20675216.6514   20675215.0424
      2133.4134
   3745534.91048   2908876.94544  21877663.2224   21877659.6514
     -1730.7704
 04  9  9 21 28 59.9990000  0  6G19G 3G 8G13G27G23
  -6269629.51646  -4880437.87143  22913558.5974   22913556.3314
      3345.4944
  -4464087.40647  -3466673.94943  22511151.8394   22511151.0304
      1262.0964
  -8531099.87147  -6638738.50444  21662492.4564   21662491.6014
      3384.3464
  -2151871.62549  -1676888.17246  19872029.9644   19872027.2654
       451.2214
  -5326030.98449  -4148743.55546  20669129.4724   20669127.9764
      2132.5614
   3771540.74648   2929141.18044  21882611.9564   21882608.8744
     -1733.7224
 04  9  9 21 29 14.9990000  0  6G19G 3G 8G13G27G23
  -6319762.18047  -4919502.24643  22904019.0114   22904016.9524
      3342.1784
  -4482909.00448  -3481340.12943  22507569.8234   22507569.6204
      1254.7734
  -8581852.07848  -6678285.66044  21652834.4954   21652833.6324
      3383.4804
  -2158553.91449  -1682095.15246  19870758.1834   19870755.7454
       445.4864
  -5358007.79349  -4173660.53946  20663044.3864   20663042.8124
      2131.7874
   3797589.34448   2949438.76244  21887569.2144   21887565.5814
     -1736.5734
 04  9  9 21 29 29.9990000  0  6G19G 3G 8G13G27G23
  -6369843.30147  -4958526.44943  22894488.3154   22894486.8004
      3338.7414
  -4501619.41047  -3495919.64543  22504009.3554   22504008.6014
      1247.3604
  -8632589.68448  -6717821.44144  21643179.3704   21643178.5384
      3382.5074
  -2165148.57449  -1687233.85246  19869503.5654   19869500.7144
       439.6444
  -5389971.76649  -4198567.52746  20656961.9334   20656960.4994
      2130.9324
   3823682.03148   2969770.69144  21892533.8314   21892530.5034
     -1739.5124
 04  9  9 21 29 44.9990000  0  6G19G 3G 8G13G27G23
  -6419873.12147  -4997510.67643  22884968.0654   22884965.5384
      3335.3214
  -4520219.10547  -3510412.89843  22500469.6674   22500469.2614
      1239.9804
  -8683313.40248  -6757346.39544  21633527.1284   21633525.8944
      3381.5814
  -2171656.26249  -1692304.77746  19868264.8474   19868262.5544
       433.8464
  -5421923.36749  -4223464.87146  20650881.4874   20650880.0424
      2130.1074
   3849817.85948   2990136.23044  21897507.3864   21897504.4954
     -1742.3894
 04  9  9 21 29 59.9980000  0  6G19G 3G 8G13G27G23
  -6469849.11746  -5036452.97743  22875457.8184   22875455.9754
      3331.7334
  -4538707.80947  -3524819.68443  22496952.1474   22496951.1974
      1232.5804
  -8734020.89547  -6796858.71144  21623877.9984   21623876.8144
      3380.4994
  -2178077.54749  -1697308.39146  19867043.1074   19867040.3574
       428.0864
  -5453861.62949  -4248351.81646  20644803.9124   20644802.2644
      2129.2174
   3875993.84448   3010533.05944  21902488.7874   21902485.3464
     -1745.0664
 04  9  9 21 30 14.9980000  0  6G19G 3G 8G13G27G23
  -6519777.27347  -5075357.98043  22865957.1934   22865954.8894
      3328.5444
  -4557087.71947  -3539141.69543  22493453.9754   22493453.7644
      1225.3274
  -8784718.69148  -6836363.46944  21614230.1074   21614229.2174
      3379.8534
  -2184413.05949  -1702245.16447  19865837.2644   19865834.8854
       422.3674
  -5485790.44549  -4273231.40646  20638728.3654   20638726.5644
      2128.5884
   3902213.66048   3030964.04744  21907478.1004   21907474.8854
     -1747.9884
 04  9  9 21 30 29.9980000  0  7G19G 3G 8G13G10G27G23
  -6569654.68447  -5114223.45743  22856465.8184   22856463.4164
      3325.1614
  -4575358.35247  -3553378.53542  22489976.9364   22489977.0964
      1218.0424
  -8835404.25448  -6875858.69144  21604585.1314   21604584.1704
      3379.0384
  -2190663.12149  -1707115.33646  19864648.2484   19864645.5334
       416.6714
   -149780.23057   -107180.20352  23671469.7564   23671470.0644

  -5517708.61749  -4298102.71546  20632654.2794   20632652.6114
      2127.8784
   3928474.57848   3051427.06644  21912474.9824   21912472.7644
     -1750.7284
 04  9  9 21 30 44.9980000  0  7G19G 3G 8G13G10G27G23
  -6619484.77048  -5153052.04743  22846983.4594   22846981.5104
      3322.0064
  -4593523.23448  -3567532.98043  22486521.0144   22486519.7564
      1210.9924
  -8886081.05148  -6915347.09044  21594941.4434   21594940.5574
      3378.4534
  -2196831.35949  -1711921.77046  19863474.5614   19863471.8114
       411.2164
   -201328.01646   -147347.26242  23661659.9754   23661660.3614
      3436.5194
  -5549619.78949  -4322968.55146  20626581.9904   20626580.3854
      2127.4114
   3954772.73048   3071919.09444  21917479.5064   21917476.6544
     -1753.2104
 04  9  9 21 30 59.9980000  0  7G19G 3G 8G13G10G27G23
  -6669269.36347  -5191845.18443  22837509.5614   22837507.6354
      3318.9734
  -4611584.45747  -3581606.65643  22483084.0144   22483083.1274
      1204.0824
  -8936751.14548  -6954830.26244  21585299.2724   21585298.6074
      3378.0064
  -2202919.78949  -1716666.00047  19862315.9904   19862313.3544
       405.8954
   -252801.71547   -187456.63742  23651865.2484   23651865.1234
      3431.5804
  -5581526.01249  -4347830.53546  20620510.2484   20620508.8974
      2127.0824
   3981105.95348   3092438.45344  21922490.6704   21922487.6114
     -1755.5484
 04  9  9 21 31 14.9980000  0  7G19G 3G 8G13G10G27G23
  -6719010.41848  -5230604.40643  22828044.3894   22828041.7174
      3316.0704
  -4629544.27747  -3595601.32043  22479665.8184   22479665.6624
      1197.3214
  -8987416.96548  -6994310.10944  21575657.8424   21575657.4324
      3377.7214
  -2208930.73049  -1721349.85546  19861171.9984   19861169.3504
       400.7294
   -304203.55146   -227509.97342  23642083.7724   23642084.2724
      3426.7894
  -5613429.60949  -4372690.47746  20614439.2644   20614437.7014
      2126.9074
   4007471.75848   3112983.19944  21927507.4364   21927505.1704
     -1757.7204
 04  9  9 21 31 29.9980000  0  7G19G 3G 8G13G10G27G23
  -6768701.96948  -5269325.05543  22818587.9434   22818586.2324
      3312.7704
  -4647396.98447  -3609512.50443  22476268.8974   22476268.2834
      1190.1804
  -9038072.89548  -7033782.24244  21566018.5064   21566017.5804
      3377.0624
  -2214858.58649  -1725968.96546  19860044.1154   19860041.4364
       395.1904
   -355527.55946   -267502.65642  23632317.1934   23632317.3614
      3421.6014
  -5645325.05949  -4397544.07446  20608369.6004   20608367.8654
      2126.3634
   4033875.50848   3133557.49644  21932532.7644   21932529.6004
     -1760.2504
 04  9  9 21 31 44.9980000  0  7G19G 3G 8G13G10G27G23
  -6818346.37147  -5308008.97743  22809140.7324   22809138.3504
      3309.6274
  -4665145.28147  -3623342.34443  22472891.3504   22472890.9944
      1183.2204
  -9088721.49648  -7073248.67244  21556380.6624   21556379.3074
      3376.5734
  -2220706.10549  -1730525.48447  19858931.4824   19858928.8224
       389.8354
   -406776.17246   -307436.62142  23622563.9904   23622565.0294
      3416.5744
  -5677215.02349  -4422393.38346  20602301.1234   20602299.8854
      2125.9984
   4060314.34448   3154159.15244  21937563.8114   21937560.9594
     -1762.5894
 04  9  9 21 31 59.9980000  0  7G19G 3G 8G13G10G27G23
  -6867943.57047  -5346656.11343  22799702.9124   22799700.9634
      3306.4804
  -4682789.34047  -3637090.96543  22469533.6704   22469533.0644
      1176.2714
  -9139362.99248  -7112709.56644  21546743.5454   21546742.7444
      3376.1004
  -2226473.40649  -1735019.49247  19857833.9204   19857830.7604
       384.4874
   -457949.39846   -347311.84842  23612826.8734   23612826.7524
      3411.5484
  -5709099.76649  -4447238.63346  20596233.8034   20596231.8974
      2125.6494
   4086787.71948   3174787.72744  21942601.6864   21942598.4864
     -1764.8924
 04  9  9 21 32 14.9980000  0  7G19G 3G 8G13G10G27G23
  -6917490.88347  -5385264.35543  22790274.1394   22790272.5224
      3303.1544
  -4700326.84847  -3650756.54343  22466196.2014   22466195.6894
      1169.1674
  -9189995.07048  -7152163.10244  21537108.5064   21537107.3894
      3375.4724
  -2232158.13349  -1739449.15246  19856752.1704   19856749.4204
       378.9824
   -509044.72346   -387126.35942  23603104.1004   23603103.5534
      3406.3554
  -5740977.03149  -4472078.05946  20590167.8344   20590165.8304
      2125.1514
   4113297.93848   3195445.00444  21947646.0374   21947642.8184
     -1767.3484
 04  9  9 21 32 29.9980000  0  7G19G 3G 8G13G10G27G23
  -6966987.69148  -5423833.25043  22780855.8734   22780853.3224
      3299.7874
  -4717757.48447  -3664338.85243  22462879.6074   22462878.6974
      1162.0424
  -9240617.23448  -7191608.94544  21527475.8114   21527474.7094
      3374.8114
  -2237760.02349  -1743814.26246  19855685.9904   19855683.4634
       373.4594
   -560061.49646   -426879.64542  23593395.2724   23593395.8544
      3401.1184
  -5772846.53549  -4496911.43446  20584103.1394   20584101.5294
      2124.6344
   4139845.18048   3216131.12544  21952698.2484   21952695.0804
     -1769.8164
 04  9  9 21 32 44.9980000  0  7G19G 3G 8G13G10G27G23
  -7016434.82447  -5462363.45343  22771445.9124   22771443.7294
      3296.4764
  -4735082.42647  -3677838.80943  22459582.5684   22459582.2294
      1154.9964
  -9291230.82448  -7231048.07044  21517844.3734   21517843.3614
      3374.2394
  -2243280.32449  -1748115.80146  19854635.7484   19854632.8974
       368.0204
   -611000.82846   -466572.60242  23583702.1074   23583702.1664
      3395.9554
  -5804709.38749  -4521739.62146  20578040.0374   20578038.3034
      2124.1904
   4166427.93448   3236844.93044  21957757.1004   21957753.9204
     -1772.1844
 04  9  9 21 32 59.9980000  0  7G19G 3G 8G13G10G27G23
  -7065832.32847  -5500854.96543  22762046.0144   22762044.0574
      3293.1674
  -4752301.88747  -3691256.55943  22456306.0224   22456305.3614
      1147.9644
  -9341836.19548  -7270480.81644  21508213.8344   21508213.5804
      3373.6914
  -2248719.30149  -1752353.97346  19853600.5224   19853597.9044
       362.5984
   -661862.71146   -506205.19942  23574023.1474   23574023.2834
      3390.7924
  -5836565.92249  -4546562.89546  20571977.5924   20571976.1624
      2123.7694
   4193045.76248   3257586.06344  21962821.9594   21962818.8654
     -1774.5224
 04  9  9 21 33 14.9980000  0  7G19G 3G 8G13G10G27G23
  -7115179.32847  -5539307.15643  22752655.5534   22752652.7794
      3289.8004
  -4769415.29747  -3704591.68443  22453048.8814   22453049.2014
      1140.8944
  -9392432.86748  -7309906.78144  21498586.1864   21498585.1354
      3373.1114
  -2254076.40249  -1756528.34446  19852581.1154   19852578.4474
       357.1404
   -712646.37146   -545776.85942  23564359.8574   23564359.5144
      3385.5774
  -5868415.84049  -4571381.00046  20565917.0294   20565915.5254
      2123.3284
   4219698.92248   3278354.72344  21967894.1474   21967890.8464
     -1776.8774
 04  9  9 21 33 29.9980000  0  7G19G 3G 8G13G10G27G23
  -7164474.89547  -5577719.24243  22743275.0844   22743272.5574
      3286.3714
  -4786422.05947  -3717843.71143  22449813.0684   22449812.4394
      1133.7844
  -9443020.17648  -7349325.44144  21488959.9044   21488959.0064
      3372.4874
  -2259350.99649  -1760638.42246  19851577.1314   19851574.7564
       351.6404
   -763350.93746   -585286.88342  23554710.0614   23554710.8654
      3380.3044
  -5900258.34849  -4596193.34046  20559857.8184   20559856.1154
      2122.8344
   4246387.94148   3299151.32444  21972972.8574   21972969.7994
     -1779.2684
 04  9  9 21 33 44.9980000  0  7G19G 3G 8G13G10G27G23
  -7213722.32047  -5616093.80943  22733902.8894   22733900.7134
      3283.1624
  -4803325.60247  -3731015.29343  22446596.4514   22446595.9984
      1126.9034
  -9493601.57048  -7388739.50444  21479334.2324   21479333.6394
      3372.0934
  -2264546.64549  -1764686.98846  19850588.8814   19850586.1074
       346.3774
   -813979.81246   -624737.89142  23545075.7094   23545075.8734
      3375.2584
  -5932097.11749  -4621002.77046  20553798.8814   20553796.8304
      2122.5854
   4273109.00048   3319972.89544  21978057.7874   21978054.7484
     -1781.4044
 04  9  9 21 33 59.9980000  0  7G19G 3G 8G13G10G27G23
  -7262917.91047  -5654428.00043  22724540.7954   22724539.9394
      3279.7064
  -4820122.63747  -3744103.88343  22443399.8974   22443399.3694
      1119.8024
  -9544173.73848  -7428146.38344  21469710.9284   21469710.0724
      3371.4784
  -2269660.04348  -1768671.46946  19849615.9044   19849612.9364
       340.8934
   -864529.37146   -664127.16442  23535457.3894   23535456.9514
      3369.9714
  -5963928.82849  -4645806.69146  20547741.4984   20547740.0614
      2122.1144
   4299865.30548   3340821.93844  21983149.1704   21983145.9004
     -1783.7544
 04  9  9 21 34 14.9980000  0  7G19G 3G 8G13G10G27G23
  -7312059.14847  -5692719.81643  22715190.3734   22715188.2444
      3276.0834
  -4836810.88348  -3757107.72343  22440224.3574   22440223.7134
      1112.5504
  -9594734.29748  -7467544.20344  21460089.2094   21460088.2564
      3370.7044
  -2274688.96949  -1772590.11746  19848658.4754   19848655.9714
       335.2624
   -914997.26646   -703452.75842  23525853.5534   23525853.4394
      3364.5264
  -5995751.16449  -4670603.31246  20541686.0144   20541683.9434
      2121.4894
   4326658.81348   3361699.94544  21988247.1784   21988245.0294
     -1786.2344
 04  9  9 21 34 29.9980000  0  7G19G 3G 8G13G10G27G23
  -7361150.47347  -5730972.77343  22705847.9594   22705846.0494
      3272.7554
  -4853395.12146  -3770030.50843  22437068.5064   22437067.7754
      1105.6164
  -9645288.19948  -7506936.83244  21450469.0534   21450468.3974
      3370.2604
  -2279638.03149  -1776446.53547  19847717.1544   19847714.5494
       329.9384
   -965387.93446   -742718.20342  23516263.7874   23516264.5764
      3359.3784
  -6027569.00849  -4695396.43046  20535631.4904   20535629.5684
      2121.1904
   4353484.52748   3382603.06644  21993352.9904   21993349.4794
     -1788.3814
 04  9  9 21 34 44.9980000  0  7G19G 3G 8G13G10G27G23
  -7410190.68047  -5769185.88343  22696516.1784   22696514.1394
      3269.3474
  -4869874.42247  -3782871.51243  22433931.6704   22433932.2954
      1098.6204
  -9695834.53148  -7546323.57844  21440850.3894   21440849.5334
      3369.7554
  -2284506.53149  -1780240.18446  19846790.6624   19846787.9364
       324.5674
  -1015700.29346   -781922.59842  23506689.2094   23506690.5804
      3354.1574
  -6059381.45749  -4720185.35546  20529577.7484   20529576.0294
      2120.8304
   4380343.13748   3403531.82044  21998463.5294   21998460.5884
     -1790.5744
 04  9  9 21 34 59.9980000  0  7G19G 3G 8G13G10G27G23
  -7459180.85547  -5807360.00843  22687194.1474   22687191.9044
      3266.0124
  -4886250.05147  -3795631.74243  22430816.2724   22430815.8894
      1091.7094
  -9746374.67248  -7585705.48444  21431232.9594   21431232.0534
      3369.3434
  -2289295.79749  -1783972.08646  19845879.1704   19845876.4394
       319.2844
  -1065935.33246   -821066.78142  23497130.3184   23497131.5184
      3349.0034
  -6091189.93449  -4744971.18046  20523524.3814   20523522.6314
      2120.5654
   4407233.27748   3424485.13744  22003580.8344   22003577.8464
     -1792.6764
 04  9  9 21 35 14.9980000  0  7G19G 3G 8G13G10G27G23
  -7508119.59447  -5845494.05143  22677880.9674   22677879.3774
      3262.5834
  -4902521.05947  -3808310.46943  22427720.2324   22427719.9324
      1084.7344
  -9796907.37148  -7625081.59044  21421616.9984   21421615.5884
      3368.8474
  -2294004.71149  -1787641.38346  19844983.0924   19844980.2524
       313.9284
  -1116091.92646   -860149.74642  23487585.7324   23487586.5614
      3343.7734
  -6122993.32449  -4769753.03146  20517472.3264   20517470.9474
      2120.2264
   4434155.75048   3445463.64144  22008704.2404   22008701.2684
     -1794.8324
 04  9  9 21 35 29.9980000  0  7G19G 3G 8G13G10G27G23
  -7557004.00447  -5883585.76243  22668578.0454   22668576.2564
      3258.9614
  -4918684.77047  -3820905.56243  22424644.4124   22424643.5684
      1077.5814
  -9847430.18448  -7664450.00444  21412002.7874   21412002.0334
      3368.1884
  -2298630.69549  -1791246.05146  19844102.9044   19844100.5064
       308.3994
  -1166167.12546   -899169.39142  23478056.9754   23478057.1504
      3338.3474
  -6154789.08649  -4794528.94946  20511421.9204   20511420.5534
      2119.7174
   4461112.93448   3466469.20344  22013833.5534   22013830.5254
     -1797.1464
 04  9  9 21 35 44.9980000  0  7G19G 3G 8G13G10G27G23
  -7605837.41047  -5921637.73444  22659286.4284   22659284.3384
      3255.5604
  -4934744.78547  -3833419.85543  22421588.0064   22421587.8344
      1070.6684
  -9897946.75048  -7703813.54345  21402389.7794   21402389.0454
      3367.7714
  -2303177.43449  -1794788.96946  19843237.4364   19843235.2094
       303.1164
  -1216164.42246   -938128.31642  23468543.2324   23468543.4674
      3333.1534
  -6186581.02349  -4819301.87546  20505372.2404   20505370.3734
      2119.4634
   4488100.89548   3487498.74244  22018969.6474   22018966.5534
     -1799.1974
 04  9  9 21 35 59.9980000  0  7G19G 3G 8G13G10G27G23
  -7654618.03947  -5959648.55943  22650003.7254   22650001.6784
      3252.0424
  -4950699.68047  -3845852.24643  22418552.1784   22418552.0924
      1063.6604
  -9948455.47748  -7743170.97344  21392778.3264   21392777.1864
      3367.2484
  -2307643.37149  -1798268.92646  19842387.6234   19842385.2794
       297.7294
  -1266082.23046   -977025.27742  23459043.2484   23459044.3074
      3327.8544
  -6218367.54349  -4844070.59446  20499323.5614   20499321.6434
      2119.1014
   4515120.95747   3508553.30544  22024110.9674   22024108.2294
     -1801.3374
 04  9  9 21 36 14.9980000  0  7G19G 3G 8G13G10G27G23
  -7703345.83647  -5997618.24643  22640730.5684   22640728.0104
      3248.5204
  -4966549.77347  -3858202.96142  22415536.0684   22415535.3344
      1056.6734
  -9998956.56248  -7782522.44544  21383168.0844   21383167.4164
      3366.7394
  -2312028.86749  -1801686.19546  19841553.2954   19841550.7364
       292.3664
  -1315920.41446  -1015860.16842  23449559.4364   23449560.4754
      3322.5464
  -6250148.83649  -4868835.23046  20493275.5224   20493273.8384
      2118.7534
   4542172.77748   3529632.60544  22029259.1234   22029256.4794
     -1803.4554
 04  9  9 21 36 29.9980000  0  7G19G 3G 8G13G10G27G23
  -7752019.57047  -6035545.79743  22631467.9904   22631466.1194
      3244.9164
  -4982294.15247  -3870471.28942  22412540.0294   22412539.1744
      1049.6254
 -10049449.19148  -7821867.32444  21373559.9284   21373559.0024
      3366.1754
  -2316333.04349  -1805040.09446  19840734.1394   19840731.6864
       286.9454
  -1365677.94146  -1054632.24242  23440091.5684   23440091.6434
      3317.1684
  -6281924.13349  -4893595.19946  20487228.6864   20487227.1704
      2118.3534
   4569256.89147   3550737.06644  22034412.9674   22034409.9044
     -1805.6084
 04  9  9 21 36 44.9980000  0  7G19G 3G 8G13G10G27G23
  -7800644.18447  -6073435.06643  22622215.4674   22622213.5254
      3241.6414
  -4997937.85247  -3882661.19543  22409563.0374   22409562.6154
      1042.9134
 -10099938.56248  -7861209.67645  21363951.9364   21363950.8974
      3365.9584
  -2320560.99649  -1808334.60946  19839929.3264   19839927.3424
       281.8644
  -1415359.78945  -1093345.34842  23430637.0924   23430637.2794
      3312.1234
  -6313698.63749  -4918354.55146  20481182.3574   20481180.5494
      2118.3004
   4596368.00847   3571862.56644  22039571.5534   22039568.7874
     -1807.4084
 04  9  9 21 36 59.9980000  0  7G19G 3G 8G13G10G27G23
  -7849217.07047  -6111284.03543  22612972.1394   22612970.2294
      3238.1924
  -5013478.65247  -3894770.91043  22406605.6074   22406604.8144
      1036.0534
 -10150422.34848  -7900547.67244  21354344.9124   21354344.0684
      3365.5864
  -2324710.53149  -1811568.02047  19839139.7954   19839137.4904
       276.6364
  -1464963.40645  -1131997.46142  23421197.6934   23421197.8144
      3306.9084
  -6345470.08649  -4943111.52046  20475136.4124   20475134.8074
      2118.0974
   4623508.18847   3593010.71944  22044736.1394   22044733.8344
     -1809.3454
 04  9  9 21 37 14.9980000  0  7G19G 3G 8G13G10G27G23
  -7897736.21147  -6149091.12143  22603739.6154   22603736.7444
      3234.6094
  -5028914.89547  -3906799.13342  22403667.9754   22403667.4084
      1029.0834
 -10200898.80148  -7939879.96144  21344739.9284   21344738.8144
      3365.0974
  -2328780.00849  -1814739.03947  19838365.5614   19838363.1394
       271.2984
  -1514486.85545  -1170587.12542  23411773.3814   23411774.5884
      3301.5634
  -6377236.80549  -4967864.80146  20469091.7254   20469090.0294
      2117.7814
   4650679.00447   3614182.74644  22049907.2644   22049904.4044
     -1811.3884
 04  9  9 21 37 29.9980000  0  7G19G 3G 8G13G10G27G23
  -7946204.53147  -6186858.60543  22594516.3734   22594514.0924
      3231.2214
  -5044249.79747  -3918748.41843  22400749.8184   22400749.6314
      1022.3274
 -10251371.23048  -7979209.10244  21335134.8424   21335134.2604
      3364.8294
  -2332772.70749  -1817850.23846  19837605.7254   19837603.2484
       266.1804
  -1563933.23045  -1209116.76242  23402364.7564   23402364.8344
      3296.4254
  -6409001.99249  -4992616.89546  20463046.6234   20463045.3654
      2117.6794
   4677876.93047   3635375.89144  22055082.3814   22055079.8734
     -1813.1954
 04  9  9 21 37 44.9980000  0  7G19G 3G 8G13G10G27G23
  -7994617.03547  -6224582.59043  22585302.9904   22585301.0024
      3227.5004
  -5059478.58647  -3930615.00043  22397852.1004   22397851.5924
      1015.2534
 -10301834.98048  -8018531.48845  21325532.6074   21325531.4824
      3364.2504
  -2336683.81249  -1820897.85547  19836861.5224   19836859.0184
       260.7404
  -1613297.47745  -1247582.36342  23392970.4044   23392971.0144
      3290.9504
  -6440760.97749  -5017364.15646  20457003.5844   20457001.4004
      2117.2664
   4705106.57847   3656593.74644  22060264.7254   22060262.0534
     -1815.3104
 04  9  9 21 37 59.9980000  0  7G19G 3G 8G13G10G27G23
  -8042973.21547  -6262262.69943  22576101.3504   22576099.5104
      3223.7454
  -5074601.16848  -3942398.82043  22394974.8264   22394974.2834
      1008.1724
 -10352289.84448  -8057846.94545  21315930.7954   21315930.3934
      3363.6584
  -2340513.12149  -1823881.74247  19836132.7324   19836130.4164
       255.2874
  -1662579.30946  -1285983.77342  23383592.9904   23383592.7994
      3285.4554
  -6472513.78549  -5042106.59846  20450960.8344   20450959.2324
      2116.8544
   4732367.76248   3677836.16844  22065452.3734   22065449.6434
     -1817.4124
 04  9  9 21 38 14.9980000  0  7G19G 3G 8G13G10G27G23
  -8091270.92646  -6299897.21943  22566910.8654   22566908.5334
      3219.8474
  -5089615.59048  -3954098.36743  22392117.0064   22392116.9124
      1000.9614
 -10402734.05148  -8097154.10544  21306331.9984   21306330.8654
      3362.9474
  -2344258.78149  -1826800.43746  19835420.3734   19835417.8544
       249.7114
  -1711776.50045  -1324319.22342  23374230.8814   23374230.7214
      3279.8134
  -6504258.24249  -5066842.53146  20444920.3814   20444918.1394
      2116.2974
   4759662.25047   3699104.57444  22070646.3344   22070643.5184
     -1819.6334
 04  9  9 21 38 29.9980000  0  7G19G 3G 8G13G10G27G23
  -8139513.30547  -6337488.64143  22557730.4124   22557728.2134
      3216.1594
  -5104525.39548  -3965716.39143  22389280.3814   22389279.8814
       993.9874
 -10453170.73848  -8136455.39844  21296734.3504   21296733.0644
      3362.4464
  -2347924.46949  -1829656.82446  19834722.2874   19834719.8894
       244.3794
  -1760892.39545  -1362591.32842  23364884.4044   23364883.8384
      3274.3934
  -6535998.03149  -5091574.83246  20438880.2324   20438878.6824
      2115.9864
   4786986.38747   3720396.05944  22075845.4514   22075842.9204
     -1821.6094
 04  9  9 21 38 44.9980000  0  7G19G 3G 8G13G10G27G23
  -8187699.60547  -6375036.37943  22548560.8894   22548558.7754
      3212.4204
  -5119330.04747  -3977252.48443  22386462.7564   22386461.9674
       986.9774
 -10503599.67648  -8175750.65645  21287137.6864   21287136.5684
      3361.9294
  -2351509.70349  -1832450.52046  19834040.4204   19834037.7524
       239.0164
  -1809926.40246  -1400799.62942  23355553.1314   23355553.2604
      3268.9344
  -6567732.69149  -5116303.12946  20432841.0844   20432839.4554
      2115.6444
   4814340.40247   3741710.84444  22081051.1624   22081048.4124
     -1823.6014
 04  9  9 21 38 59.9980000  0  7G19G 3G 8G13G10G27G23
  -8235824.85946  -6412536.51643  22539402.9514   22539400.5294
      3208.3504
  -5134024.80147  -3988702.91843  22383666.4284   22383665.7094
       979.6504
 -10554015.73448  -8215035.88744  21277543.8034   21277542.7724
      3361.0714
  -2355009.60549  -1835177.71946  19833374.3894   19833371.7754
       233.3274
  -1858873.44145  -1438940.15242  23346239.2794   23346239.4674
      3263.1364
  -6599457.43749  -5141023.71146  20426804.4674   20426802.8694
      2114.9834
   4841728.90647   3763052.49244  22086263.0684   22086260.4794
     -1825.9004
 04  9  9 21 39 14.9980000  0  7G19G 3G 8G13G10G27G23
  -8283890.79746  -6449990.45743  22530256.1004   22530253.6194
      3204.3964
  -5148611.98848  -4000069.55543  22380890.4364   22380890.5684
       972.4794
 -10604421.46149  -8254313.06244  21267951.8574   21267951.1314
      3360.3824
  -2358426.50049  -1837840.24646  19832724.1394   19832721.3814
       227.7934
  -1907735.48445  -1477014.45742  23336940.1004   23336941.3384
      3257.4704
  -6631174.52049  -5165738.31246  20420768.7874   20420766.9754
      2114.4724
   4869149.40647   3784419.06644  22091481.1154   22091477.8384
     -1828.0334
 04  9  9 21 39 29.9980000  0  8G19G 3G 8G13G10G28G27G23
  -8331897.07847  -6487397.89843  22521121.2254   22521118.3854
      3200.4194
  -5163091.44948  -4011352.25042  22378135.1394   22378135.0804
       965.2974
 -10654816.47349  -8293581.87944  21258362.1784   21258360.5374
      3359.6674
  -2361760.21949  -1840437.95346  19832089.5614   19832087.3464
       222.2484
  -1956512.23046  -1515022.27742  23327659.2484   23327659.2524
      3251.7834
   -202321.71557   -149651.21552  23654798.6314   23654799.1004

  -6662883.78549  -5190446.82446  20414734.6704   20414733.0574
      2113.9514
   4896601.87147   3805810.57044  22096704.8424   22096702.6074
     -1830.1644
 04  9  9 21 39 44.9980000  0  8G19G 3G 8G13G10G28G27G23
  -8379843.12946  -6524758.41043  22511997.4594   22511994.6044
      3196.4034
  -5177462.78548  -4022550.67643  22375400.6074   22375400.0614
       958.0894
 -10705200.77049  -8332842.35944  21248774.2954   21248772.9794
      3358.9534
  -2365010.52049  -1842970.66446  19831471.3424   19831468.9554
       216.6874
  -2005203.21146  -1552963.27742  23318393.4364   23318394.1434
      3246.0654
   -271927.85948   -203889.70742  23641553.9904   23641553.7604
      4640.4104
  -6694584.97749  -5215149.05546  20408701.8894   20408700.2684
      2113.4134
   4924086.43847   3827227.06344  22101935.8034   22101932.5764
     -1832.3044
 04  9  9 21 39 59.9980000  0  8G19G 3G 8G13G10G28G27G23
  -8427726.96947  -6562070.46943  22502885.0844   22502882.7174
      3192.2564
  -5191724.37948  -4033663.60243  22372686.8654   22372686.1234
       950.7734
 -10755572.45349  -8372093.00445  21239188.9674   21239187.4944
      3358.1124
  -2368175.74249  -1845437.07047  19830868.8734   19830866.4394
       211.0154
  -2053806.55146  -1590836.00442  23309144.5454   23309145.0884
      3240.2234
   -341531.89547   -258126.54742  23628308.2404   23628308.2364
      4640.2694
  -6726276.47349  -5239843.71946  20402671.2724   20402669.6074
      2112.7664
   4951604.51247   3848669.68443  22107171.5534   22107168.7444
     -1834.5384
 04  9  9 21 40 14.9980000  0  8G19G 3G 8G13G10G28G27G23
  -8475550.74647  -6599335.69543  22493784.3034   22493781.4554
      3188.2524
  -5205878.67648  -4044692.91443  22369992.4754   22369992.5494
       943.6204
 -10805934.02749  -8411335.77345  21229605.1234   21229603.9794
      3357.4384
  -2371258.24649  -1847839.02746  19830282.3034   19830280.0064
       205.5004
  -2102324.53146  -1628642.18742  23299911.6624   23299911.8184
      3234.5324
   -411136.04347   -312363.45342  23615062.4044   23615062.6274
      4640.2774
  -6757960.66049  -5264532.69546  20396641.8814   20396640.2994
      2112.2794
   4979153.53547   3870136.41843  22112414.0144   22112411.7054
     -1836.6024
 04  9  9 21 40 29.9980000  0  8G19G 3G 8G13G10G28G27G23
  -8523308.20746  -6636549.26243  22484695.7484   22484694.0964
      3183.8314
  -5219919.89147  -4055634.11343  22367320.6624   22367320.8974
       936.0814
 -10856279.64548  -8450566.10545  21220024.7644   21220023.5104
      3356.3744
  -2374252.39149  -1850172.12946  19829712.8114   19829710.0644
       199.6104
  -2150750.93746  -1666377.02342  23290696.4284   23290696.8504
      3228.4274
   -480734.08245   -366595.61342  23601818.4044   23601818.8144
      4639.8694
  -6789631.74249  -5289211.45346  20390615.2254   20390613.6314
      2111.4054
   5006739.07847   3891631.60944  22117664.0534   22117660.5724
     -1839.0364
 04  9  9 21 40 44.9980000  0  8G19G 3G 8G13G10G28G27G23
  -8571000.85246  -6673712.30943  22475620.8734   22475618.2364
      3179.5104
  -5233849.67248  -4066488.47343  22364670.1934   22364669.9364
       928.6524
 -10906610.94949  -8489785.28944  21210446.8184   21210446.1044
      3355.4204
  -2377159.71549  -1852437.58646  19829159.4284   19829156.8304
       193.8224
  -2199087.31645  -1704041.72342  23281497.8814   23281498.4674
      3222.4254
   -550327.65247   -420824.27342  23588574.8264   23588575.3114
      4639.5714
  -6821291.35249  -5313881.28146  20384590.9204   20384589.0184
      2110.6414
   5034359.17247   3913153.72344  22122919.8734   22122917.2294
     -1841.3404
 04  9  9 21 40 59.9980000  0  8G19G 3G 8G13G10G28G27G23
  -8618624.64847  -6710821.71543  22466558.5224   22466555.7484
      3174.9204
  -5247664.24248  -4077253.06643  22362041.4284   22362040.8574
       920.9714
 -10956924.10949  -8528990.33245  21200872.8184   21200871.7014
      3354.2114
  -2379976.47349  -1854632.47346  19828623.4364   19828620.6894
       187.7844
  -2247329.76646  -1741633.21142  23272318.5614   23272318.0294
      3216.1634
   -619912.67647   -475046.30542  23575334.0374   23575334.1704
      4639.0024
  -6852935.86749  -5338539.33646  20378569.0684   20378567.1004
      2109.6344
   5062017.57447   3934705.68044  22128182.7324   22128180.4324
     -1843.8934
 04  9  9 21 41 14.9980000  0  8G19G 3G 8G13G10G28G27G23
  -8666172.32846  -6747871.80543  22457510.0454   22457508.4824
      3169.8454
  -5261356.80147  -4087922.59843  22359435.4204   22359435.1864
       912.8374
 -11007212.31249  -8568175.93444  21191303.0064   21191302.4244
      3352.5474
  -2382695.92248  -1856751.52346  19828105.7014   19828103.2914
       181.2974
  -2295471.01246  -1779145.85242  23263157.1394   23263156.4434
      3209.4164
   -689482.24647   -529256.27742  23562095.2404   23562095.8614
      4637.9714
  -6884558.28948  -5363180.18046  20372551.2564   20372549.6624
      2108.1614
   5089720.87547   3956292.62944  22133454.7174   22133451.7364
     -1846.8874
 04  9  9 21 41 29.9980000  0  8G19G 3G 8G13G10G28G27G23
  -8713645.64146  -6784863.95343  22448476.0064   22448473.2214
      3164.8874
  -5274929.36748  -4098498.60243  22356853.0924   22356852.3544
       904.8384
 -11057477.52349  -8607343.60944  21181738.1934   21181737.0334
      3351.0144
  -2385320.06649  -1858796.31646  19827606.3574   19827604.1044
       174.9434
  -2343512.97346  -1816581.13342  23254015.5064   23254015.1394
      3202.7974
   -759038.02747   -583455.51642  23548859.2254   23548859.3034
      4637.0524
  -6916160.51248  -5387805.28146  20366537.6784   20366535.8544
      2106.8154
   5117466.93847   3977912.90243  22138734.1394   22138732.0374
     -1849.7374
 04  9  9 21 41 44.9980000  0  8G19G 3G 8G13G10G28G27G23
  -8761044.99646  -6821798.48043  22439456.0684   22439453.6934
      3159.9574
  -5288382.69948  -4108981.71943  22354293.1784   22354292.6314
       896.8894
 -11107720.17248  -8646493.72745  21172177.2254   21172176.0614
      3349.5104
  -2387849.69548  -1860767.46146  19827125.0294   19827122.7484
       168.6424
  -2391456.11346  -1853939.40242  23244892.0924   23244891.5534
      3196.2094
   -828580.77346   -637644.60942  23535625.1314   23535625.7014
      4636.1834
  -6947743.46548  -5412415.36346  20360527.4754   20360525.6584
      2105.5304
   5145254.73447   3999565.68044  22144022.3504   22144020.0104
     -1852.5204
 04  9  9 21 41 59.9980000  0  8G19G 3G 8G13G10G28G27G23
  -8808370.62547  -6858675.54743  22430450.7174   22430448.4434
      3155.0424
  -5301717.30548  -4119372.30143  22351755.6934   22351754.9434
       888.9744
 -11157940.96949  -8685626.78545  21162620.4904   21162619.3814
      3348.0534
  -2390285.13748  -1862665.22347  19826661.5534   19826659.1704
       162.3634
  -2439300.76646  -1891220.93742  23235787.1864   23235786.7874
      3189.6434
   -898110.61346   -691823.57442  23522393.1154   23522395.0064
      4635.3234
  -6979307.66848  -5437010.84046  20354521.2954   20354519.1354
      2104.2804
   5173083.58747   4021250.50043  22149317.5764   22149315.3384
     -1855.2574
 04  9  9 21 42 14.9980000  0  8G19G 3G 8G13G10G28G27G23
  -8855615.09847  -6895489.38743  22421460.3974   22421458.0024
      3149.6324
  -5314926.12148  -4129664.87942  22349242.0374   22349241.4794
       880.5884
 -11208132.77749  -8724737.28145  21153069.3264   21153068.3734
      3346.1214
  -2392619.49248  -1864484.21147  19826217.5294   19826215.0104
       155.6244
  -2487039.66445  -1928420.05142  23226703.2724   23226702.6044
      3182.5934
   -967620.33246   -745986.90241  23509166.4124   23509167.1704
      4633.9814
  -7010845.92248  -5461586.10546  20348519.4594   20348517.7834
      2102.5504
   5200960.51247   4042972.68843  22154622.8264   22154620.1274
     -1858.4624
 04  9  9 21 42 29.9980000  0  8G19G 3G 8G13G10G28G27G23
  -8902781.46546  -6932242.35943  22412484.8654   22412482.4044
      3144.4244
  -5328012.51248  -4139862.06243  22346751.4904   22346751.0764
       872.4264
 -11258299.07849  -8763827.89144  21143523.3034   21143521.7604
      3344.4204
  -2394856.14849  -1866227.06646  19825791.6394   19825789.5224
       149.1104
  -2534675.95746  -1965539.21142  23217638.3344   23217637.3574
      3175.7534
  -1037113.11747   -800137.02041  23495942.6784   23495941.7364
      4632.8524
  -7042361.67648  -5486143.82846  20342522.1864   20342520.2014
      2101.0504
   5228881.71947   4064729.43843  22159936.1704   22159932.8544
     -1861.4144
 04  9  9 21 42 44.9980000  0  8G19G 3G 8G13G10G28G27G23
  -8949867.14147  -6968932.45343  22403524.4824   22403522.1394
      3139.0454
  -5340974.13748  -4149962.02343  22344285.1624   22344284.5764
       864.1084
 -11308437.42649  -8802896.71144  21133981.7954   21133980.6504
      3342.5574
  -2396992.81648  -1867892.01646  19825385.1864   19825382.8854
       142.4454
  -2582207.05546  -2002576.41442  23208593.1314   23208592.3894
      3168.7404
  -1106586.41047   -854272.05142  23482722.1234   23482721.5644
      4631.5534
  -7073852.56648  -5510682.18446  20336529.9674   20336528.2054
      2099.3934
   5256849.44547   4086522.42643  22165258.1704   22165255.2214
     -1864.5154
 04  9  9 21 42 59.9980000  0  8G19G 3G 8G13G10G28G27G23
  -8996871.52347  -7005559.21543  22394580.1154   22394577.4674
      3133.6264
  -5353810.84447  -4159964.63743  22341842.5294   22341841.8114
       855.7804
 -11358547.38349  -8841943.41445  21124446.3264   21124445.3184
      3340.6644
  -2399029.08248  -1869478.72346  19824997.5764   19824995.3424
       135.7514
  -2629632.51346  -2039531.25442  23199567.7954   23199567.7754
      3161.6974
  -1176039.74647   -908391.49242  23469505.6004   23469505.7444
      4630.2224
  -7105318.33248  -5535200.94946  20330541.8504   20330540.3734
      2097.7184
   5284863.82847   4108351.78143  22170589.1864   22170586.0024
     -1867.6264
 04  9  9 21 43 14.9980000  0  8G19G 3G 8G13G10G28G27G23
  -9043792.83647  -7042121.23443  22385651.1074   22385648.6934
      3128.0884
  -5366521.11748  -4169868.75443  22339424.1004   22339423.2794
       847.3524
 -11408627.60549  -8880966.95745  21114916.0224   21114915.1154
      3338.6824
  -2400963.60248  -1870986.15246  19824629.6074   19824626.9984
       128.9684
  -2676950.57846  -2076402.50842  23190564.1544   23190563.5764
      3154.5384
  -1245471.48047   -962494.01642  23456292.7484   23456293.9324
      4628.7824
  -7136757.56648  -5559699.05946  20324559.2564   20324557.6154
      2095.9494
   5312926.13347   4130218.46943  22175929.2794   22175926.1394
     -1870.8204
 04  9  9 21 43 29.9980000  0  8G19G 3G 8G13G10G28G27G23
  -9090633.11347  -7078620.09843  22376737.9594   22376735.5254
      3122.6854
  -5379107.19548  -4179676.06643  22337028.3114   22337028.3654
       839.0724
 -11458680.25849  -8919969.00444  21105391.4204   21105390.4044
      3336.8434
  -2402798.72348  -1872416.12946  19824280.3734   19824277.9124
       122.3414
  -2724163.28146  -2113191.62942  23181580.0534   23181579.0844
      3147.5144
  -1314883.76247  -1016581.38342  23443084.2954   23443085.0144
      4627.4854
  -7168172.44949  -5584178.18046  20318581.2404   20318579.6074
      2094.3264
   5341033.84047   4152120.55543  22181278.1234   22181275.7604
     -1873.8474
 04  9  9 21 43 44.9980000  0  8G19G 3G 8G13G10G28G27G23
  -9137389.82847  -7115053.87144  22367839.6314   22367837.6354
      3117.1144
  -5391567.04748  -4189385.03943  22334657.6934   22334656.6474
       830.6574
 -11508703.09449  -8958947.81645  21095872.2254   21095871.3344
      3334.8564
  -2404532.20348  -1873766.89846  19823950.4754   19823948.1354
       115.5654
  -2771268.33246  -2149896.83642  23172615.5614   23172615.4594
      3140.3374
  -1384274.21147  -1070651.79742  23429880.2404   23429880.2564
      4626.0304
  -7199560.67648  -5608636.52746  20312608.7404   20312606.5104
      2092.5484
   5369188.98047   4174059.57443  22186635.3574   22186633.1544
     -1877.0094
 04  9  9 21 43 59.9980000  0  8G19G 3G 8G13G10G28G27G23
  -9184057.27747  -7151418.08643  22358959.4984   22358957.1824
      3111.1634
  -5403895.23048  -4198991.42643  22332311.5844   22332311.2444
       821.8794
 -11558690.84849  -8997899.30545  21086360.0924   21086359.2214
      3332.5174
  -2406158.71548  -1875034.31246  19823640.9364   19823638.7484
       108.4344
  -2818260.07046  -2186513.73442  23163673.4514   23163673.4984
      3132.7834
  -1453637.29347  -1124700.86342  23416680.6004   23416680.5884
      4624.2054
  -7230917.09448  -5633070.09046  20306641.5534   20306639.5804
      2090.4284
   5397396.72347   4196039.58643  22192003.3654   22192000.6234
     -1880.5164
 04  9  9 21 44 14.9980000  0  8G19G 3G 8G13G10G28G27G23
  -9230642.55947  -7187718.28144  22350094.6934   22350092.1004
      3105.6854
  -5416099.15648  -4208500.96543  22329989.4434   22329989.0844
       813.5954
 -11608650.84849  -9036829.16045  21076853.1704   21076852.0334
      3330.6674
  -2407685.71149  -1876224.18046  19823350.5224   19823348.1824
       101.8004
  -2865145.76245  -2223048.02042  23154751.1624   23154751.4634
      3125.7134
  -1522980.06247  -1178734.11742  23403484.6784   23403484.1544
      4622.8514
  -7262249.00448  -5657484.56246  20300679.2404   20300677.3144
      2088.7944
   5425649.40247   4218054.61343  22197380.0764   22197377.5924
     -1883.5124
 04  9  9 21 44 29.9980000  0  8G19G 3G 8G13G10G28G27G23
  -9277142.47347  -7223951.94144  22341246.3184   22341243.6044
      3099.9944
  -5428175.85948  -4217911.39142  22327691.6704   22327690.3934
       805.1144
 -11658580.00049  -9075734.98045  21067351.8344   21067350.4474
      3328.6104
  -2409110.07449  -1877334.09046  19823079.0684   19823077.3304
        94.9584
  -2911922.18446  -2259497.16042  23145850.0224   23145849.3344
      3118.4284
  -1592299.38347  -1232749.14542  23390293.4984   23390293.3544
      4621.2884
  -7293553.37548  -5681877.57846  20294722.2484   20294720.3504
      2086.9584
   5453949.84447   4240106.87543  22202765.5924   22202761.8654
     -1886.6964
 04  9  9 21 44 44.9980000  0  8G19G 3G 8G13G10G28G27G23
  -9323553.23047  -7260116.13744  22332414.8344   22332412.0104
      3094.0514
  -5440122.12948  -4227220.17243  22325417.3654   22325416.9084
       796.4184
 -11708475.12549  -9114614.28145  21057857.0924   21057856.3304
      3326.3424
  -2410428.70749  -1878361.59446  19822828.6154   19822826.0844
        87.9094
  -2958585.77045  -2295858.40242  23136970.1154   23136969.6544
      3110.9064
  -1661591.85547  -1286743.17242  23377107.1864   23377107.7794
      4619.4984
  -7324826.92648  -5706246.57446  20288770.7724   20288769.1274
      2084.9034
   5482301.23847   4262198.82843  22208160.8114   22208157.4944
     -1890.0934
 04  9  9 21 44 59.9980000  0  8G19G 3G 8G13G10G28G27G23
  -9369873.32047  -7296209.68043  22323600.0224   22323597.3694
      3088.0064
  -5451936.63348  -4236426.27743  22323169.5684   22323169.1704
       787.6344
 -11758334.59449  -9153465.79345  21048369.0294   21048368.0574
      3323.9654
  -2411640.25049  -1879305.66846  19822598.0614   19822595.7134
        80.7704
  -3005135.02745  -2332130.54742  23128112.6314   23128111.6664
      3103.2844
  -1730855.70347  -1340714.91042  23363927.6004   23363927.5534
      4617.5904
  -7356068.34049  -5730590.52746  20282825.8184   20282823.9474
      2082.7614
   5510704.68447   4284331.34843  22213565.7404   22213562.6154
     -1893.5634
 04  9  9 21 45 14.9980000  0  8G19G 3G 8G13G10G28G27G23
  -9416104.19547  -7332233.71543  22314802.7564   22314799.6474
      3082.0584
  -5463621.09448  -4245531.05543  22320946.7014   22320945.5804
       778.9644
 -11808160.14148  -9192290.87945  21038887.7404   21038886.6744
      3321.7034
  -2412746.37149  -1880167.58246  19822387.5534   19822384.9944
        73.7414
  -3051571.48045  -2368314.77342  23119276.0064   23119275.0254
      3095.7644
  -1800092.71547  -1394665.72342  23350752.2094   23350752.1704
      4615.8014
  -7387279.29749  -5754910.75046  20276886.5684   20276884.9514
      2080.7304
   5539158.25447   4306502.92243  22218980.1234   22218977.2444
     -1896.9054
 04  9  9 21 45 29.9980000  0  8G19G 3G 8G13G10G28G27G23
  -9462247.38347  -7368189.41044  22306021.5374   22306018.8894
      3076.2134
  -5475177.35548  -4254535.94143  22318747.4904   22318746.4474
       770.4174
 -11857953.56249  -9231090.93045  21029412.1154   21029411.4434
      3319.5614
  -2413749.05149  -1880948.90646  19822196.4044   19822194.1704
        66.8454
  -3097896.67246  -2404412.30142  23110460.2874   23110459.6504
      3088.3464
  -1869304.52347  -1448596.93042  23337581.1704   23337581.2484
      4614.1214
  -7418461.52049  -5779208.57846  20270952.9514   20270951.1584
      2078.8154
   5567659.96147   4328712.00043  22224404.1704   22224401.3034
     -1900.1144
 04  9  9 21 45 44.9980000  0  8G19G 3G 8G13G10G28G27G23
  -9508299.99647  -7404074.53144  22297258.0294   22297255.2094
      3070.1744
  -5486603.02348  -4263439.05943  22316572.5454   22316571.9864
       761.7114
 -11907712.62149  -9269864.21145  21019943.4824   21019941.9944
      3317.2714
  -2414645.73448  -1881647.63346  19822025.9124   19822023.7524
        59.7794
  -3144108.01645  -2440421.12142  23101666.1074   23101665.9554
      3080.7564
  -1938488.35547  -1502506.30542  23324416.3814   23324415.4754
      4612.2554
  -7449612.62548  -5803482.16046  20265025.0764   20265023.3074
      2076.7404
   5596212.04747   4350960.34843  22229837.1934   22229834.7754
     -1903.4724
 04  9  9 21 45 59.9980000  0  8G19G 3G 8G13G10G28G27G23
  -9554263.63347  -7439890.33644  22288512.0534   22288508.8344
      3064.2424
  -5497899.94948  -4272241.85943  22314423.4284   22314422.4824
       753.1284
 -11957438.99649  -9308612.02045  21010480.6704   21010479.2254
      3315.0924
  -2415438.38748  -1882265.29346  19821874.9674   19821872.8464
        52.8434
  -3190207.32844  -2476342.64142  23092893.7404   23092893.8814
      3073.2884
  -2007645.92247  -1556395.27742  23311255.6154   23311255.6504
      4610.5044
  -7480734.45748  -5827732.93746  20259102.7404   20259100.9984
      2074.7894
   5624812.46547   4373246.31643  22235279.8184   22235276.7754
     -1906.6954
 04  9  9 21 46 14.9980000  0  8G19G 3G 8G13G10G28G27G23
  -9600137.36747  -7475636.06644  22279782.0064   22279779.0374
      3058.2494
  -5509067.53148  -4280943.89842  22312298.3734   22312297.4474
       744.5054
 -12007131.87549  -9347333.73845  21001024.4824   21001023.4794
      3312.8594
  -2416126.43049  -1882801.44146  19821744.1394   19821741.7994
        45.8704
  -3236193.44545  -2512175.93442  23084143.5684   23084143.1544
      3065.7414
  -2076776.47347  -1610263.13342  23298100.1314   23298100.1544
      4608.7034
  -7511826.41449  -5851960.43046  20253186.2324   20253184.4364
      2072.7974
   5653461.56647   4395570.28143  22240731.1074   22240728.8894
     -1909.9404
 04  9  9 21 46 29.9980000  0  8G19G 3G 8G13G10G28G27G23
  -9645916.72347  -7511308.25444  22271070.7174   22271067.8774
      3051.9574
  -5520101.59848  -4289541.85943  22310198.2324   22310197.3384
       735.6044
 -12056787.06649  -9386026.06645  20991575.6234   20991574.3614
      3310.3464
  -2416705.57048  -1883252.73046  19821634.1394   19821631.6744
        38.6094
  -3282062.05545  -2547917.71942  23075414.7564   23075415.3854
      3057.9074
  -2145875.46947  -1664106.41842  23284951.5764   23284951.4794
      4606.6004
  -7542884.25448  -5876161.34046  20247275.8734   20247273.9864
      2070.5234
   5682163.43846   4417935.31343  22246193.0064   22246191.0844
     -1913.4584
 04  9  9 21 46 44.9980000  0  8G19G 3G 8G13G10G28G27G23
  -9691602.88747  -7546907.83643  22262376.6314   22262373.5924
      3045.7444
  -5531003.60948  -4298036.94543  22308123.7404   22308122.8144
       726.8014
 -12106406.10949  -9424690.25045  20982133.4904   20982132.4364
      3307.9364
  -2417177.16849  -1883620.21946  19821544.2324   19821542.1394
        31.4404
  -3327814.46546  -2583568.91442  23066708.5064   23066708.6504
      3050.1614
  -2214944.16047  -1717926.08242  23271807.2794   23271808.3814
      4604.5794
  -7573909.40248  -5900336.77746  20241372.1934   20241370.2994
      2068.3434
   5710916.48447   4440340.24243  22251664.4594   22251661.9554
     -1916.8704
 04  9  9 21 46 59.9980000  0  8G19G 3G 8G13G10G28G27G23
  -9737196.98047  -7582435.66844  22253700.0614   22253698.0374
      3039.6064
  -5541775.12548  -4306430.33243  22306074.5454   22306073.3264
       718.1014
 -12155990.48049  -9463327.40245  20972697.5684   20972696.5294
      3305.6254
  -2417542.96549  -1883905.27346  19821474.5534   19821472.3424
        24.3864
  -3373451.80145  -2619130.44942  23058023.4124   23058023.6004
      3042.4894
  -2283983.84447  -1771723.11342  23258669.3894   23258670.1274
      4602.6464
  -7604903.13748  -5924487.73846  20235473.8734   20235472.5684
      2066.2494
   5739718.98447   4462783.71543  22257145.7324   22257142.9984
     -1920.1674
 04  9  9 21 47 14.9980000  0  8G19G 3G 8G13G10G28G27G23
  -9782696.65246  -7617889.93744  22245041.7794   22245039.6004
      3033.3114
  -5552414.05948  -4314720.41443  22304049.6234   22304049.0724
       709.2624
 -12205537.87949  -9501935.75845  20963268.9514   20963268.3304
      3303.1604
  -2417800.84448  -1884106.21946  19821425.5924   19821423.0924
        17.1924
  -3418971.98446  -2654600.69542  23049361.5144   23049361.7444
      3034.6794
  -2352992.31647  -1825495.87942  23245538.4674   23245538.0684
      4600.5654
  -7635863.56648  -5948612.75046  20229582.5534   20229580.8074
      2064.0294
   5768572.80947   4485267.16843  22262636.4674   22262634.2684
     -1923.5884
 04  9  9 21 47 29.9980000  0  8G19G 3G 8G13G10G28G27G23
  -9828102.12946  -7653270.78543  22236401.8114   22236398.8464
      3027.0324
  -5562921.17248  -4322907.78543  22302050.3974   22302049.1504
       700.4744
 -12255048.81649  -9540515.68745  20953847.8114   20953846.2754
      3300.7294
  -2417951.44148  -1884223.57446  19821396.8184   19821394.5104
        10.0404
  -3464375.32445  -2689979.90642  23040721.2484   23040721.0724
      3026.8894
  -2421969.87947  -1879244.57042  23232411.7724   23232411.7364
      4598.5044
  -7666791.11348  -5972712.12146  20223697.3264   20223695.3734
      2061.8364
   5797477.25447   4507790.07043  22268136.8344   22268134.2094
     -1926.9634
 04  9  9 21 47 44.9980000  0  8G19G 3G 8G13G10G28G27G23
  -9873410.21146  -7688575.77044  22227780.0144   22227777.1544
      3020.5394
  -5573293.40648  -4330990.05143  22300076.4514   22300075.2134
       691.4824
 -12304520.43449  -9579064.98445  20944433.5064   20944432.6434
      3298.1084
  -2417991.77749  -1884255.01246  19821389.3424   19821386.9754
         2.6894
  -3509658.69945  -2725265.62542  23032104.8574   23032103.8144
      3018.8924
  -2490913.53947  -1932966.80942  23219293.2724   23219292.9474
      4596.2444
  -7697682.93049  -5996783.67646  20217818.8344   20217817.3384
      2059.4544
   5826435.10247   4530354.58243  22273647.4284   22273645.1004
     -1930.5234
 04  9  9 21 47 59.9980000  0  8G19G 3G 8G13G10G28G27G23
  -9918624.44947  -7723807.61344  22219175.7014   22219173.0534
      3014.2834
  -5583534.50448  -4338970.13743  22298128.0294   22298126.6354
       682.7404
 -12353956.51649  -9617586.59445  20935025.9984   20935024.4824
      3295.7394
  -2417925.71949  -1884203.54746  19821401.8734   19821399.2834
        -4.4044
  -3554825.69146  -2760460.65642  23023509.8974   23023509.1894
      3011.1334
  -2559826.72347  -1986665.29742  23206178.3264   23206178.7604
      4594.2124
  -7728542.83249  -6020830.35246  20211946.2014   20211944.6584
      2057.3274
   5855442.20347   4552957.47744  22279167.4124   22279165.1074
     -1933.8074
 04  9  9 21 48 14.9980000  0  8G19G 3G 8G13G10G28G27G23
  -9963739.03947  -7758961.80944  22210591.2254   22210588.6824
      3007.6394
  -5593639.19548  -4346843.91443  22296204.2564   22296204.3654
       673.6464
 -12403351.52349  -9656076.19145  20925626.4674   20925625.0414
      3293.0014
  -2417747.83248  -1884064.94546  19821435.6704   19821433.3974
       -11.8594
  -3599870.74245  -2795560.67242  23014937.5764   23014936.9044
      3003.0034
  -2628703.91846  -2040335.74242  23193071.0614   23193071.9004
      4591.8134
  -7759365.36748  -6044847.90246  20206080.9674   20206079.2834
      2054.8364
   5884503.89147   4575602.89543  22284697.8424   22284695.1044
     -1937.4464
 04  9  9 21 48 29.9980000  0  8G19G 3G 8G13G10G28G27G23
 -10008755.85247  -7794039.81644  22202024.0144   22202021.7054
      3001.1214
  -5603609.53548  -4354613.02743  22294307.4824   22294306.8734
       664.6894
 -12452707.43049  -9694535.32845  20916234.3654   20916232.8694
      3290.3944
  -2417460.28548  -1883840.89546  19821490.2724   19821487.7834
       -19.1704
  -3644795.68745  -2830567.11342  23006389.0294   23006389.0374
      2994.9964
  -2697547.09047  -2093979.65642  23179971.3344   23179971.1394
      4589.5454
  -7790152.57448  -6068837.93046  20200222.6864   20200220.4944
      2052.4804
   5913617.81347   4598289.02343  22290238.0924   22290235.6074
     -1940.9284
 04  9  9 21 48 44.9980000  0  8G19G 3G 8G13G10G28G27G23
 -10053677.03947  -7829043.30544  22193476.5294   22193473.4794
      2994.7464
  -5613448.07447  -4362279.43042  22292435.2254   22292434.3464
       655.9034
 -12502026.64849  -9732965.87545  20906849.1784   20906847.7444
      3287.9484
  -2417065.58649  -1883533.34446  19821565.5764   19821563.2644
       -26.3134
  -3689602.70345  -2865481.64142  22997862.0454   22997862.5964
      2987.1344
  -2766358.37547  -2147598.77742  23166877.7794   23166876.1474
      4587.4194
  -7820906.79348  -6092802.25446  20194370.0374   20194368.1704
      2050.2814
   5942781.39147   4621013.85243  22295787.7794   22295785.1704
     -1944.2394
 04  9  9 21 48 59.9980000  0  8G19G 3G 8G13G10G28G27G23
 -10098499.75847  -7863970.06244  22184946.3734   22184944.1394
      2988.1814
  -5623152.48448  -4369841.31643  22290588.9284   22290587.6704
       646.9614
 -12551306.82449  -9771365.99645  20897471.7794   20897470.0024
      3285.3454
  -2416561.30149  -1883140.39546  19821661.5764   19821659.1744
       -33.6194
  -3734289.23446  -2900302.29742  22989358.0924   22989358.0574
      2979.1024
  -2835135.14847  -2201191.04342  23153789.2324   23153788.6894
      4585.1184
  -7851625.69949  -6116739.06246  20188524.2174   20188522.6044
      2047.9274
   5971996.81347   4643779.08643  22301347.3184   22301344.3384
     -1947.6954
 04  9  9 21 49 14.9980000  0  8G19G 3G 8G13G10G28G27G23
 -10143220.60947  -7898817.45744  22176436.6624   22176434.0724
      2981.3904
  -5632719.53148  -4377296.15243  22288768.2094   22288767.5454
       637.8034
 -12600544.66049  -9809733.12945  20888101.5924   20888100.2874
      3282.5224
  -2415944.25449  -1882659.59046  19821778.9284   19821776.7054
       -41.1364
  -3778851.86345  -2935026.42242  22980878.8974   22980878.2754
      2970.8424
  -2903873.98446  -2254753.65242  23140707.7644   23140708.7564
      4582.5894
  -7882305.97349  -6140645.76246  20182686.2564   20182684.5494
      2045.3524
   6001267.19948   4666587.11743  22306916.8424   22306915.0924
     -1951.3594
 04  9  9 21 49 29.9980000  0  8G19G 3G 8G13G10G28G27G23
 -10187843.29747  -7933588.35544  22167944.8654   22167942.5294
      2974.8464
  -5642153.29748  -4384647.15243  22286972.3344   22286971.8384
       628.9184
 -12649744.27749  -9848070.47745  20878739.4044   20878738.0454
      3279.9744
  -2415218.41849  -1882094.01246  19821917.3734   19821914.8894
       -48.3894
  -3823294.37946  -2969656.92642  22972421.3814   22972421.6004
      2962.8344
  -2972578.87946  -2308289.82042  23127633.7404   23127634.1664
      4580.3264
  -7912951.60949  -6164525.47746  20176854.4364   20176852.6044
      2043.0424
   6030588.21547   4689434.61343  22312496.3344   22312494.0724
     -1954.7344
 04  9  9 21 49 44.9980000  0  8G19G 3G 8G13G10G28G27G23
 -10232369.95747  -7968284.41443  22159472.0924   22159469.2214
      2968.4444
  -5651456.31648  -4391896.25043  22285201.8574   22285201.6824
       620.2014
 -12698908.03149  -9886379.87945  20869383.8734   20869382.6354
      3277.5844
  -2414386.30549  -1881445.60946  19822075.3974   19822073.3544
       -55.4744
  -3867618.97746  -3004195.56242  22963986.8184   22963986.8854
      2954.9734
  -3041251.94947  -2361801.23442  23114566.1474   23114566.0104
      4578.2054
  -7943565.20349  -6188380.21946  20171028.7094   20171027.5294
      2040.9064
   6059957.26247   4712319.56643  22318084.7644   22318082.2404
     -1957.9364
 04  9  9 21 49 59.9980000  0  8G19G 3G 8G13G10G28G27G23
 -10276797.38347  -8002903.15244  22151017.2094   22151015.0254
      2961.8284
  -5660625.67648  -4399041.20343  22283457.6234   22283456.6274
       611.2914
 -12748032.64149  -9924658.77745  20860035.8264   20860034.4244
      3274.9744
  -2413444.96949  -1880712.10546  19822254.5534   19822252.2134
       -62.7564
  -3911822.67646  -3038639.97342  22955575.2094   22955575.2134
      2946.9134
  -3109890.00047  -2415285.35942  23101504.6704   23101504.2014
      4575.8704
  -7974143.59849  -6212207.53146  20165209.8654   20165208.6274
      2038.5604
   6089377.17647   4735244.13743  22323683.8574   22323680.9594
     -1961.3284
 04  9  9 21 50 14.9980000  0  8G19G 3G 8G13G10G28G27G23
 -10321129.18447  -8037447.37944  22142581.2794   22142579.0494
      2955.4534
  -5669665.18448  -4406084.97343  22281737.5924   22281736.7874
       602.6344
 -12797122.12948  -9962910.30945  20850694.4124   20850693.3614
      3272.6334
  -2412398.36749  -1879896.58246  19822453.7954   19822451.2404
       -69.7734
  -3955909.05546  -3072992.98842  22947185.9514   22947185.8544
      2939.0924
  -3178496.79747  -2468745.11742  23088448.6314   23088448.9244
      4573.7864
  -8004690.65249  -6236010.43446  20159396.8654   20159395.1624
      2036.4704
   6118843.80147   4758205.08643  22329291.1234   22329289.3144
     -1964.4424
 04  9  9 21 50 29.9980000  0  8G19G 3G 8G13G10G28G27G23
 -10365367.76247  -8071918.96944  22134163.4674   22134160.6864
      2949.2394
  -5678577.79748  -4413029.85943  22280041.9514   22280040.9904
       594.1744
 -12846179.16849 -10001136.56645  20841358.7404   20841358.1704
      3270.4694
  -2411249.31649  -1879001.21946  19822672.8034   19822670.1474
       -76.6034
  -3999880.83247  -3107256.69142  22938818.3734   22938818.4084
      2931.4524
  -3247074.94947  -2522182.56242  23075399.1004   23075398.9364
      4571.8774
  -8035209.19949  -6259791.11346  20153589.6784   20153588.1974
      2034.5704
   6148354.14148   4781200.08643  22334906.7874   22334904.8544
     -1967.3564
 04  9  9 21 50 44.9980000  0  8G19G 3G 8G13G10G28G27G23
 -10409510.74647  -8106316.07444  22125762.9754   22125760.3614
      2942.8664
  -5687361.31248  -4419874.16043  22278369.8424   22278369.1784
       585.5684
 -12895201.51649 -10039335.78145  20832030.4044   20832029.3854
      3268.1574
  -2409995.70349  -1878024.38346  19822910.8654   19822908.2014
       -83.5744
  -4043735.49246  -3141429.12942  22930472.2724   22930473.1864
      2923.6444
  -3315621.94548  -2575595.74642  23062354.9364   23062354.5574
      4569.8004
  -8065696.89149  -6283547.75846  20147788.0294   20147786.2754
      2032.5134
   6177910.26647   4804230.80543  22340531.3574   22340528.0574
     -1970.4084
 04  9  9 21 50 59.9970000  0  8G19G 3G 8G13G10G28G27G23
 -10453552.92247  -8140634.63344  22117382.0794   22117379.5484
      2936.1454
  -5696013.50048  -4426616.14542  22276723.7824   22276722.3964
       576.8134
 -12944184.10949 -10077504.01645  20822709.3064   20822708.4384
      3265.5064
  -2408635.75049  -1876964.68746  19823169.9464   19823167.4234
       -90.6644
  -4087468.11745  -3175506.44542  22922150.7594   22922150.6064
      2915.5084
  -3384131.09447  -2628979.42242  23049317.6964   23049317.6654
      4567.2774
  -8096149.82049  -6307277.30546  20141993.0244   20141991.3994
      2030.1954
   6207511.87547   4827296.93843  22346164.2434   22346161.3174
     -1973.4414
 04  9  9 21 51 14.9970000  0  8G19G 3G 8G13G10G28G27G23
 -10497502.56247  -8174881.06644  22109018.6814   22109015.9624
      2929.9764
  -5704538.01648  -4433258.61743  22275101.4154   22275101.1424
       568.3014
 -12993135.89549 -10115648.24645  20813393.8454   20813393.0874
      3263.4524
  -2407171.91849  -1875824.05546  19823448.2594   19823445.8604
       -97.5894
  -4131086.85944  -3209495.10942  22913849.9074   22913850.7164
      2907.9164
  -3452614.18447  -2682342.78542  23036285.6654   23036285.7824
      4565.5394
  -8126574.75049  -6330985.03946  20136203.0954   20136201.5874
      2028.3294
   6237160.13747   4850399.44943  22351806.0874   22351803.8684
     -1976.5514
 04  9  9 21 51 29.9970000  0  8G19G 3G 8G13G10G28G27G23
 -10541358.89847  -8209054.79744  22100672.8764   22100669.7864
      2923.7564
  -5712936.84448  -4439803.15643  22273502.9854   22273502.6814
       559.9224
 -13042056.09049 -10153767.87145  20804084.7204   20804083.8564
      3261.3464
  -2405606.89149  -1874604.56246  19823746.2904   19823743.8334
      -104.3354
  -4174591.02746  -3243394.43742  22905572.2044   22905571.4894
      2900.2784
  -3521068.77747  -2735683.96942  23023259.0714   23023259.2594
      4563.6404
  -8156972.01649  -6354671.21946  20130418.6424   20130417.2354
      2026.4844
   6266850.30547   4873534.58643  22357456.2904   22357454.2314
     -1979.3454
 04  9  9 21 51 44.9970000  0  8G19G 3G 8G13G10G28G27G23
 -10585121.85548  -8243155.78544  22092345.1494   22092342.4354
      2917.5304
  -5721210.24648  -4446249.96143  22271928.6344   22271928.3994
       551.5604
 -13090945.07049 -10191863.16045  20794781.5174   20794780.4074
      3259.2654
  -2403940.90249  -1873306.39546  19824062.8844   19824060.8684
      -111.0664
  -4217980.78546  -3277204.60942  22897315.2594   22897315.1384
      2892.6514
  -3589494.96147  -2789003.01242  23010238.3134   23010238.8884
      4561.7464
  -8187341.85549  -6378336.03146  20124640.0324   20124637.8564
      2024.6564
   6296582.00447   4896702.08643  22363113.4854   22363111.1264
     -1982.1134
 04  9  9 21 51 59.9970000  0  8G19G 3G 8G13G10G28G27G23
 -10628795.68748  -8277187.31644  22084034.5714   22084031.5954
      2911.5894
  -5729362.83648  -4452602.62942  22270377.3764   22270376.8174
       543.5064
 -13139807.40249 -10229937.68045  20785483.2984   20785482.3994
      3257.4894
  -2402178.54749  -1871933.13346  19824398.3844   19824396.0284
      -117.4904
  -4261260.54746  -3310929.05942  22889079.2124   22889079.4314
      2885.3174
  -3657897.09447  -2842303.29342  22997222.0954   22997222.1224
      4560.1424
  -8217688.84449  -6401983.02746  20118864.6424   20118863.0874
      2023.1334
   6326350.48447   4919898.24643  22368778.9074   22368775.8454
     -1984.5654
 04  9  9 21 52 14.9970000  0  8G19G 3G 8G13G10G28G27G23
 -10672380.82447  -8311149.73444  22075740.4544   22075737.5954
      2905.6764
  -5737395.42248  -4458861.78943  22268849.4314   22268848.3334
       535.5064
 -13188643.48849 -10267991.75845  20776190.3454   20776188.6964
      3255.7394
  -2400320.54749  -1870485.35246  19824752.0874   19824749.7784
      -123.8674
  -4304430.63346  -3344568.07442  22880864.2434   22880863.8254
      2878.0064
  -3726275.71947  -2895585.23842  22984209.6814   22984209.3534
      4558.5754
  -8248013.53949  -6425612.65646  20113094.2984   20113092.6144
      2021.6464
   6356154.75047   4943122.34042  22374450.0564   22374447.4544
     -1986.9514
 04  9  9 21 52 29.9970000  0  8G19G 3G 8G13G10G28G27G23
 -10715875.34848  -8345041.55144  22067463.2744   22067460.3804
      2899.6354
  -5745306.31648  -4465026.10543  22267343.1964   22267342.5874
       527.3934
 -13237451.66449 -10306024.09045  20766901.8684   20766901.2164
      3253.8784
  -2398365.16449  -1868961.68746  19825124.2984   19825121.9384
      -130.3594
  -4347489.48046  -3378120.38742  22872670.3924   22872669.7434
      2870.5904
  -3794629.01247  -2948847.48442  22971202.5244   22971202.0094
      4556.8864
  -8278314.34449  -6449223.66846  20107328.0174   20107326.5054
      2020.0544
   6385996.40247   4966375.53542  22380128.4234   22380126.9664
     -1989.4434
 04  9  9 21 52 44.9970000  0  8G19G 3G 8G13G10G28G27G23
 -10759276.78147  -8378860.79744  22059204.7514   22059201.7204
      2893.4294
  -5753093.41048  -4471093.97742  22265861.8454   22265861.2594
       519.1404
 -13286229.54349 -10344032.80945  20757619.9154   20757618.8064
      3251.8594
  -2396310.51649  -1867360.67646  19825515.4314   19825512.7124
      -136.9774
  -4390434.61345  -3411584.14542  22864498.2044   22864497.8334
      2863.0094
  -3862954.58247  -3002088.12942  22958200.3684   22958200.8494
      4555.0384
  -8308588.89549  -6472814.22746  20101567.1574   20101565.3964
      2018.3034
   6415877.43847   4989659.39842  22385815.2284   22385812.2044
     -1992.0694
 04  9  9 21 52 59.9970000  0  8G19G 3G 8G13G10G28G27G23
 -10802588.16447  -8412609.91444  22050962.9464   22050959.5604
      2887.4264
  -5760760.20347  -4477068.11343  22264402.7904   22264402.0214
       511.1204
 -13334980.59049 -10382020.62545  20748342.9314   20748341.8964
      3250.0704
  -2394159.80549  -1865684.80546  19825924.5564   19825921.9894
      -143.3814
  -4433269.33645  -3444961.83242  22856346.2904   22856346.9934
      2855.6484
  -3931255.48847  -3055309.52042  22945203.4314   22945203.2674
      4553.3944
  -8338840.68749  -6496387.04746  20095810.4074   20095808.7004
      2016.7864
   6445794.16447   5012971.08643  22391508.6494   22391506.0244
     -1994.4484
 04  9  9 21 53 14.9970000  0  8G19G 3G 8G13G10G28G27G23
 -10845808.82047  -8446288.31644  22042738.4464   22042735.3214
      2881.3774
  -5768306.53547  -4482948.36743  22262966.2434   22262965.9584
       503.0894
 -13383704.51649 -10419987.30145  20739070.8604   20739070.1964
      3248.2624
  -2391912.82849  -1863933.92646  19826351.9934   19826349.6654
      -149.7984
  -4475993.03946  -3478253.01642  22848216.7514   22848216.8254
      2848.2474
  -3999531.19947  -3108511.30542  22932210.3924   22932210.1344
      4551.7144
  -8369069.35549  -6519941.84846  20090058.0484   20090056.3294
      2015.2454
   6475746.83247   5036310.76242  22397208.3684   22397205.7434
     -1996.8454
 04  9  9 21 53 29.9970000  0  8G19G 3G 8G13G10G28G27G23
 -10888940.55947  -8479897.43044  22034530.2744   22034526.9074
      2875.4494
  -5775734.26648  -4488736.21142  22261553.7124   22261552.8724
       495.1824
 -13432403.17249 -10457934.28945  20729803.8994   20729803.0954
      3246.5774
  -2389571.51249  -1862109.53146  19826797.5014   19826795.2354
      -156.0884
  -4518607.40246  -3511458.97342  22840107.0174   22840107.5994
      2840.9584
  -4067783.53547  -3161694.86342  22919222.6424   22919223.0014
      4550.1564
  -8399276.76249  -6543480.08246  20084309.9074   20084308.2434
      2013.8274
   6505733.29747   5059676.79742  22402914.0174   22402910.9784
     -1999.0984
 04  9  9 21 53 44.9970000  0  8G19G 3G 8G13G10G28G27G23
 -10931989.34448  -8513441.91844  22026338.5174   22026335.5094
      2869.9194
  -5783049.78947  -4494436.61343  22260161.1734   22260160.6104
       487.7024
 -13481082.55549 -10495866.26245  20720540.5244   20720539.8644
      3245.2924
  -2387142.22349  -1860216.58646  19827259.8534   19827257.5754
      -161.9534
  -4561118.50846  -3544584.51242  22832017.6344   22832017.8724
      2834.0744
  -4136018.55947  -3214864.92242  22906237.6424   22906238.7554
      4549.0024
  -8429469.22749  -6567006.67646  20078564.4704   20078562.5874
      2012.8314
   6535747.04747   5083064.10543  22408626.0564   22408623.6384
     -2000.9174
 04  9  9 21 53 59.9970000  0  8G19G 3G 8G13G10G28G27G23
 -10974949.07847  -8546917.00444  22018163.4784   22018160.4424
      2863.9824
  -5790247.23047  -4500045.03542  22258791.1264   22258790.6924
       479.8294
 -13529736.94949 -10533778.75445  20711282.0324   20711281.0054
      3243.6264
  -2384619.08249  -1858250.50446  19827740.1344   19827737.3994
      -168.2094
  -4603520.35946  -3577624.90242  22823950.0014   22823949.1464
      2826.7904
  -4204230.31646  -3268016.82442  22893257.3844   22893258.0834
      4547.4514
  -8459640.69949  -6590516.91046  20072822.6654   20072821.2944
      2011.4324
   6565793.85947   5106477.16043  22414343.4854   22414341.2824
     -2003.1214
 04  9  9 21 54 14.9970000  0  8G19G 3G 8G13G10G28G27G23
 -11017818.14147  -8580321.45344  22010005.6494   22010002.8764
      2857.9384
  -5797325.44548  -4505560.51642  22257444.2594   22257443.5754
       471.8814
 -13578365.07449 -10571670.78945  20702028.1424   20702027.2594
      3241.8754
  -2382000.96949  -1856210.42646  19828237.8134   19828236.0244
      -174.5414
  -4645811.52045  -3610579.01642  22815901.6034   22815901.9464
      2819.4114
  -4272417.21147  -3321149.41042  22880281.3454   22880281.6694
      4545.7934
  -8489789.87549  -6614009.77746  20067085.8214   20067084.0994
      2009.9454
   6595874.72347   5129916.72343  22420067.7674   22420065.8414
     -2005.3914
 04  9  9 21 54 29.9970000  0  8G19G 3G 8G13G10G28G27G23
 -11060600.23047  -8613658.11344  22001864.5564   22001861.8494
      2852.1394
  -5804288.49248  -4510986.27342  22256119.2514   22256119.4934
       464.2034
 -13626970.75449 -10609545.32445  20692779.4854   20692777.9034
      3240.3794
  -2379291.90649  -1854099.48446  19828753.4314   19828751.3214
      -180.6044
  -4687995.75846  -3643449.83242  22807874.0714   22807874.2084
      2812.2834
  -4340583.04347  -3374265.54742  22867310.2824   22867309.9704
      4544.3894
  -8519920.87149  -6637488.46546  20061352.1034   20061350.2204
      2008.7334
   6625985.35547   5153379.52343  22425797.6104   22425795.3884
     -2007.3764
 04  9  9 21 54 44.9970000  0  8G19G 3G 8G13G10G28G27G23
 -11103294.71947  -8646926.52344  21993739.8604   21993736.8294
      2846.2994
  -5811136.10248  -4516322.06642  22254816.7354   22254815.7044
       456.5074
 -13675553.31649 -10647401.85545  20683534.2284   20683533.4074
      3238.8384
  -2376491.61749  -1851917.44546  19829286.3844   19829284.4464
      -186.6864
  -4730072.58245  -3676236.96542  22799867.2904   22799866.5174
      2805.1224
  -4408727.21947  -3427364.85542  22854343.0714   22854343.1694
      4542.9454
  -8550033.13349  -6660952.57046  20055621.9074   20055619.7084
      2007.4844
   6656126.01647   5176865.68843  22431533.0794   22431531.0214
     -2009.3774
 04  9  9 21 54 59.9970000  0  8G19G 3G 8G13G10G28G27G23
 -11145902.58248  -8680127.42244  21985631.2824   21985629.1814
      2840.5244
  -5817869.60948  -4521568.96542  22253535.6734   22253533.9744
       448.9014
 -13724114.30149 -10685241.57445  20674293.5174   20674291.8064
      3237.3994
  -2373601.22349  -1849665.21146  19829836.6264   19829834.0994
      -192.6934
  -4772043.17647  -3708941.31242  22791880.2204   22791879.9154
      2798.0404
  -4476851.01246  -3480448.23042  22841378.7514   22841379.7634
      4541.5864
  -8580128.03949  -6684403.14146  20049894.9544   20049893.0324
      2006.3274
   6686295.23047   5200374.11343  22437274.4854   22437272.1144
     -2011.2814
 04  9  9 21 55 14.9970000  0  8G19G 3G 8G13G10G28G27G23
 -11188422.76648  -8713260.00044  21977540.7124   21977537.7784
      2834.6794
  -5824488.22748  -4526726.33643  22252275.2744   22252275.3454
       441.2414
 -13772652.99649 -10723063.91445  20665056.9074   20665055.4624
      3235.9134
  -2370620.06649  -1847342.25046  19830403.9854   19830401.7244
      -198.7444
  -4813906.46546  -3741562.04742  22783914.3134   22783913.6814
      2790.8864
  -4544953.24647  -3533514.82042  22828420.0404   22828419.7474
      4540.1494
  -8610204.63349  -6707839.44146  20044171.5014   20044169.7784
      2005.1064
   6716493.63347   5223905.30143  22443020.5174   22443018.0484
     -2013.2274
 04  9  9 21 55 29.9970000  0  8G19G 3G 8G13G10G28G27G23
 -11230858.93047  -8746327.12544  21969465.2904   21969462.3294
      2829.0784
  -5830996.03148  -4531797.36743  22251037.3604   22251036.7044
       433.8544
 -13821173.14549 -10760871.81645  20655823.5714   20655821.9974
      3234.6774
  -2367552.20349  -1844951.72346  19830987.5874   19830985.2784
      -204.5244
  -4855666.31646  -3774102.16842  22775967.8924   22775967.5054
      2783.9904
  -4613037.77347  -3586567.62142  22815462.9544   22815463.5244
      4538.9684
  -8640266.94549  -6731264.61746  20038450.7284   20038449.1344
      2004.1544
   6746717.03547   5247455.95343  22448772.7204   22448769.7354
     -2014.8934
 04  9  9 21 55 44.9970000  0  8G19G 3G 8G13G10G28G27G23
 -11273210.09447  -8779328.00844  21961406.1264   21961403.3254
      2823.4114
  -5837392.48047  -4536781.59843  22249820.0404   22249819.3024
       426.4304
 -13869673.95749 -10798664.64845  20646594.1734   20646592.8684
      3233.3874
  -2364397.10549  -1842493.21146  19831587.9314   19831585.8924
      -210.3404
  -4897321.77346  -3806560.95742  22768040.8134   22768040.1614
      2777.0304
  -4681103.73847  -3639605.93742  22802511.4624   22802510.8134
      4537.7314
  -8670314.19549  -6754678.05546  20032733.4154   20032731.4784
      2003.1504
   6776965.94147   5271026.48043  22454529.1494   22454526.5284
     -2016.5944
 04  9  9 21 55 59.9970000  0  8G19G 3G 8G13G10G28G27G23
 -11315475.75047  -8812262.26644  21953363.3534   21953360.2634
      2817.7104
  -5843677.31648  -4541678.90643  22248624.0484   22248622.8064
       418.9894
 -13918155.14849 -10836442.18745  20637368.7204   20637367.1534
      3232.0794
  -2361154.47749  -1839966.50446  19832205.1034   19832202.6964
      -216.1754
  -4938872.43746  -3838938.06642  22760133.7594   22760133.8494
      2770.0444
  -4749150.56647  -3692629.41042  22789562.9234   22789561.4354
      4536.4554
  -8700346.03149  -6778079.48446  20027018.1964   20027016.5484
      2002.1224
   6807240.44547   5294616.94543  22460289.1964   22460287.7124
     -2018.3004
 04  9  9 21 56 14.9970000  0  8G19G 3G 8G13G10G28G27G23
 -11357656.30547  -8845130.19944  21945336.2354   21945333.6104
      2812.0374
  -5849851.28948  -4546489.77343  22247449.2204   22247448.6854
       411.5984
 -13966617.35949 -10874204.93745  20628146.5634   20628144.9784
      3230.8144
  -2357824.90649  -1837372.03946  19832838.6424   19832836.6224
      -221.9714
  -4980318.83646  -3871233.96942  22752246.9074   22752247.1144
      2763.0934
  -4817178.92247  -3745638.42242  22776616.9074   22776616.6574
      4535.2244
  -8730363.22749  -6801469.49646  20021305.9154   20021304.2284
      2001.1464
   6837539.60547   5318226.62943  22466055.5014   22466053.3064
     -2019.9444
 04  9  9 21 56 29.9970000  0  8G19G 3G 8G13G10G28G27G23
 -11399754.60948  -8877934.04744  21937325.6734   21937322.4784
      2806.5544
  -5855917.60548  -4551216.77743  22246295.0094   22246294.5444
       404.4214
 -14015063.53949 -10911955.18445  20618927.2514   20618926.1494
      3229.7454
  -2354411.68749  -1834712.39846  19833488.1264   19833486.2044
      -227.5484
  -5021663.86346  -3903450.85242  22744379.3994   22744378.8534
      2756.3354
  -4885191.58248  -3798635.25842  22763674.5324   22763674.0094
      4534.1774
  -8760368.68749  -6824850.37146  20015596.4544   20015594.4854
      2000.3644
   6867860.01647   5341852.87943  22471824.9854   22471822.7434
     -2021.3614
 04  9  9 21 56 44.9970000  0  8G19G 3G 8G13G10G28G27G23
 -11441766.62548  -8910670.64844  21929330.3924   21929327.7714
      2800.8014
  -5861872.46148  -4555856.93043  22245161.6574   22245161.3684
       396.9904
 -14063489.85549 -10949689.96545  20609712.0484   20609711.0874
      3228.4214
  -2350911.10549  -1831984.68446  19834154.3134   19834152.3604
      -233.3724
  -5062903.58246  -3935585.67242  22736530.8924   22736531.5444
      2749.3154
  -4953184.66847  -3851616.76642  22750735.5794   22750735.6494
      4532.8724
  -8790358.66049  -6848219.18046  20009889.3924   20009887.5994
      1999.3324
   6898205.33647   5365498.53143  22477599.6034   22477597.5134
     -2023.0214
 04  9  9 21 56 59.9970000  0  8G19G 3G 8G13G10G28G27G23
 -11483695.30147  -8943342.33244  21921352.1034   21921348.7044
      2795.2454
  -5867719.30947  -4560412.91843  22244049.0794   22244048.4624
       389.7904
 -14111899.54749 -10987411.78545  20600499.9464   20600498.7594
      3227.3134
  -2347326.41449  -1829191.41846  19834836.5404   19834834.2514
      -238.9794
  -5104041.03946  -3967640.82042  22728703.4704   22728703.4504
      2742.4974
  -5021161.13748  -3904585.44142  22737800.3604   22737798.7984
      4531.7654
  -8820336.46949  -6871578.50846  20004184.7594   20004183.2984
      1998.5214
   6928572.13747   5389160.90643  22483378.6034   22483376.4504
     -2024.4534
 04  9  9 21 57 14.9970000  0  8G19G 3G 8G13G10G28G27G23
 -11525541.29347  -8975949.57844  21913388.8214   21913385.8414
      2789.7334
  -5873459.12148  -4564885.51243  22242957.2124   22242956.6614
       382.6544
 -14160293.72349 -11025121.51645  20591291.0404   20591289.5754
      3226.2784
  -2343658.73049  -1826333.50846  19835534.6494   19835532.3064
      -244.5124
  -5145077.07046  -3999616.94142  22720894.2904   22720894.5214
      2735.7354
  -5089121.90648  -3957541.82842  22724867.7204   22724866.6464
      4530.7184
  -8850302.85249  -6894928.93446  19998482.3924   19998480.6884
      1997.7594
   6958959.38347   5412839.23443  22489160.4234   22489158.7984
     -2025.8164
 04  9  9 21 57 29.9970000  0  8G19G 3G 8G13G10G28G27G23
 -11567300.25447  -9008489.00044  21905442.4234   21905439.5674
      2783.9314
  -5879087.99648  -4569271.66443  22241885.5954   22241885.2244
       375.2584
 -14208667.96549 -11062815.71945  20582085.3844   20582084.1104
      3224.9494
  -2339903.92649  -1823407.69546  19836249.2044   19836247.3334
      -250.3204
  -5186007.35946  -4031510.64842  22713105.2204   22713105.2594
      2728.6864
  -5157062.35948  -4010482.39842  22711939.1344   22711938.7474
      4529.3644
  -8880253.75849  -6918267.29746  19992783.0244   19992781.0404
      1996.7274
   6989370.97347   5436536.52742  22494947.7044   22494946.1774
     -2027.4394
 04  9  9 21 57 44.9970000  0  8G19G 3G 8G13G10G28G27G23
 -11608972.43047  -9040960.81244  21897512.3994   21897509.6144
      2778.1454
  -5884606.61348  -4573571.89143  22240835.6104   22240835.2674
       367.9084
 -14257022.82849 -11100494.82845  20572884.1344   20572882.6224
      3223.6584
  -2336062.75449  -1820414.58246  19836980.0714   19836978.0134
      -256.0784
  -5226832.45746  -4063322.39542  22705336.7984   22705336.9624
      2721.6734
  -5224983.23448  -4063407.68442  22699013.5714   22699012.8564
      4528.0584
  -8910189.64549  -6941593.96146  19987086.3844   19987084.6734
      1995.7264
   7019806.11347   5460252.16443  22500739.8454   22500737.3024
     -2029.0094
 04  9  9 21 57 59.9970000  0  8G19G 3G 8G13G10G28G27G23
 -11650559.08247  -9073365.96944  21889598.4464   21889595.8334
      2772.4434
  -5890016.48848  -4577787.38343  22239806.8064   22239805.4194
       360.6584
 -14305359.94549 -11138160.10245  20563686.0014   20563684.4504
      3222.4744
  -2332136.42249  -1817355.11346  19837727.3064   19837725.3724
      -261.7554
  -5267553.59445  -4095053.14142  22697587.5484   22697587.0364
      2714.7424
  -5292885.47748  -4116318.48442  22686092.7674   22686091.7634
      4526.8164
  -8940111.98449  -6964910.07046  19981392.0244   19981390.1924
      1994.8234
   7050263.05547   5483984.80142  22506535.5094   22506533.1814
     -2030.4634
 04  9  9 21 58 14.9970000  0  8G19G 3G 8G13G10G28G27G23
 -11692057.98447  -9105702.75444  21881702.0564   21881698.7714
      2766.5934
  -5895315.63748  -4581916.58643  22238797.8994   22238797.1924
       353.2774
 -14353676.96949 -11175809.71945  20554491.7434   20554490.4424
      3221.1354
  -2328123.08249  -1814227.84846  19838491.0324   19838488.6774
      -267.5564
  -5308168.59845  -4126701.17242  22689858.3294   22689858.4974
      2707.6674
  -5360767.04348  -4169213.15242  22673175.0484   22673174.3764
      4525.4384
  -8970018.72749  -6988214.02046  19975701.3994   19975699.4194
      1993.7834
   7080743.60546   5507735.80942  22512335.8374   22512333.7744
     -2032.0374
 04  9  9 21 58 29.9970000  0  8G19G 3G 8G13G10G28G27G23
 -11733471.60547  -9137973.08644  21873821.2284   21873817.8644
      2760.9084
  -5900507.05548  -4585961.85242  22237809.6034   22237809.2084
       346.0954
 -14401976.70749 -11213445.86745  20545299.8534   20545298.7904
      3219.9834
  -2324025.73849  -1811035.12546  19839270.8454   19839268.4234
      -273.1564
  -5348680.00446  -4158268.48442  22682149.6734   22682149.6034
      2700.7604
  -5428630.65247  -4222093.84842  22660261.1344   22660258.9624
      4524.2414
  -8999912.62149  -7011507.96146  19970012.6884   19970011.0674
      1992.9264
   7111244.78947   5531502.91442  22518139.8294   22518138.1774
     -2033.4124
 04  9  9 21 58 44.9970000  0  8G19G 3G 8G13G10G28G27G23
 -11774799.46547  -9170176.58244  21865956.2204   21865953.7474
      2755.1914
  -5905590.54747  -4589923.02343  22236842.5404   22236841.9934
       338.8994
 -14450258.88349 -11251068.33645  20536112.2674   20536111.0874
      3218.8124
  -2319844.29349  -1807776.86746  19840066.3134   19840064.3724
      -278.7634
  -5389087.56647  -4189754.88742  22674460.9234   22674460.4234
      2693.8384
  -5496475.87147  -4274960.18742  22647349.8684   22647349.7554
      4523.0154
  -9029793.44949  -7034791.71946  19964326.4704   19964324.6924
      1992.0554
   7141766.54347   5555286.02343  22523949.0484   22523945.5404
     -2034.7844
 04  9  9 21 58 59.9970000  0  8G19G 3G 8G13G10G28G27G23
 -11816038.41447  -9202310.81644  21858108.9384   21858106.0954
      2749.2634
  -5910563.25048  -4593797.87543  22235895.8994   22235895.3764
       331.5144
 -14498520.50449 -11288674.77345  20526928.6734   20526927.3534
      3217.4414
  -2315575.66049  -1804450.67646  19840878.5564   19840876.4154
      -284.5764
  -5429388.18447  -4221157.95342  22666792.1494   22666791.5174
      2686.7084
  -5564299.46948  -4327809.70742  22634444.3134   22634442.8604
      4521.5734
  -9059658.28549  -7058063.02046  19958643.3134   19958641.3454
      1990.9894
   7172311.71546   5579087.42242  22529760.9384   22529758.2474
     -2036.3454
 04  9  9 21 59 14.9970000  0  8G19G 3G 8G13G10G28G27G23
 -11857192.32047  -9234378.77044  21850277.6884   21850274.7084
      2743.5944
  -5915429.39848  -4597589.68743  22234970.2904   22234969.3994
       324.4104
 -14546765.88349 -11326268.55945  20517747.7044   20517746.5634
      3216.3594
  -2311224.21949  -1801059.95346  19841706.8214   19841704.4894
      -290.0964
  -5469585.94546  -4252480.87542  22659142.3454   22659142.2244
      2679.8514
  -5632105.62147  -4380645.62542  22621540.7204   22621538.9544
      4520.4104
  -9089511.12149  -7081324.96146  19952962.7204   19952960.8924
      1990.1894
   7202875.90247   5602903.62542  22535577.0954   22535574.5524
     -2037.6124
 04  9  9 21 59 29.9970000  0  8G19G 3G 8G13G10G28G27G23
 -11898257.84047  -9266377.85244  21842463.2204   21842460.1384
      2737.7014
  -5920185.95348  -4601296.09443  22234064.9624   22234064.5874
       317.1044
 -14594991.46949 -11363846.92645  20508570.7124   20508569.4234
      3215.0394
  -2306786.86749  -1797602.29746  19842551.2124   19842549.2864
      -295.8234
  -5509677.50447  -4283721.03542  22651513.0954   22651512.4894
      2672.7714
  -5699890.77047  -4433465.18042  22608641.7434   22608641.1734
      4519.0104
  -9119348.87549  -7104575.15646  19947284.6034   19947282.9034
      1989.1844
   7233461.92647   5626736.83642  22541397.3134   22541395.7004
     -2039.0684
 04  9  9 21 59 44.9970000  0  8G19G 3G 8G13G10G28G27G23
 -11939238.87947  -9298311.09044  21834664.6814   21834661.9234
      2732.0694
  -5924837.22348  -4604920.45742  22233179.8684   22233179.2044
       310.0854
 -14643201.58649 -11401413.23845  20499396.5174   20499395.6034
      3214.0084
  -2302267.82849  -1794080.97346  19843411.0954   19843409.0524
      -301.2694
  -5549666.82046  -4314881.53142  22643903.2904   22643902.9234
      2665.9544
  -5767658.95347  -4486271.47742  22595745.2744   22595744.9504
      4517.8794
  -9149175.64149  -7127816.78946  19941608.8064   19941606.9314
      1988.4514
   7264065.53546   5650583.73442  22547221.5094   22547218.8924
     -2040.2414
 04  9  9 21 59 59.9970000  0  8G19G 3G 8G13G10G28G27G23
 -11980133.90647  -9330177.32844  21826882.6494   21826879.8604
      2726.3354
  -5929382.04347  -4608461.89842  22232315.2514   22232314.5174
       302.9884
 -14691395.10549 -11438966.61745  20490225.9624   20490224.4504
      3212.9014
  -2297665.98849  -1790495.14546  19844286.8294   19844284.8724
      -306.7894
  -5589552.51647  -4345961.27742  22636313.2514   22636312.8414
      2659.0464
  -5835408.86347  -4539063.54842  22582853.2204   22582852.4664
      4516.6614
  -9178990.12149  -7151048.84446  19935935.5174   19935933.5284
      1987.6324
   7294687.78947   5674445.17242  22553048.9784   22553046.1924
     -2041.4844
 04  9  9 22  0 14.9970000  0  8G19G 3G 8G13G10G28G27G23
 -12020941.95348  -9361975.78144  21819117.3684   21819113.7244
      2720.5364
  -5933819.82847  -4611919.92642  22231470.0174   22231470.2434
       295.8524
 -14739570.99249 -11476506.26645  20481058.4934   20481056.9854
      3211.7264
  -2292980.65249  -1786844.24246  19845178.3534   19845175.9034
      -312.3564
  -5629333.74646  -4376959.62542  22628743.1264   22628742.9704
      2652.0824
  -5903139.60546  -4591840.71542  22569964.2984   22569963.9504
      4515.3834
  -9208791.59849  -7174270.77046  19930264.1814   19930262.1424
      1986.7654
   7325329.02046   5698321.41043  22558879.2204   22558877.5094
     -2042.7494
 04  9  9 22  0 29.9970000  0  8G19G 3G 8G13G10G28G27G23
 -12061663.33648  -9393706.70344  21811367.6424   21811365.2204
      2714.7594
  -5938151.26647  -4615295.05543  22230645.6424   22230645.9034
       288.7634
 -14787729.85249 -11514032.63745  20471893.8374   20471892.5914
      3210.5914
  -2288212.60949  -1783128.89846  19846085.8134   19846083.7244
      -317.8704
  -5669010.93447  -4407876.90242  22621192.7824   22621192.6264
      2645.1464
  -5970851.42647  -4644603.12542  22557079.5634   22557078.3414
      4514.1214
  -9238580.64149  -7197483.00846  19924595.4544   19924593.4034
      1985.9364
   7355988.73447   5722212.03142  22564714.2744   22564711.4034
     -2043.9814
 04  9  9 22  0 44.9970000  0  8G19G 3G 8G13G10G28G27G23
 -12102292.03947  -9425365.41044  21803636.4314   21803633.2394
      2708.5804
  -5942370.71147  -4618582.95342  22229843.2354   22229842.4934
       281.2964
 -14835865.86349 -11551541.21145  20462733.8294   20462732.6464
      3209.0674
  -2283356.10249  -1779344.62946  19847010.0634   19847007.6264
      -323.7674
  -5708578.30947  -4438708.58242  22613663.2044   22613663.2124
      2637.8254
  -6038538.45347  -4697346.19942  22544198.3994   22544198.7044
      4512.4684
  -9268351.25049  -7220680.88346  19918930.3684   19918928.4354
      1984.7074
   7386672.37547   5746121.31642  22570552.5404   22570550.1384
     -2045.5764
 04  9  9 22  0 59.9970000  0  8G19G 3G 8G13G10G28G27G23
 -12142832.99248  -9456955.74644  21795921.8924   21795918.8534
      2702.7304
  -5946483.39147  -4621787.64542  22229060.7044   22229060.1344
       274.1794
 -14883983.96549 -11589035.81245  20453577.0794   20453576.1534
      3207.8734
  -2278416.24649  -1775495.40646  19847950.1184   19847947.5714
      -329.3244
  -5748040.79347  -4469458.59042  22606154.2674   22606153.3564
      2630.8324
  -6106205.68447  -4750073.86742  22531322.5094   22531320.9034
      4511.1494
  -9298108.77749  -7243868.56646  19913267.5324   19913265.6104
      1983.8354
   7417374.49247   5770045.01242  22576395.0324   22576392.4314
     -2046.8084
 04  9  9 22  1 14.9970000  0  8G19G 3G 8G13G10G28G27G23
 -12183283.28947  -9488475.43744  21788223.8294   21788221.5634
      2696.6864
  -5950486.96947  -4624907.32442  22228298.9234   22228298.1614
       266.9054
 -14932081.86349 -11626514.68446  20444424.5794   20444423.4234
      3206.5274
  -2273390.59049  -1771579.32446  19848906.3924   19848904.2984
      -335.0444
  -5787395.68747  -4500124.70742  22598664.1574   22598664.3294
      2623.6604
  -6173850.37547  -4802783.98842  22518449.6814   22518448.6384
      4509.6464
  -9327850.57449  -7267043.99246  19907607.9314   19907606.0954
      1982.7864
   7448097.42247   5793984.89842  22582241.3454   22582239.6614
     -2048.1954
 04  9  9 22  1 29.9970000  0  8G19G 3G 8G13G10G28G27G23
 -12223645.64147  -9519926.58644  21780544.0014   21780540.7674
      2690.8234
  -5954384.47347  -4627944.34842  22227556.8844   22227556.1034
       259.8344
 -14980162.21149 -11663979.87546  20435275.0714   20435273.8564
      3205.3574
  -2268282.09849  -1767598.69546  19849878.3924   19849876.2744
      -340.5664
  -5826645.71547  -4530709.11342  22591195.5634   22591195.5794
      2616.6684
  -6241475.18747  -4855478.59443  22505581.2984   22505581.2824
      4508.3214
  -9357579.55949  -7290209.43046  19901950.6814   19901948.4814
      1981.9324
   7478838.00847   5817938.56342  22588091.7434   22588088.5954
     -2049.3724
 04  9  9 22  1 44.9970000  0  8G19G 3G 8G13G10G28G27G23
 -12263917.71547  -9551307.40644  21772880.0564   21772877.1304
      2684.8054
  -5958173.81647  -4630897.09042  22226835.8604   22226835.6884
       252.6234
 -15028222.72749 -11701429.61746  20426129.2594   20426128.4704
      3204.0344
  -2263088.69149  -1763551.90646  19850866.8844   19850864.6964
      -346.2274
  -5865788.66847  -4561210.11342  22583746.2514   22583746.7824
      2609.5304
  -6309077.89848  -4908155.94543  22492717.0094   22492716.2594
      4506.8474
  -9387293.36749  -7313363.03946  19896296.4704   19896294.4934
      1980.9214
   7509598.37146   5841907.59042  22593944.6814   22593943.6264
     -2050.6914
 04  9  9 22  1 59.9970000  0  8G19G 3G 8G13G10G28G27G23
 -12304100.53147  -9582618.66444  21765233.8374   21765231.0364
      2678.8544
  -5961856.23047  -4633766.52042  22226135.7434   22226135.1304
       245.4944
 -15076264.81249 -11738865.00045  20416987.4624   20416986.2594
      3202.8064
  -2257811.82849  -1759440.07446  19851870.9544   19851868.5364
      -351.7914
  -5904825.58246  -4591628.48042  22576319.0564   22576318.3994
      2602.4614
  -6376659.39848  -4960816.84442  22479856.4464   22479855.8494
      4505.4334
  -9416993.28549  -7336505.83246  19890644.5324   19890642.9744
      1979.9954
   7540377.02347   5865890.91042  22599802.1494   22599800.2044
     -2051.9104
 04  9  9 22  2 14.9970000  0  8G19G 3G 8G13G10G28G27G23
 -12344193.52047  -9613859.94544  21757603.7824   21757601.1344
      2672.8664
  -5965431.48047  -4636552.44542  22225455.0324   22225454.6184
       238.3504
 -15124287.92649 -11776285.59446  20407848.8534   20407847.7984
      3201.5414
  -2252451.14849  -1755262.93746  19852890.8374   19852888.6534
      -357.3794
  -5943755.94946  -4621963.81642  22568910.2904   22568909.7594
      2595.3584
  -6444219.30148  -5013460.84042  22467000.7044   22466999.8374
      4503.9934
  -9446678.86349  -7359637.44946  19884995.6034   19884993.9114
      1979.0394
   7571174.04747   5889888.53542  22605662.3214   22605660.3764
     -2053.1354
 04  9  9 22  2 29.9970000  0  8G19G 3G 8G13G10G28G27G23
 -12384194.50448  -9645029.52044  21749992.3604   21749988.9624
      2666.7324
  -5968897.99647  -4639253.62943  22224795.5954   22224794.7554
       231.1014
 -15172290.27349 -11813690.00846  20398714.2824   20398713.3644
      3200.1574
  -2247004.89549  -1751019.11746  19853927.0794   19853925.0284
      -363.0844
  -5982577.81247  -4652214.61742  22561523.2674   22561522.3644
      2588.1244
  -6511755.52048  -5066086.45343  22454148.9854   22454147.3564
      4502.4154
  -9476348.30149  -7382756.48846  19879349.8684   19879347.9974
      1977.9634
   7601991.10547   5913901.78542  22611526.4854   22611523.9234
     -2054.4714
 04  9  9 22  2 44.9970000  0  8G19G 3G 8G13G10G28G27G23
 -12424105.98448  -9676129.35544  21742397.4384   21742394.0954
      2660.7654
  -5972258.67247  -4641872.34842  22224155.9784   22224155.6694
       224.0454
 -15220274.46949 -11851080.28145  20389583.0324   20389581.7944
      3198.9464
  -2241475.96549  -1746710.87946  19854979.5324   19854977.4974
      -368.5954
  -6021293.89846  -4682382.96942  22554155.0174   22554154.8374
      2581.0724
  -6579270.71948  -5118695.65243  22441300.3374   22441300.7984
      4501.0134
  -9506004.23049  -7405865.00046  19873706.3994   19873704.5794
      1977.0624
   7632825.25447   5937928.33242  22617394.0484   22617392.2944
     -2055.6104
 04  9  9 22  2 59.9970000  0  8G19G 3G 8G13G10G28G27G23
 -12463927.67647  -9707159.22744  21734819.3374   21734816.9504
      2654.7794
  -5975513.54347  -4644408.62542  22223536.3764   22223536.2594
       216.9914
 -15268240.33249 -11888456.26646  20380455.9154   20380454.4664
      3197.7244
  -2235864.34049  -1742338.20346  19856047.5794   19856045.3764
      -374.1084
  -6059903.88346  -4712468.68742  22546808.1654   22546807.5834
      2573.9994
  -6646764.64548  -5171288.24243  22428457.0874   22428456.1424
      4499.5954
  -9535646.53549  -7428962.89546  19868065.6494   19868064.0564
      1976.1544
   7663676.27347   5961968.02342  22623265.2904   22623263.7984
     -2056.7354
 04  9  9 22  3 14.9970000  0  8G19G 3G 8G13G10G28G27G23
 -12503659.25047  -9738118.87144  21727258.9784   21727256.1344
      2648.7724
  -5978662.58247  -4646862.44142  22222937.4704   22222936.5954
       209.9364
 -15316187.79749 -11925817.91445  20371331.7514   20371330.2634
      3196.4984
  -2230170.03949  -1737901.09046  19857130.8294   19857128.8104
      -379.6204
  -6098407.66047  -4742471.60542  22539480.8844   22539480.3064
      2566.9184
  -6714236.93048  -5223864.01243  22415617.7514   22415616.6064
      4498.1524
  -9565275.15249  -7452050.12946  19862427.7204   19862425.8214
      1975.2414
   7694544.10947   5986020.83242  22629139.3534   22629136.9784
     -2057.8564
 04  9  9 22  3 29.9970000  0  8G19G 3G 8G13G10G28G27G23
 -12543301.93448  -9769009.26244  21719714.8454   21719711.9274
      2642.8464
  -5981707.39847  -4649235.02742  22222358.0324   22222357.2044
       202.9884
 -15364118.27049 -11963166.32045  20362210.4934   20362209.4034
      3195.3654
  -2224394.72749  -1733400.86746  19858229.9934   19858227.8414
      -385.0214
  -6136806.55146  -4772392.81642  22532173.7514   22532173.8604
      2559.9264
  -6781688.91848  -5276423.97743  22402782.2904   22402780.8994
      4496.7994
  -9594891.55949  -7475127.84846  19856791.6734   19856790.2004
      1974.4274
   7725427.05547   6010085.43442  22635016.5564   22635013.6774
     -2058.8634
 04  9  9 22  3 44.9970000  0  8G19G 3G 8G13G10G28G27G23
 -12582851.17248  -9799826.82444  21712189.2824   21712186.0794
      2636.6164
  -5984643.93047  -4651523.24642  22221799.5874   22221798.4744
       195.7694
 -15412027.33249 -12000498.05145  20353093.9464   20353092.8214
      3193.9384
  -2218534.03949  -1728834.10946  19859345.2984   19859342.9934
      -390.7124
  -6175096.18446  -4802228.87142  22524887.8994   22524887.2744
      2552.6424
  -6849116.23447  -5328964.68442  22389949.9074   22389949.7944
      4495.1544
  -9624491.37149  -7498192.62546  19851159.0014   19851157.3884
      1973.3214
   7756329.15247   6034164.93442  22640896.5094   22640895.1034
     -2060.1404
 04  9  9 22  3 59.9970000  0  8G19G 3G 8G13G10G28G27G23
 -12622312.59448  -9830575.97344  21704679.2594   21704676.5674
      2630.7614
  -5987478.06247  -4653731.66442  22221260.1574   22221258.8844
       188.9424
 -15459920.83649 -12037817.64845  20343979.6654   20343978.4384
      3192.9004
  -2212593.87549  -1724205.42246  19860475.6884   19860473.5874
      -396.0114
  -6213282.19946  -4831984.18042  22517621.2824   22517621.6774
      2545.7344
  -6916524.41448  -5381490.48442  22377123.8844   22377122.6494
      4493.8794
  -9654080.43749  -7521249.04346  19845528.4624   19845526.7434
      1972.6044
   7787244.27347   6058254.60243  22646778.8534   22646777.8334
     -2061.0084
 04  9  9 22  4 14.9970000  0  8G19G 3G 8G13G10G28G27G23
 -12661682.08248  -9861253.47344  21697188.2124   21697185.1424
      2624.6334
  -5990205.82847  -4655857.20342  22220740.8064   22220739.7864
       181.8514
 -15507794.64549 -12075121.90246  20334869.5794   20334868.4544
      3191.5874
  -2206570.40249  -1719511.81646  19861622.0874   19861619.7434
      -401.5654
  -6251360.42647  -4861655.54342  22510376.1264   22510374.7824
      2538.5484
  -6983909.30147  -5433998.14842  22364300.3134   22364299.5914
      4492.3264
  -9683654.60549  -7544293.84846  19839900.6964   19839898.8644
      1971.6114
   7818176.33247   6082357.43443  22652665.7984   22652664.0364
     -2062.1374
 04  9  9 22  4 29.9970000  0  8G19G 3G 8G13G10G28G27G23
 -12700962.34448  -9891861.45344  21689713.1424   21689710.0174
      2618.6844
  -5992830.45747  -4657902.38342  22220241.3214   22220240.2674
       174.9754
 -15555651.81649 -12112413.19945  20325762.8294   20325761.5834
      3190.4784
  -2200466.66049  -1714755.66846  19862783.3214   19862781.5174
      -406.9164
  -6289333.77347  -4891245.13342  22503148.9384   22503148.5014
      2531.5574
  -7051273.75847  -5486489.88342  22351480.7434   22351480.4584
      4490.9644
  -9713216.80149  -7567329.32046  19834275.1034   19834273.2594
      1970.8134
   7849122.01647   6106470.89543  22658554.7514   22658553.0564
     -2063.0464
 04  9  9 22  4 44.9970000  0  8G19G 3G 8G13G10G28G27G23
 -12740149.87948  -9922397.19144  21682256.2284   21682252.9314
      2612.5024
  -5995348.84047  -4659864.75042  22219761.6494   22219761.5404
       167.8924
 -15603489.31249 -12149689.16445  20316659.8994   20316658.4814
      3189.1664
  -2194279.58649  -1709934.58246  19863960.9854   19863958.5714
      -412.4724
  -6327199.01247  -4920750.49642  22495942.7984   22495943.0094
      2524.3494
  -7118614.48848  -5538963.12542  22338666.6494   22338665.3454
      4489.3824
  -9742763.94549  -7590353.06646  19828652.7744   19828650.9894
      1969.8104
   7880084.48047   6130597.41442  22664446.4544   22664445.3644
     -2064.1644
 04  9  9 22  4 59.9970000  0  8G19G 3G 8G13G10G28G27G23
 -12779240.39148  -9952857.31244  21674817.4544   21674814.6064
      2606.0344
  -5997757.05947  -4661741.29742  22219303.4624   22219303.2864
       160.5484
 -15651302.42249 -12186946.10545  20307560.9314   20307559.9354
      3187.5414
  -2188005.09449  -1705045.38746  19865154.7904   19865152.4274
      -418.2994
  -6364951.82447  -4950168.28942  22488759.3534   22488759.0174
      2516.8544
  -7185927.05547  -5591414.44542  22325857.3764   22325857.3104
      4487.5044
  -9772291.74249  -7613361.73446  19823033.6034   19823031.8334
      1968.5204
   7911067.64547   6154740.08242  22670342.0714   22670340.3764
     -2065.5444
 04  9  9 22  5 14.9970000  0  8G19G 3G 8G13G10G28G27G23
 -12818238.92247  -9983245.75444  21667396.4384   21667392.7784
      2599.9024
  -6000060.47347  -4663536.17243  22218865.5404   22218864.8604
       153.5614
 -15699096.82049 -12224188.48445  20298465.9074   20298465.0324
      3186.2934
  -2181648.60549  -1700092.30146  19866364.3294   19866362.3454
      -423.7664
  -6402597.43446  -4979502.51242  22481595.6104   22481595.3564
      2509.7074
  -7253216.63747  -5643847.80542  22313052.8214   22313052.1224
      4485.9724
  -9801805.47749  -7636359.44946  19817417.2354   19817415.3994
      1967.5824
   7942065.88346   6178894.48443  22676241.0174   22676239.5914
     -2066.5494
 04  9  9 22  5 29.9970000  0  8G19G 3G 8G13G10G28G27G23
 -12857146.03148 -10013562.97744  21659992.4624   21659989.0714
      2593.8074
  -6002260.03947  -4665250.12542  22218446.5634   22218445.8174
       146.6384
 -15746872.99249 -12261416.65245  20289374.9154   20289373.3134
      3185.0784
  -2175211.01249  -1695076.01246  19867589.0564   19867587.2004
      -429.1734
  -6440136.53946  -5008753.74642  22474451.9074   22474451.7284
      2502.6074
  -7320483.85547  -5696263.80142  22300251.1494   22300250.4504
      4484.4814
  -9831305.95349  -7659346.82846  19811803.6424   19811801.9274
      1966.6984
   7973078.05546   6203059.73842  22682142.7434   22682141.3024
     -2067.4784
 04  9  9 22  5 44.9970000  0  8G19G 3G 8G13G10G28G27G23
 -12895957.18448 -10043805.41044  21652606.8454   21652603.7784
      2587.4104
  -6004351.60547  -4666879.93742  22218048.5244   22218047.9814
       139.4384
 -15794626.66049 -12298627.28945  20280287.4704   20280286.0834
      3183.5784
  -2168688.15249  -1689993.28946  19868830.5174   19868828.8564
      -434.8574
  -6477564.58646  -5037918.43742  22467329.6184   22467328.6854
      2495.2034
  -7387724.18447  -5748658.76242  22287457.0794   22287456.5094
      4482.6894
  -9860788.67249  -7682320.37546  19806193.0094   19806191.3924
      1965.5154
   8004108.32446   6227239.12142  22688047.6034   22688046.0524
     -2068.6854
 04  9  9 22  5 59.9970000  0  8G19G 3G 8G13G10G28G27G23
 -12934669.76648 -10073971.05544  21645240.5174   21645236.9114
      2580.8394
  -6006332.80547  -4668423.72742  22217671.8924   22217671.1464
       132.0804
 -15842355.38749 -12335818.48846  20271205.0564   20271203.5484
      3181.9154
  -2162077.65649  -1684842.27046  19870088.7044   19870086.1614
      -440.7004
  -6514879.12547  -5066994.72342  22460229.2594   22460228.9384
      2487.6364
  -7454934.97747  -5801030.78142  22274666.8604   22274665.9624
      4480.7204
  -9890251.27349  -7705278.23446  19800586.8294   19800584.9664
      1964.1734
   8035159.07446   6251434.44942  22693956.2204   22693955.8604
     -2070.0504
 04  9  9 22  6 14.9970000  0  8G19G 3G 8G13G10G28G27G23
 -12973286.25048 -10104061.81244  21637891.7354   21637888.9154
      2574.4324
  -6008206.55947  -4669883.81242  22217315.2514   22217314.4234
       124.9174
 -15890061.75849 -12372992.27046  20262127.0794   20262125.5014
      3180.4254
  -2155382.33249  -1679625.16046  19871362.5794   19871360.7314
      -446.3554
  -6552082.82847  -5095984.60242  22453149.4934   22453148.9114
      2480.2474
  -7522118.94948  -5853381.86343  22261882.5174   22261882.0284
      4478.9324
  -9919696.40649  -7728222.49246  19794983.5564   19794981.9744
      1963.0094
   8066227.36346   6275643.44142  22699868.2204   22699867.4504
     -2071.2194
 04  9  9 22  6 29.9970000  0  8G19G 3G 8G13G10G28G27G23
 -13011804.44947 -10134075.97344  21630562.3454   21630558.6534
      2567.8804
  -6009971.00047  -4671258.68442  22216979.7674   22216978.4384
       117.6294
 -15937743.69949 -12410147.02046  20253053.0174   20253052.0604
      3178.7964
  -2148600.29749  -1674340.47346  19872653.3534   19872650.9234
      -452.1364
  -6589173.53147  -5124886.43442  22446091.5094   22446090.5444
      2472.7144
  -7589273.89547  -5905710.32842  22249102.6884   22249101.9384
      4476.9964
  -9949122.07449  -7751151.57846  19789383.8764   19789382.1814
      1961.7114
   8097314.77746   6299867.30542  22705784.7124   22705782.9664
     -2072.4944
 04  9  9 22  6 44.9970000  0  8G19G 3G 8G13G10G28G27G23
 -13050222.10948 -10164011.80144  21623251.1574   21623247.8134
      2561.1774
  -6011624.25847  -4672546.95342  22216664.9784   22216664.3924
       110.2174
 -15985399.37949 -12447281.31246  20243984.5324   20243983.3964
      3177.0454
  -2141729.73449  -1668986.80546  19873960.6264   19873958.4704
      -458.0374
  -6626149.18747  -5153698.63342  22439054.9234   22439055.3414
      2465.0444
  -7656397.61747  -5958014.49643  22236329.4704   22236329.3964
      4474.9154
  -9978526.25849  -7774063.92646  19783788.5244   19783786.7714
      1960.2794
   8128423.15646   6324107.55542  22711704.2284   22711702.7984
     -2073.8924
 04  9  9 22  6 59.9970000  0  8G19G 3G 8G13G10G28G27G23
 -13088534.89848 -10193865.90244  21615960.5404   21615957.3884
      2554.1864
  -6013162.32047  -4673745.44542  22216372.5564   22216371.7204
       102.5374
 -16033024.43049 -12484391.72746  20234921.7904   20234920.4584
      3175.0034
  -2134766.41449  -1663560.86346  19875286.0014   19875284.0094
      -464.2214
  -6663005.50447  -5182417.83242  22432041.1494   22432040.8064
      2457.0884
  -7723485.85547  -6010290.96942  22223563.2354   22223562.8104
      4472.5494
 -10007904.58649  -7796956.12546  19778198.0094   19778196.0094
      1958.5554
   8159556.55947   6348367.26643  22717628.9624   22717627.3884
     -2075.5604
 04  9  9 22  7 14.9970000  0  8G19G 3G 8G13G10G28G27G23
 -13126744.84047 -10223639.87544  21608689.3604   21608686.2674
      2547.3294
  -6014587.78947  -4674856.19942  22216101.2514   22216100.0054
        95.0314
 -16080621.07849 -12521480.01246  20225864.2354   20225862.8374
      3173.1104
  -2127712.86749  -1658064.60246  19876627.9784   19876626.1534
      -470.2364
  -6699744.63747  -5211045.72742  22425050.1814   22425049.0634
      2449.2764
  -7790540.60947  -6062541.39143  22210803.0874   22210802.3374
      4470.3174
 -10037259.50849  -7819830.09446  19772611.9624   19772609.8994
      1956.9954
   8190712.39547   6372644.51242  22723557.6344   22723555.6304
     -2077.0564
 04  9  9 22  7 29.9970000  0  8G19G 3G 8G13G10G28G27G23
 -13164846.60548 -10253329.54744  21601438.1574   21601435.7244
      2540.1184
  -6015895.49647  -4675875.21942  22215852.6884   22215851.8104
        87.1804
 -16128184.15249 -12558542.13745  20216813.2284   20216812.3414
      3170.8724
  -2120564.03949  -1652494.10946  19877988.1884   19877986.4354
      -476.5894
  -6736361.39846  -5239578.26242  22418082.5874   22418081.7474
      2441.1174
  -7857556.68447  -6114761.64143  22198050.3534   22198050.0954
      4467.7384
 -10066585.68449  -7842681.64846  19767031.1574   19767029.4234
      1955.0784
   8221895.57046   6396943.02742  22729491.4464   22729490.2744
     -2078.8784
 04  9  9 22  7 44.9970000  0  8G19G 3G 8G13G10G28G27G23
 -13202844.19547 -10282938.03944  21594208.0094   21594204.7984
      2533.1734
  -6017089.96147  -4676805.96542  22215625.0954   22215624.5364
        79.6314
 -16175717.68049 -12595581.23045  20207767.9704   20207766.5174
      3168.9024
  -2113324.20749  -1646852.68746  19879366.5954   19879363.8454
      -482.6554
  -6772859.80546  -5268018.55542  22411136.7904   22411136.1384
      2433.2274
  -7924538.04347  -6166954.84443  22185303.8844   22185303.5094
      4465.4244
 -10095887.42649  -7865514.17646  19761455.2984   19761453.8214
      1953.4494
   8253101.51647   6421259.27742  22735430.2984   22735428.7004
     -2080.3964
 04  9  9 22  7 59.9970000  0  8G19G 3G 8G13G10G28G27G23
 -13240733.70748 -10312462.31244  21586997.7354   21586994.2784
      2525.9674
  -6018167.47347  -4677645.57043  22215419.5634   22215419.5244
        71.8344
 -16223218.00849 -12632594.46545  20198728.8994   20198727.6224
      3166.6894
  -2105989.66849  -1641137.48046  19880761.9704   19880759.6034
      -488.9694
  -6809236.04347  -5296363.67242  22404214.8604   22404214.0054
      2425.0834
  -7991480.80147  -6219117.98843  22172566.0404   22172565.5954
      4462.8514
 -10125160.83649  -7888324.62146  19755884.7434   19755883.0994
      1951.5614
   8284333.89147   6445596.11342  22741372.7824   22741371.7904
     -2082.1584
 04  9  9 22  8 14.9970000  0  8G19G 3G 8G13G10G28G27G23
 -13278518.43748 -10341904.93744  21579807.9384   21579804.5874
      2518.9824
  -6019131.85247  -4678397.04742  22215236.2124   22215235.6304
        64.2924
 -16270688.57849 -12669584.51645  20189695.8684   20189694.3254
      3164.7054
  -2098564.19949  -1635351.42246  19882175.0484   19882173.1144
      -495.0314
  -6845493.70746  -5324616.39142  22397315.3924   22397315.0994
      2417.1784
  -8058388.41847  -6271253.73443  22159833.1494   22159832.7984
      4460.5084
 -10154409.51249  -7911115.78946  19750318.8994   19750317.0604
      1949.9124
   8315588.93847   6469950.62942  22747321.1734   22747318.7984
     -2083.6704
 04  9  9 22  8 29.9970000  0  8G19G 3G 8G13G10G28G27G23
 -13316197.54348 -10371265.26244  21572637.5014   21572634.5134
      2511.9404
  -6019982.48447  -4679059.88742  22215073.8604   22215074.1344
        56.7094
 -16318128.52349 -12706550.69945  20180668.4074   20180667.1034
      3162.6634
  -2091047.36749  -1629494.18046  19883605.3604   19883603.6884
      -501.1224
  -6881631.98046  -5352776.08642  22390437.9544   22390438.2164
      2409.2184
  -8125260.03147  -6323361.44543  22147108.1344   22147107.2714
      4458.1084
 -10183632.75049  -7933887.14146  19744758.1104   19744756.1614
      1948.2164
   8346867.05547   6494323.14542  22753272.7434   22753271.0834
     -2085.2084
 04  9  9 22  8 44.9970000  0  8G19G 3G 8G13G10G28G27G23
 -13353768.59848 -10400541.38744  21565487.9464   21565484.8254
      2504.7374
  -6020717.39847  -4679632.55142  22214934.4384   22214933.5604
        48.9944
 -16365535.85949 -12743491.46545  20171647.1964   20171645.7474
      3160.4894
  -2083437.00849  -1623564.04746  19885053.8924   19885051.6264
      -507.3574
  -6917648.66847  -5380841.01642  22383584.5954   22383583.9504
      2401.1134
  -8192093.39847  -6375439.30943  22134389.6344   22134389.7164
      4455.5584
 -10212828.33649  -7956636.94546  19739202.3294   19739200.3024
      1946.3724
   8378170.10547   6518715.05942  22759230.4854   22759227.9234
     -2086.8704
 04  9  9 22  8 59.9970000  0  8G19G 3G 8G13G10G28G27G23
 -13391227.39548 -10429730.04344  21558359.8844   21558356.4074
      2497.2534
  -6021332.74247  -4680112.05542  22214817.5244   22214816.6494
        41.0234
 -16412906.66049 -12780403.76646  20162632.5634   20162631.5834
      3158.0534
  -2075729.22749  -1617557.98846  19886520.3604   19886518.4704
      -513.8524
  -6953539.61346  -5408807.95742  22376754.5714   22376754.4384
      2392.7304
  -8258884.21947  -6427484.10243  22121680.2044   22121679.3374
      4452.7214
 -10241992.18049  -7979362.01246  19733652.8844   19733650.9314
      1944.2564
   8409501.91447   6543129.39542  22765192.3994   22765190.4074
     -2088.7874
 04  9  9 22  9 14.9970000  0  8G19G 3G 8G13G10G28G27G23
 -13428578.75848 -10458834.98844  21551252.4154   21551249.1184
      2490.0914
  -6021833.70747  -4680502.42242  22214722.4384   22214721.6464
        33.3984
 -16460245.45749 -12817291.12146  20153624.2744   20153623.2474
      3155.9204
  -2067929.11749  -1611480.00046  19888004.6814   19888002.4074
      -520.0074
  -6989309.74647  -5436680.79342  22369947.6184   22369947.3254
      2384.6764
  -8325637.38747  -6479499.44543  22108977.5564   22108977.9664
      4450.2114
 -10271129.25849  -8002066.23446  19728108.0014   19728105.9854
      1942.4724
   8440857.37947   6567562.14142  22771158.9464   22771158.1494
     -2090.3644
 04  9  9 22  9 29.9970000  0  8G19G 3G 8G13G10G28G27G23
 -13465822.28947 -10487855.90244  21544164.6264   21544161.6144
      2482.9024
  -6022220.35547  -4680803.70342  22214648.3294   22214647.7594
        25.7774
 -16507552.24249 -12854153.54345  20144622.0564   20144620.5524
      3153.7864
  -2060036.68049  -1605330.05946  19889506.5634   19889504.6034
      -526.1624
  -7024958.82447  -5464459.28142  22363163.6264   22363163.8994
      2376.6054
  -8392352.61347  -6531485.32043  22096281.7744   22096280.1574
      4447.6824
 -10300239.30549  -8024749.38746  19722568.6034   19722566.7394
      1940.6704
   8472236.32847   6592013.19542  22777130.5404   22777127.9664
     -2091.9304
 04  9  9 22  9 44.9970000  0  8G19G 3G 8G13G10G28G27G23
 -13502954.22748 -10516789.87144  21537098.6424   21537095.7044
      2475.4634
  -6022489.17647  -4681013.19142  22214597.9544   22214596.6694
        17.9214
 -16554823.41049 -12890988.20745  20135626.7824   20135625.4154
      3151.4114
  -2052048.44949  -1599105.47346  19891026.8534   19891024.6694
      -532.5494
  -7060483.11747  -5492140.53142  22356404.4384   22356403.6884
      2368.2864
  -8459026.03947  -6583438.57843  22083593.9934   22083593.7744
      4444.8954
 -10329318.84449  -8047408.76246  19717034.7044   19717033.0634
      1938.6364
   8503642.18047   6616485.25442  22783106.9544   22783103.6424
     -2093.7234
 04  9  9 22  9 59.9960000  0  8G19G 3G 8G13G10G28G27G23
 -13539973.96548 -10545636.39144  21530054.3564   21530050.9774
      2467.9834
  -6022642.34447  -4681132.54342  22214568.2774   22214568.0984
        10.2114
 -16602057.63749 -12927794.08646  20126637.8094   20126636.9344
      3148.9484
  -2043967.07049  -1592808.31646  19892564.6374   19892562.1524
      -538.7594
  -7095882.11747  -5519724.14842  22349667.9104   22349667.8984
      2359.9334
  -8525655.20747  -6635357.35943  22070914.8244   22070914.0274
      4441.9454
 -10358367.69549  -8070044.22346  19711507.0044   19711505.3014
      1936.5904
   8535070.54047   6640974.79342  22789087.7314   22789085.2504
     -2095.2244
 04  9  9 22 10 14.9960000  0  8G19G 3G 8G13G10G28G27G23
 -13576884.67648 -10574397.96544  21523030.2234   21523027.0274
      2460.7144
  -6022678.39847  -4681160.62942  22214561.0984   22214561.2664
         2.4044
 -16649259.59849 -12964574.83246  20117656.3094   20117654.4654
      3146.7974
  -2035789.92249  -1586436.52746  19894120.9344   19894118.4414
      -545.1434
  -7131159.04347  -5547212.67242  22342954.7704   22342954.4224
      2351.7954
  -8592247.21948  -6687247.19543  22058243.1764   22058242.7734
      4439.4674
 -10387388.21949  -8092657.61746  19705984.5594   19705982.6724
      1934.7024
   8566526.95347   6665486.25842  22795073.0904   22795071.4064
     -2097.0944
 04  9  9 22 10 29.9960000  0  8G19G 3G 8G13G10G28G27G23
 -13613683.51648 -10603072.36744  21516027.8874   21516024.8984
      2453.2564
  -6022597.43047  -4681097.57042  22214576.6604   22214577.0634
        -5.3984
 -16696426.19549 -13001328.01645  20108680.4494   20108678.9814
      3144.4404
  -2027517.61349  -1579990.59846  19895695.1294   19895692.5044
      -551.4874
  -7166311.27047  -5574604.00842  22336265.7314   22336264.8364
      2343.4824
  -8658797.34447  -6739104.35242  22045578.0824   22045577.9344
      4436.6754
 -10416378.39149  -8115247.36346  19700467.9414   19700466.1174
      1932.6784
   8598009.18847   6690017.82842  22801064.2544   22801061.9184
     -2098.8164
 04  9  9 22 10 44.9960000  0  8G19G 3G 8G13G10G28G27G23
 -13650370.42248 -10631659.54744  21509046.5354   21509043.2234
      2445.7944
  -6022399.84047  -4680943.62142  22214614.4574   22214614.3714
       -13.1734
 -16743557.34049 -13038053.56246  20099711.7314   20099710.5314
      3142.0764
  -2019150.45349  -1573470.74246  19897286.8954   19897285.1604
      -557.8114
  -7201338.88347  -5601898.24242  22329599.5744   22329599.7734
      2335.1744
  -8725305.57847  -6790928.93743  22032922.8164   22032921.0274
      4433.8824
 -10445338.14849  -8137813.41446  19694957.3164   19694955.4494
      1930.6514
   8629516.97346   6714569.28542  22807059.1454   22807058.3634
     -2100.5194
 04  9  9 22 10 59.9960000  0  8G19G 3G 8G13G10G28G27G23
 -13686940.38348 -10660155.60244  21502087.0124   21502083.7384
      2437.9974
  -6022080.96947  -4680695.15242  22214675.1064   22214675.4104
       -21.2584
 -16790648.19949 -13074747.73446  20090750.6914   20090749.5354
      3139.3914
  -2010683.68749  -1566873.28546  19898898.4024   19898896.3484
      -564.4514
  -7236236.94147  -5629091.52342  22322959.4494   22322958.8634
      2326.5374
  -8791766.93447  -6842716.95342  22020275.5274   22020274.2814
      4430.7574
 -10474262.69949  -8160352.01646  19689453.2154   19689451.0434
      1928.3034
   8661054.83646   6739144.14842  22813062.0204   22813059.7584
     -2102.5244
 04  9  9 22 11 14.9960000  0  8G19G 3G 8G13G10G28G27G23
 -13723398.13348 -10688564.21144  21495149.7074   21495146.5234
      2430.5174
  -6021645.85946  -4680356.10242  22214758.0744   22214757.5274
       -29.0074
 -16837703.53549 -13111414.21545  20081796.3164   20081794.9574
      3137.0224
  -2002122.46149  -1560202.21145  19900527.2774   19900525.2114
      -570.7484
  -7271010.35548  -5656187.68742  22316342.6684   22316341.7234
      2318.2284
  -8858186.12147  -6894472.10942  22007635.8164   22007634.5434
      4427.9464
 -10503156.93049  -8182867.00846  19683954.5514   19683952.4734
      1926.2824
   8692617.66046   6763738.46942  22819067.4264   22819066.1954
     -2104.1884
 04  9  9 22 11 29.9960000  0  8G19G 3G 8G13G10G28G27G23
 -13759742.89848 -10716884.77744  21488233.6374   21488230.5234
      2422.9844
  -6021094.08247  -4679926.16442  22214863.2154   22214862.3754
       -36.7854
 -16884722.83249 -13148052.62145  20072848.9184   20072847.2734
      3134.6204
  -1993466.15249  -1553457.05146  19902174.8634   19902172.8324
      -577.0874
  -7305658.46547  -5683186.17242  22309748.5434   22309747.8874
      2309.8744
  -8924562.44547  -6946193.87943  21995005.3564   21995004.1524
      4425.0884
 -10532020.20749  -8205357.86746  19678462.2234   19678460.3954
      1924.2184
   8724205.80147   6788352.54342  22825079.0984   22825077.8564
     -2105.8764
 04  9  9 22 11 44.9960000  0  8G19G 3G 8G13G10G28G27G23
 -13795974.82448 -10745117.43744  21481338.9814   21481335.9614
      2415.4624
  -6020426.07846  -4679405.65242  22214989.9964   22214990.1684
       -44.5344
 -16931706.28949 -13184663.08645  20063908.1604   20063906.7154
      3132.2304
  -1984715.21949  -1546638.16046  19903840.1064   19903837.7664
      -583.3964
  -7340181.48047  -5710087.23842  22303179.3484   22303179.5124
      2301.5344
  -8990896.09847  -6997882.39143  21982381.5984   21982381.1214
      4422.2434
 -10560852.74649  -8227824.78146  19672975.4734   19672973.4384
      1922.1694
   8755818.82846   6812985.98042  22831095.0514   22831093.5594
     -2107.5354
 04  9  9 22 11 59.9960000  0  8G19G 3G 8G13G10G28G27G23
 -13832087.33648 -10773257.03144  21474467.2624   21474463.9694
      2407.5014
  -6019635.69547  -4678789.78542  22215140.2154   22215140.2424
       -52.6924
 -16978647.24249 -13221240.44946  20054975.5354   20054974.5204
      3129.3974
  -1975863.35549  -1539740.62946  19905524.4734   19905522.4224
      -590.1244
  -7374573.00047  -5736885.80942  22296634.6764   22296634.3284
      2292.7684
  -9057180.52748  -7049532.54742  21969768.6134   21969767.5474
      4418.9624
 -10589648.24249  -8250262.82446  19667496.0124   19667494.0084
      1919.7004
   8787462.74246   6837643.52042  22837116.2464   22837115.4024
     -2109.5944
 04  9  9 22 12 14.9960000  0  8G19G 3G 8G13G10G28G27G23
 -13868081.01648 -10801304.03544  21467617.3404   21467614.1454
      2399.5794
  -6018723.79746  -4678079.21942  22215313.4574   22215313.2234
       -60.7934
 -17025546.85549 -13257785.59045  20046050.9964   20046049.6564
      3126.6414
  -1966911.65249  -1532765.28545  19907227.2314   19907225.7504
      -596.7804
  -7408833.58647  -5763582.35942  22290115.0514   22290114.3244
      2284.0394
  -9123416.27347  -7101144.77743  21957165.0514   21957161.8134
      4415.7164
 -10618407.13749  -8272672.35546  19662023.0594   19662021.2424
      1917.2604
   8819136.67246   6862324.39542  22843143.8404   22843142.9264
     -2111.5954
 04  9  9 22 12 29.9960000  0  8G19G 3G 8G13G10G28G27G23
 -13903956.09448 -10829258.62144  21460790.5274   21460787.7584
      2391.6724
  -6017691.08647  -4677274.52042  22215511.1134   22215509.7314
       -68.8474
 -17072405.44149 -13294298.76245  20037133.7384   20037132.6994
      3123.9064
  -1957860.55949  -1525712.50446  19908950.5514   19908948.1254
      -603.4064
  -7442963.77347  -5790177.28942  22283620.0124   22283619.9104
      2275.3464
  -9189603.59047  -7152719.30943  21944569.3794   21944568.9384
      4412.4884
 -10647130.14549  -8295053.91446  19656557.5594   19656555.7624
      1914.8674
   8850839.77746   6887028.04342  22849176.4964   22849175.5204
     -2113.5404
 04  9  9 22 12 44.9960000  0  8G19G 3G 8G13G10G28G27G23
 -13939712.27348 -10857120.55544  21453986.5984   21453983.0744
      2383.7454
  -6016537.70346  -4676375.77342  22215729.7774   22215729.5044
       -76.8924
 -17119222.46949 -13330779.55545  20028224.8874   20028223.4414
      3121.1354
  -1948710.09849  -1518582.28946  19910691.5204   19910689.0704
      -610.0314
  -7476963.30947  -5816670.44942  22277150.2234   22277150.3634
      2266.6364
  -9255742.38747  -7204255.96542  21931983.3714   21931982.4144
      4409.2534
 -10675817.02349  -8317407.32846  19651098.6604   19651096.4384
      1912.4594
   8882572.05946   6911754.41842  22855215.0434   22855213.6644
     -2115.4854
 04  9  9 22 12 59.9960000  0  8G19G 3G 8G13G10G28G27G23
 -13975348.08648 -10884888.70344  21447205.3324   21447202.1564
      2375.7214
  -6015262.52746  -4675382.15642  22215972.9024   22215972.4654
       -85.0124
 -17165996.84449 -13367227.10545  20019324.3014   20019322.7194
      3118.2924
  -1939459.08649  -1511373.71946  19912451.9344   19912449.6684
      -616.7344
  -7510830.81647  -5843060.69142  22270705.7774   22270705.1024
      2257.8344
  -9321831.15247  -7255753.66043  21919407.1064   21919405.5634
      4405.9184
 -10704466.30949  -8339731.44546  19645646.7314   19645644.6684
      1909.9524
   8914334.60546   6936504.34842  22861260.0354   22861258.6644
     -2117.5034
 04  9  9 22 13 14.9960000  0  8G19G 3G 8G13G10G28G27G23
 -14010859.55148 -10912559.95344  21440447.4344   21440444.3204
      2367.4314
  -6013861.83647  -4674290.71942  22216239.3874   22216238.7034
       -93.3794
 -17212724.64849 -13403638.36346  20010432.1374   20010430.7894
      3115.1874
  -1930103.99249  -1504084.05946  19914232.2234   19914229.7814
      -623.6734
  -7544562.43447  -5869345.07442  22264286.6374   22264286.5474
      2248.7744
  -9387865.83247  -7307209.25443  21906841.1294   21906838.9024
      4402.3124
 -10733074.32449  -8362023.40246  19640202.7154   19640200.8324
      1907.2014
   8946130.82046   6961280.56342  22867310.3714   22867308.9574
     -2119.7484
 04  9  9 22 13 29.9960000  0  8G19G 3G 8G13G10G28G27G23
 -14046250.19548 -10940137.05944  21433713.0354   21433709.8594
      2359.3764
  -6012339.51646  -4673104.48042  22216529.6134   22216528.0004
      -101.4884
 -17259409.69549 -13440016.31246  20001548.3634   20001546.8794
      3112.3364
  -1920648.52749  -1496716.18746  19916031.4414   19916028.8714
      -630.3644
  -7578161.77347  -5895526.35542  22257893.1764   22257892.7234
      2239.9564
  -9453850.08648  -7358625.50443  21894285.4344   21894284.0864
      4398.9504
 -10761644.59449  -8384285.94946  19634766.0354   19634763.9264
      1904.6854
   8977956.91446   6986080.02042  22873366.1134   22873365.6064
     -2121.7404
 04  9  9 22 13 44.9960000  0  8G19G 3G 8G13G10G28G27G23
 -14081521.02047 -10967620.81244  21427000.7074   21426997.9344
      2351.3884
  -6010697.01647  -4671824.64142  22216841.6764   22216841.2114
      -109.5004
 -17306052.87149 -13476361.63345  19992672.1994   19992671.0514
      3109.5454
  -1911094.05949  -1489271.16446  19917849.4574   19917847.5554
      -636.9654
  -7611630.06647  -5921605.53143  22251524.2464   22251523.4414
      2231.2204
  -9519784.89847  -7410003.21943  21881738.1294   21881737.1954
      4395.6544
 -10790178.26649  -8406519.97746  19629335.8404   19629334.2194
      1902.2454
   9009811.37547   7010901.59842  22879428.6844   22879427.2424
     -2123.6314
 04  9  9 22 13 59.9960000  0  8G19G 3G 8G13G10G28G27G23
 -14116669.59047 -10995009.28544  21420312.2154   21420309.1844
      2343.2384
  -6008932.29347  -4670449.53142  22217177.5044   22217176.9104
      -117.6484
 -17352651.73449 -13512672.42246  19983804.6454   19983803.6454
      3106.5914
  -1901438.27049  -1481747.19546  19919686.7934   19919685.0164
      -643.7194
  -7644964.84047  -5947580.66842  22245180.6994   22245180.0434
      2222.3184
  -9585667.72747  -7461340.45343  21869200.7544   21869199.6564
      4392.1894
 -10818673.01649  -8428723.67246  19623913.5124   19623911.7464
      1899.6504
   9041696.34847   7035746.93843  22885496.3324   22885494.4184
     -2125.6654
 04  9  9 22 14 14.9960000  0  8G19G 3G 8G13G10G28G27G23
 -14151699.31648 -11022305.15644  21413646.3874   21413643.5864
      2335.3154
  -6007049.03546  -4668982.06242  22217535.4104   22217534.9734
      -125.5514
 -17399209.91449 -13548951.51646  19974945.1914   19974943.9654
      3103.8794
  -1891685.07849  -1474147.32846  19921543.1994   19921541.1214
      -650.2134
  -7678169.73447  -5973454.61342  22238862.1764   22238862.2034
      2213.6604
  -9651502.25048  -7512640.03943  21856673.3564   21856670.7504
      4388.9684
 -10847132.43049  -8450899.84046  19618498.1064   19618496.1414
      1897.2944
   9073608.07047   7060613.15243  22891568.8324   22891567.8014
     -2127.4484
 04  9  9 22 14 29.9960000  0  8G19G 3G 8G13G10G28G27G23
 -14186610.41048 -11049508.58244  21407002.9344   21406999.9734
      2327.4064
  -6005047.90246  -4667422.74642  22217916.7704   22217915.5354
      -133.4094
 -17445727.99649 -13585199.35246  19966092.9344   19966091.4064
      3101.2054
  -1881835.09049  -1466472.03545  19923417.5204   19923415.4814
      -656.6664
  -7711245.26647  -5999227.73842  22232567.8164   22232567.4224
      2205.0354
  -9717288.69547  -7563902.18443  21844153.7854   21844152.6644
      4385.7634
 -10875556.89849  -8473048.77746  19613089.2154   19613087.3364
      1894.9654
   9105545.79347   7085499.59842  22897646.5664   22897645.0274
     -2129.1824
 04  9  9 22 14 44.9960000  0  8G19G 3G 8G13G10G28G27G23
 -14221394.83248 -11076613.30144  21400383.8874   21400380.8594
      2318.9614
  -6002921.19947  -4665765.58642  22218321.1374   22218320.5164
      -141.7804
 -17492197.93749 -13621409.69145  19957250.3324   19957248.8954
      3097.9964
  -1871880.55549  -1458715.27345  19925311.8874   19925309.7854
      -663.6364
  -7744183.19547  -6024893.65642  22226300.5824   22226299.8524
      2195.8624
  -9783019.02747  -7615120.56643  21831646.3484   21831644.9774
      4382.0224
 -10903938.41049  -8495164.23846  19607688.3014   19607686.3634
      1892.1014
   9137517.16046   7110412.29342  22903729.8954   22903729.0044
     -2131.4244
 04  9  9 22 14 59.9960000  0  8G19G 3G 8G13G10G28G27G23
 -14256058.18447 -11103623.69144  21393787.3094   21393784.4694
      2310.8904
  -6000674.88347  -4664015.21542  22218748.9024   22218747.9264
      -149.7544
 -17538625.60949 -13657587.09446  19948415.1994   19948413.5864
      3095.1784
  -1861827.25449  -1450881.53946  19927224.5204   19927222.9654
      -670.2204
  -7776989.50447  -6050457.00842  22220057.0514   22220057.1804
      2187.0874
  -9848698.84048  -7666299.62143  21819147.5824   21819146.0044
      4378.6544
 -10932282.77749  -8517250.75046  19602294.5274   19602292.3594
      1889.6244
   9169516.15247   7135346.47342  22909820.4344   22909817.9884
     -2133.2664
 04  9  9 22 15 14.9960000  0  8G19G 3G 8G13G10G28G27G23
 -14290598.86347 -11130538.48044  21387214.8014   21387211.2814
      2302.7124
  -5998307.62547  -4662170.60942  22219199.8244   22219198.6764
      -157.8174
 -17585009.33249 -13693730.24246  19939588.5514   19939587.3794
      3092.2484
  -1851673.89849  -1442969.86745  19929157.3244   19929155.2624
      -676.8904
  -7809662.64547  -6075916.60542  22213840.1604   22213839.1134
      2178.2094
  -9914326.34847  -7717437.88343  21806658.7934   21806657.6764
      4375.1674
 -10960588.52349  -8539307.17246  19596908.2544   19596906.3134
      1887.0504
   9201543.93447   7160303.14142  22915915.1294   22915912.9614
     -2135.1854
 04  9  9 22 15 29.9960000  0  8G19G 3G 8G13G10G28G27G23
 -14325014.29748 -11157355.69544  21380665.4574   21380662.3284
      2294.3624
  -5995817.32847  -4660230.10942  22219672.7544   22219672.2584
      -166.0204
 -17631346.61749 -13729837.20746  19930771.0664   19930769.5554
      3089.1524
  -1841418.16849  -1434978.39545  19931108.3954   19931106.7154
      -683.7154
  -7842200.10547  -6101270.47342  22207648.4494   22207646.8014
      2169.1644
  -9979899.28148  -7768533.62943  21794180.8954   21794179.7154
      4371.5294
 -10988853.00849  -8561331.44946  19591529.6454   19591528.0434
      1884.2994
   9233602.76646   7185283.97342  22922014.4104   22922013.7934
     -2137.2554
 04  9  9 22 15 44.9960000  0  8G19G 3G 8G13G10G28G27G23
 -14359304.22748 -11184075.09844  21374140.8404   21374137.6064
      2285.9954
  -5993204.04747  -4658193.81242  22220170.6064   22220170.0704
      -174.2194
 -17677637.09449 -13765907.69546  19921962.0434   19921960.6724
      3086.0324
  -1831060.14149  -1426907.21946  19933079.6454   19933077.6064
      -690.5354
  -7874601.68447  -6126518.43442  22201482.1994   22201481.9144
      2160.1054
 -10045417.31647  -7819586.60243  21781712.9884   21781712.0044
      4367.8694
 -11017076.18449  -8583323.52746  19586158.8564   19586157.1484
      1881.5454
   9265692.50447   7210288.91042  22928120.7384   22928120.2344
     -2139.3164
 04  9  9 22 15 59.9960000  0  8G19G 3G 8G13G10G28G27G23
 -14393470.14148 -11210697.85944  21367639.2234   21367635.7154
      2277.7284
  -5990469.63747  -4656063.09842  22220690.7704   22220690.3914
      -182.2944
 -17723882.63349 -13801943.16446  19913162.2774   19913160.4264
      3083.0364
  -1820601.68449  -1418757.78946  19935069.9494   19935068.1564
      -697.2304
  -7906869.00847  -6151661.81242  22195341.9024   22195341.8164
      2151.1554
 -10110881.93048  -7870597.95343  21769255.4184   21769254.3364
      4364.3084
 -11045259.78949  -8605284.77746  19580795.9264   19580793.8794
      1878.9074
   9297811.24246   7235316.42642  22934233.3014   22934231.8404
     -2141.2494
 04  9  9 22 16 14.9960000  0  8G19G 3G 8G13G10G28G27G23
 -14427513.10548 -11237224.84044  21361160.8014   21361157.4614
      2269.5314
  -5987615.50047  -4653839.10242  22221233.5744   22221233.4064
      -190.2764
 -17770084.41449 -13837944.54346  19904369.9024   19904368.5594
      3080.1194
  -1810044.28549  -1410531.26246  19937078.7234   19937076.9694
      -703.8274
  -7939003.42247  -6176701.60242  22189227.0664   22189226.9694
      2142.2944
 -10176294.21948  -7921568.50043  21756808.1454   21756807.1604
      4360.8194
 -11073404.80549  -8627215.94946  19575440.0124   19575437.7734
      1876.3344
   9329957.52346   7260365.41842  22940350.7624   22940349.3794
     -2143.0854
 04  9  9 22 16 29.9960000  0  7G19G 3G 8G13G10G28G27
 -14461428.35547 -11263652.30144  21354706.6374   21354703.5234
      2261.0174
  -5984637.25047  -4651518.39542  22221800.5824   22221800.2934
      -198.5504
 -17816237.75849 -13873908.18746  19895587.1914   19895585.7664
      3076.8904
  -1799383.46949  -1402224.14845  19939107.7234   19939105.9024
      -710.7214
  -7971000.22747  -6201634.16442  22183138.4574   22183138.0004
      2133.1204
 -10241649.42647  -7972494.61743  21744371.0594   21744369.3714
      4357.0144
 -11101506.73049  -8649113.55946  19570092.2774   19570090.5824
      1873.4624
 04  9  9 22 16 44.9960000  0  7G19G 3G 8G13G10G28G27
 -14495216.44148 -11289980.65644  21348277.4734   21348273.9494
      2252.5394
  -5981535.78547  -4649101.69942  22222391.0044   22222390.3914
      -206.7644
 -17862343.25049 -13909834.53146  19886813.9964   19886812.4104
      3073.6994
  -1788619.85249  -1393836.93446  19941156.1764   19941153.7424
      -717.5744
  -8002859.94947  -6226459.92642  22177075.6994   22177075.6724
      2123.9824
 -10306948.18748  -8023376.71143  21731944.9964   21731943.9884
      4353.2514
 -11129566.12149  -8670978.01246  19564752.7704   19564750.8444
      1870.6264
 04  9  9 22 16 59.9960000  0  7G19G 3G 8G13G10G28G27
 -14528877.52347 -11316210.05944  21341871.6524   21341868.0354
      2244.0724
  -5978311.71147  -4646589.43742  22223004.3954   22223003.6564
      -214.9384
 -17908401.25849 -13945723.87146  19878049.0824   19878047.6644
      3070.5344
  -1777754.02049  -1385370.07045  19943223.7774   19943221.9494
      -724.3894
  -8034582.95747  -6251179.14542  22171038.9494   22171038.4814
      2114.8674
 -10372190.60548  -8074214.94543  21719529.9264   21719529.0204
      4349.4954
 -11157583.36349  -8692809.62146  19559421.2234   19559419.4024
      1867.8164
 04  9  9 22 17 14.9960000  0  7G19G 3G 8G13G10G28G27
 -14562402.09047 -11342333.08244  21335492.1684   21335488.9534
      2234.9714
  -5974955.71947  -4643974.38342  22223642.9814   22223642.6994
      -223.7334
 -17954402.10549 -13981568.68446  19869295.4964   19869294.0664
      3066.7234
  -1766776.66449  -1376816.30545  19945312.5594   19945310.7774
      -731.8244
  -8066159.87547  -6275784.51642  22165029.6214   22165029.9414
      2105.1284
 -10437367.16448  -8125001.80943  21707127.1844   21707126.4654
      4345.1044
 -11185548.92249  -8714600.96946  19554099.5514   19554097.4454
      1864.3714
 04  9  9 22 17 29.9960000  0  7G19G 3G 8G13G10G28G27
 -14595790.62947 -11368350.11344  21329138.5124   21329135.2114
      2225.9034
  -5971468.73447  -4641257.27042  22224306.9814   22224305.9884
      -232.4664
 -18000346.62549 -14017369.60246  19860552.4344   19860550.9614
      3062.9684
  -1755688.72749  -1368176.37946  19947422.6294   19947420.9384
      -739.1964
  -8097591.33246  -6300276.56642  22159048.6064   22159048.2274
      2095.4304
 -10502478.33648  -8175737.75043  21694737.1684   21694735.0274
      4340.7454
 -11213463.48049  -8736352.56646  19548787.9264   19548785.8524
      1860.9714
 04  9  9 22 17 44.9960000  0  7G19G 3G 8G13G10G28G27
 -14629039.09447 -11394257.98844  21322811.5044   21322808.0704
      2216.5644
  -5967847.04348  -4638435.19542  22224995.6764   22224995.3444
      -241.4464
 -18046230.75449 -14053123.44946  19851820.8794   19851819.6134
      3058.9424
  -1744486.49649  -1359447.38346  19949554.0434   19949552.6454
      -746.8154
  -8128873.28547  -6324652.10542  22153096.0434   22153095.3914
      2085.4644
 -10567520.12148  -8226419.61343  21682360.0434   21682359.4924
      4336.1194
 -11241323.03149  -8758061.30146  19543486.2774   19543484.4614
      1857.3034
 04  9  9 22 17 59.9960000  0  7G19G 3G 8G13G10G28G27
 -14662150.50447 -11420059.06644  21316510.3954   21316507.8014
      2207.4274
  -5964094.12147  -4635510.83642  22225709.6214   22225709.4844
      -250.1954
 -18092057.88349 -14088832.88746  19843100.4344   19843099.0274
      3055.1424
  -1733173.22349  -1350631.87145  19951707.4884   19951705.1524
      -754.2184
  -8160009.03946  -6348913.72742  22147171.2074   22147170.9964
      2075.7174
 -10632495.60248  -8277049.82443  21669995.5984   21669993.6644
      4331.6994
 -11269130.85549  -8779729.73446  19538194.3404   19538192.6524
      1853.8554
 04  9  9 22 18 14.9960000  0  7G19G 3G 8G13G10G28G27
 -14695125.18747 -11445753.62144  21310235.9414   21310231.9964
      2198.3124
  -5960210.58647  -4632484.71542  22226449.5594   22226448.5044
      -258.9024
 -18137827.98449 -14124497.89146  19834390.6764   19834389.1914
      3051.3404
  -1721749.50449  -1341730.27745  19953880.8014   19953878.9264
      -761.5814
  -8190998.93447  -6373061.69942  22141274.0984   22141273.3404
      2065.9934
 -10697405.17248  -8327628.68443  21657643.1604   21657642.2624
      4327.3054
 -11296887.18749  -8801358.03946  19532912.5044   19532910.4964
      1850.4224
 04  9  9 22 18 29.9960000  0  7G19G 3G 8G13G10G28G27
 -14727957.75048 -11471337.40644  21303987.7074   21303984.6804
      2188.8384
  -5956191.56248  -4629353.02743  22227213.6524   22227213.5634
      -267.9354
 -18183536.13749 -14160114.62546  19825692.4494   19825691.1914
      3047.2104
  -1710210.32049  -1332738.72746  19956077.2314   19956075.0904
      -769.2794
  -8221837.77046  -6397091.94942  22135404.8164   22135405.1524
      2055.9224
 -10762243.48448  -8378152.00443  21645305.1994   21645304.3164
      4322.5544
 -11324586.91449  -8822942.23846  19527641.3714   19527639.1484
      1846.6484
 04  9  9 22 18 44.9960000  0  7G19G 3G 8G13G10G28G27
 -14760652.95747 -11496814.18744  21297766.3794   21297763.3204
      2179.6804
  -5952042.03547  -4626119.65242  22228003.5744   22228003.0124
      -276.6354
 -18229187.07449 -14195686.77046  19817005.5354   19817004.1564
      3043.3964
  -1698560.72749  -1323661.12545  19958293.6134   19958291.8444
      -776.6404
  -8252530.40246  -6421008.28542  22129564.7464   22129564.3794
      2046.1764
 -10827015.25448  -8428623.48043  21632979.4964   21632977.9884
      4318.1184
 -11352234.75849  -8844486.00446  19522380.2464   19522378.3984
      1843.1904
 04  9  9 22 18 59.9960000  0  7G19G 3G 8G13G10G28G27
 -14793207.58247 -11522181.41044  21291571.1844   21291567.9964
      2170.3084
  -5947759.16447  -4622782.37142  22228818.7384   22228818.1764
      -285.5254
 -18274777.60949 -14231211.85546  19808330.2314   19808328.4734
      3039.3694
  -1686797.82849  -1314495.25445  19960531.9494   19960530.3634
      -784.1934
  -8283073.75047  -6444808.29342  22123753.2314   22123752.2584
      2036.2234
 -10891717.11348  -8479040.46943  21620666.9814   21620665.6684
      4313.4574
 -11379827.65249  -8865986.96546  19517129.5514   19517127.6214
      1839.5264
 04  9  9 22 19 14.9960000  0  7G19G 3G 8G13G10G28G27
 -14825626.80147 -11547443.13744  21285402.1844   21285398.9734
      2161.2814
  -5943348.41447  -4619345.42642  22229657.9104   22229657.0634
      -294.0504
 -18320312.91049 -14266693.90246  19799664.7384   19799663.8794
      3035.6874
  -1674926.97749  -1305245.25445  19962791.0514   19962789.1414
      -791.3904
  -8313472.97346  -6468496.00842  22117967.9024   22117967.0864
      2026.6154
 -10956354.21548  -8529407.01643  21608366.9654   21608365.9534
      4309.1404
 -11407370.78549  -8887449.14546  19511888.2624   19511886.2854
      1836.2094
 04  9  9 22 19 29.9960000  0  7G19G 3G 8G13G10G28G27
 -14857907.51647 -11572596.92244  21279258.9414   21279255.9654
      2152.0484
  -5938807.08247  -4615806.75842  22230521.6134   22230521.6994
      -302.7554
 -18365790.09049 -14302130.65646  19791010.5594   19791009.3714
      3031.8124
  -1662945.48049  -1295909.03945  19965071.5044   19965069.2234
      -798.7664
  -8343725.14547  -6492069.12542  22112211.5354   22112210.4924
      2016.8114
 -11020923.60948  -8579720.80143  21596079.9104   21596078.3524
      4304.6264
 -11434861.15249  -8908870.20346  19506657.0824   19506655.2934
      1832.6914
 04  9  9 22 19 44.9960000  0  7G19G 3G 8G13G10G28G27
 -14890051.81247 -11597644.41044  21273142.5594   21273138.8794
      2142.9534
  -5934137.69547  -4612168.29342  22231410.0354   22231410.1374
      -311.2924
 -18411211.34049 -14337523.82846  19782367.3874   19782365.9924
      3028.0834
  -1650855.73049  -1286488.45745  19967371.6294   19967369.7424
      -805.9834
  -8373832.67247  -6515529.52042  22106481.2704   22106481.5004
      2007.1684
 -11085427.45348  -8629983.49643  21583805.3484   21583803.8014
      4300.2564
 -11462300.98849  -8930251.88746  19501435.5274   19501433.4064
      1829.3224
 04  9  9 22 19 59.9960000  0  7G19G 3G 8G13G10G28G27
 -14922057.57048 -11622583.94944  21267051.8164   21267048.7704
      2133.7174
  -5929338.41447  -4608428.59842  22232324.0824   22232323.3094
      -319.9524
 -18456574.48449 -14372871.72746  19773735.0044   19773733.3984
      3024.2104
  -1638655.89849  -1276982.11345  19969693.1604   19969691.3484
      -813.3224
  -8403793.42647  -6538875.55143  22100780.1914   22100780.4104
      1997.3844
 -11149863.50448  -8680193.37543  21571543.4264   21571542.6064
      4295.7374
 -11489688.23449  -8951592.59446  19496223.6134   19496221.7544
      1825.8164
 04  9  9 22 20 14.9960000  0  7G19G 3G 8G13G10G28G27
 -14953923.26648 -11647414.34044  21260988.3634   21260985.3284
      2124.3804
  -5924408.00847  -4604586.74642  22233261.6524   22233261.7234
      -328.6944
 -18501878.10249 -14408173.22746  19765114.3404   19765112.8564
      3020.2414
  -1626344.76249  -1267389.03145  19972035.9734   19972034.0664
      -820.7424
  -8433605.98447  -6562106.11742  22095107.1844   22095107.0044
      1987.5044
 -11214230.29748  -8730349.28543  21559294.8714   21559293.6564
      4291.1204
 -11517021.47749  -8972891.21946  19491022.4964   19491020.5314
      1822.2164
 04  9  9 22 20 29.9960000  0  7G19G 3G 8G13G10G28G27
 -14985651.34848 -11672137.51244  21254950.3874   21254947.3054
      2115.2054
  -5919349.42647  -4600644.99642  22234225.1684   22234224.5864
      -337.2394
 -18547124.68749 -14443430.29346  19756504.1764   19756502.6994
      3016.4394
  -1613924.94149  -1257711.26645  19974399.4654   19974397.5314
      -827.9884
  -8463273.00047  -6585223.27343  22089461.5204   22089461.5554
      1977.8014
 -11278530.35948  -8780453.20343  21547059.1214   21547057.4344
      4286.6714
 -11544303.19549  -8994149.69946  19485830.7074   19485828.7854
      1818.7814
 04  9  9 22 20 44.9960000  0  7G19G 3G 8G13G10G28G27
 -15017243.10948 -11696754.44944  21248938.8404   21248935.6804
      2106.1174
  -5914164.30947  -4596604.66842  22235211.2074   22235211.2974
      -345.6744
 -18592315.84849 -14478644.18446  19747904.0904   19747902.8364
      3012.7444
  -1601398.18049  -1247950.16445  19976783.4964   19976781.2464
      -835.1174
  -8492795.93747  -6608228.15242  22083844.0204   22083844.0474
      1968.1964
 -11342764.98048  -8830506.12943  21534835.5204   21534834.0084
      4282.3084
 -11571534.92249  -9015369.21946  19480648.7464   19480646.9534
      1815.4484
 04  9  9 22 20 59.9960000  0  7G19G 3G 8G13G10G28G27
 -15048694.47748 -11721262.00044  21242953.4884   21242950.1254
      2096.7584
  -5908848.93447  -4592462.85542  22236223.1134   22236222.6024
      -354.3584
 -18637447.44149 -14513811.64846  19739316.4344   19739314.3134
      3008.7734
  -1588760.65249  -1238102.75045  19979188.0274   19979186.0744
      -842.5024
  -8522170.71947  -6631117.59042  22078253.7854   22078253.4924
      1958.3194
 -11406929.84848  -8880504.68743  21522625.0594   21522624.5904
      4277.6584
 -11598712.50049  -9036546.55546  19475477.3324   19475474.9654
      1811.8394
 04  9  9 22 21 14.9960000  0  7G19G 3G 8G13G10G28G27
 -15080008.83248 -11745662.78944  21236994.9184   21236991.4574
      2087.6244
  -5903407.10547  -4588222.48042  22237257.9184   22237258.0634
      -362.7894
 -18682522.89549 -14548935.36346  19730738.5594   19730737.0594
      3005.0304
  -1576016.18449  -1228172.00845  19981613.3874   19981611.5474
      -849.6314
  -8551400.80147  -6653894.27042  22072691.9184   22072691.6994
      1948.6724
 -11471028.68748  -8930451.80143  21510427.7934   21510425.9534
      4273.2564
 -11625839.57049  -9057684.52346  19470315.0274   19470313.0634
      1808.4714
 04  9  9 22 21 29.9960000  0  7G19G 3G 8G13G10G28G27
 -15111184.53548 -11769955.53144  21231062.1684   21231059.2034
      2078.3804
  -5897837.41847  -4583882.50042  22238318.7234   22238317.9814
      -371.3124
 -18727540.56249 -14584014.06646  19722171.9814   19722170.7464
      3001.1784
  -1563163.23449  -1218156.73845  19984059.3324   19984056.8954
      -856.8634
  -8580484.83647  -6676557.16042  22067157.4494   22067156.8204
      1938.9364
 -11535059.61748  -8980345.99643  21498242.8634   21498241.9024
      4268.7294
 -11652914.35249  -9078781.75046  19465162.7854   19465160.7034
      1804.9854
 04  9  9 22 21 44.9960000  0  7G19G 3G 8G13G10G28G27
 -15142222.53548 -11794140.97744  21225155.7624   21225152.4884
      2069.2004
  -5892141.21947  -4579443.91442  22239401.8714   22239402.2344
      -379.7474
 -18772501.62949 -14619048.64846  19713616.1134   19713614.6524
      2997.4044
  -1550203.15249  -1208057.98445  19986525.1604   19986523.4064
      -864.0054
  -8609423.85947  -6699107.03143  22061650.8094   22061649.9774
      1929.2684
 -11599023.71148  -9030188.12943  21486070.7464   21486070.1684
      4264.2734
 -11679937.96149  -9099839.11346  19460020.3094   19460018.2854
      1801.5744
 04  9  9 22 21 59.9960000  0  7G19G 3G 8G13G10G28G27
 -15173124.05148 -11818220.06244  21219275.7774   21219272.7114
      2060.1014
  -5886320.06647  -4574907.96142  22240509.9734   22240509.0904
      -388.0774
 -18817407.15649 -14654039.96146  19705071.0744   19705069.6724
      2993.7024
  -1537137.32849  -1197876.83245  19989011.8164   19989009.1334
      -871.0554
  -8638219.04347  -6721544.84043  22056171.1764   22056170.5704
      1919.6794
 -11662922.00448  -9079978.97743  21473911.3484   21473910.1374
      4259.8864
 -11706911.68749  -9120857.60246  19454887.5434   19454885.4224
      1798.2484
 04  9  9 22 22 14.9960000  0  7G19G 3G 8G13G10G28G27
 -15203884.58648 -11842189.29744  21213421.9654   21213418.4264
      2050.7024
  -5880369.76247  -4570271.38342  22241641.8634   22241641.7894
      -396.6874
 -18862252.68049 -14688984.52046  19696536.8794   19696535.3954
      2989.7024
  -1523961.55549  -1187610.01245  19991518.7624   19991517.0394
      -878.3854
  -8666866.16447  -6743867.27043  22050719.6994   22050718.9184
      1909.8084
 -11726750.10948  -9129715.11343  21461765.2854   21461764.6484
      4255.2074
 -11733831.05949  -9141833.72746  19449764.7074   19449762.7734
      1794.6254
 04  9  9 22 22 29.9960000  0  7G19G 3G 8G13G10G28G27
 -15234505.18747 -11866049.48844  21207594.9964   21207591.7114
      2041.3734
  -5874291.81648  -4565535.35242  22242799.4264   22242798.4884
      -405.1964
 -18907039.64549 -14723883.44946  19688014.2544   19688012.9414
      2985.7984
  -1510677.25849  -1177258.62945  19994046.8794   19994044.9104
      -885.6204
  -8695366.46148  -6766075.28542  22045295.8954   22045295.1954
      1900.0204
 -11790509.09048  -9179397.41043  21449632.3564   21449631.6334
      4250.5994
 -11760697.34849  -9162768.49646  19444652.3954   19444650.6214
      1791.0864
 04  9  9 22 22 44.9960000  0  7G19G 3G 8G13G10G28G27
 -15264986.89147 -11889801.44944  21201794.5204   21201791.5554
      2032.1144
  -5868087.54347  -4560700.86742  22243979.9414   22243979.0164
      -413.6184
 -18951768.93049 -14758737.42646  19679502.7774   19679501.3284
      2981.9524
  -1497285.75449  -1166823.69945  19996595.2314   19996593.0944
      -892.7674
  -8723720.91447  -6788169.66842  22039900.6684   22039900.1064
      1890.2974
 -11854200.00848  -9229026.67643  21437512.6214   21437511.1804
      4246.0614
 -11787511.46949  -9183662.61346  19439549.6604   19439547.9694
      1787.6084
 04  9  9 22 22 59.9960000  0  7G19G 3G 8G13G10G28G27
 -15295332.79348 -11913447.60544  21196019.6764   21196016.6134
      2023.0604
  -5861760.38747  -4555770.64842  22245184.0594   22245183.0434
      -421.8104
 -18996443.96549 -14793549.14146  19671001.1524   19670999.8094
      2978.3364
  -1483790.45749  -1156307.90645  19999163.4024   19999161.3594
      -899.6864
  -8751932.78548  -6810152.92643  22034531.8484   22034530.9064
      1880.7914
 -11917825.83648  -9278605.19543  21425404.8094   21425403.5274
      4241.7224
 -11814276.71549  -9204518.64846  19434456.7624   19434454.5394
      1784.3504
 04  9  9 22 23 14.9960000  0  7G19G 3G 8G13G10G28G27
 -15325543.77347 -11936988.61344  21190270.6604   21190267.8164
      2014.0654
  -5855311.61347  -4550745.61742  22246410.8954   22246410.3984
      -429.9184
 -19041065.41849 -14828319.08646  19662510.2774   19662508.3794
      2974.7644
  -1470192.54749  -1145712.14145  20001750.7384   20001748.9884
      -906.5274
  -8780003.09047  -6832025.89143  22029190.1604   22029189.8364
      1871.3544
 -11981387.59848  -9328133.79743  21413309.1374   21413307.7774
      4237.4514
 -11840993.95349  -9225337.27046  19429372.4964   19429370.4844
      1781.1494
 04  9  9 22 23 29.9960000  0  7G19G 3G 8G13G10G28G27
 -15355619.13747 -11960423.94544  21184547.5044   21184544.6804
      2005.0244
  -5848740.70747  -4545625.44542  22247660.6524   22247660.9344
      -438.0604
 -19085632.71149 -14863046.84046  19654029.4814   19654027.5664
      2971.1534
  -1456491.56249  -1135036.07045  20004357.9884   20004356.1884
      -913.3994
  -8807931.14847  -6853788.01243  22023875.6294   22023875.0784
      1861.8714
 -12044884.43048  -9377611.82843  21401225.9494   21401224.7774
      4233.1224
 -11867662.55549  -9246117.99646  19424297.6524   19424295.4884
      1777.9074
 04  9  9 22 23 44.9960000  0  7G19G 3G 8G13G10G28G27
 -15385560.28948 -11983754.69544  21178850.0434   21178846.8324
      1996.0774
  -5842049.63747  -4540411.64142  22248934.5514   22248934.1174
      -446.0714
 -19130147.28549 -14897733.52046  19645558.2854   19645557.0274
      2967.6384
  -1442689.27349  -1124281.05545  20006984.5274   20006982.5944
      -920.1534
  -8835718.66447  -6875440.61342  22018587.4344   22018587.7734
      1852.5014
 -12108317.85548  -9427040.41844  21389155.1294   21389154.3594
      4228.8954
 -11894284.00449  -9266861.98446  19419231.5824   19419229.6884
      1774.7634
 04  9  9 22 23 59.9960000  0  7G19G 3G 8G13G10G28G27
 -15415364.16848 -12006978.48844  21173179.2234   21173175.2664
      1986.9254
  -5835235.77747  -4535102.15642  22250231.7704   22250230.7974
      -454.2574
 -19174606.03149 -14932376.69146  19637098.0744   19637096.7624
      2963.9164
  -1428782.88349  -1113444.92245  20009630.9654   20009629.2624
      -927.0934
  -8863362.71148  -6896981.43442  22013327.4494   22013327.3484
      1842.9364
 -12171684.74648  -9476417.18443  21377096.8634   21377095.6254
      4224.4594
 -11920855.36349  -9287566.93046  19414175.3404   19414173.4494
      1771.4244
 04  9  9 22 24 14.9960000  0  7G19G 3G 8G13G10G28G27
 -15445033.49648 -12030097.43744  21167532.8874   21167529.6454
      1977.9554
  -5828302.18447  -4529699.36342  22251550.7074   22251550.1134
      -462.2404
 -19219011.95749 -14966978.69546  19628647.8954   19628646.4964
      2960.3954
  -1414775.43049  -1102530.04745  20012296.6064   20012294.5634
      -933.8304
  -8890866.17648  -6918412.70343  22008094.0984   22008093.1484
      1833.5644
 -12234987.90248  -9525744.29343  21365050.8954   21365049.6214
      4220.2104
 -11947379.46549  -9308235.06646  19409127.9184   19409125.8984
      1768.2734
 04  9  9 22 24 29.9960000  0  7G19G 3G 8G13G10G28G27
 -15474570.12148 -12053112.97744  21161912.1214   21161908.8014
      1969.1084
  -5821250.95347  -4524204.91842  22252892.6064   22252891.7464
      -470.0824
 -19263366.81249 -15001540.91446  19620207.3094   19620206.0314
      2956.9904
  -1400668.93449  -1091537.98445  20014980.9654   20014978.9104
      -940.4334
  -8918230.98447  -6939735.92642  22002885.8634   22002886.1684
      1824.3214
 -12298229.07048  -9575023.09043  21353016.1524   21353014.6334
      4216.0784
 -11973858.08249  -9328867.75046  19404089.3954   19404087.4454
      1765.2414
 04  9  9 22 24 44.9960000  0  7G19G 3G 8G13G10G28G27
 -15503969.08248 -12076021.23844  21156317.4184   21156314.6094
      1959.9314
  -5814077.43747  -4518615.17642  22254257.6064   22254257.3954
      -478.2344
 -19307665.75849 -15036059.56646  19611777.6524   19611776.1914
      2953.2634
  -1386458.94149  -1080465.28545  20017684.7624   20017682.7194
      -947.3334
  -8945452.32447  -6960947.35243  21997705.4024   21997705.9654
      1814.7564
 -12361403.23848  -9624249.67643  21340994.5904   21340993.0904
      4211.6114
 -12000286.46149  -9349461.29346  19399059.6994   19399058.0394
      1761.8924
 04  9  9 22 24 59.9960000  0  7G19G 3G 8G13G10G28G27
 -15533230.82848 -12098822.58644  21150749.4414   21150746.0664
      1950.7834
  -5806782.50047  -4512930.82442  22255645.4104   22255645.7344
      -486.3294
 -19351909.14549 -15070534.92246  19603358.5744   19603357.0314
      2949.5594
  -1372146.09849  -1069312.43745  20020408.6914   20020406.6484
      -954.1904
  -8972530.73048  -6982047.39843  21992553.2704   21992552.9064
      1805.2274
 -12424511.02048  -9673424.53143  21328985.4024   21328984.3324
      4207.1854
 -12026665.05549  -9370016.03946  19394040.2384   19394038.6094
      1758.5734
 04  9  9 22 25 14.9960000  0  7G19G 3G 8G13G10G28G27
 -15562357.92248 -12121519.00844  21145207.1134   21145203.4144
      1941.8064
  -5799369.07847  -4507154.14842  22257056.5664   22257056.6844
      -494.2284
 -19396099.67649 -15104969.09446  19594949.2854   19594947.5084
      2946.0354
  -1357733.14549  -1058081.57445  20023151.0044   20023149.3444
      -960.8644
  -8999468.79347  -7003038.08642  21987426.8564   21987426.3164
      1795.8714
 -12487554.76648  -9722549.49643  21316988.4734   21316987.5634
      4202.9164
 -12052996.25849  -9390533.85546  19389029.7074   19389027.9774
      1755.4144
 04  9  9 22 25 29.9960000  0  7G19G 3G 8G13G10G28G27
 -15591349.42648 -12144109.79344  21139689.4184   21139686.2934
      1932.7674
  -5791836.55147  -4501284.66042  22258489.4414   22258488.9844
      -502.1684
 -19440236.43749 -15139361.36746  19586550.2154   19586548.3524
      2942.4514
  -1343219.52049  -1046772.28945  20025913.4104   20025911.3754
      -967.5754
  -9026265.79646  -7023918.89543  21982327.4024   21982327.0904
      1786.4674
 -12550533.53948  -9771623.82844  21305004.3874   21305002.7704
      4198.5854
 -12079279.38349  -9411014.21146  19384028.2074   19384026.2624
      1752.2084
 04  9  9 22 25 44.9960000  0  7G19G 3G 8G13G10G28G27
 -15620205.03148 -12166594.66444  21134198.6764   21134195.5164
      1923.7074
  -5784185.02047  -4495322.44142  22259945.5274   22259945.0984
      -510.1024
 -19484319.15249 -15173711.52746  19578161.8094   19578160.2624
      2938.8484
  -1328605.28149  -1035384.58645  20028694.1294   20028692.4264
      -974.2834
  -9052921.60946  -7044689.61743  21977255.8094   21977254.8014
      1777.0544
 -12613447.15648  -9820647.40244  21293031.9814   21293030.7854
      4194.2414
 -12105514.18448  -9431456.91446  19379035.5274   19379033.8364
      1748.9874
 04  9  9 22 25 59.9960000  0  7G19G 3G 8G13G10G28G27
 -15648926.26648 -12188974.84044  21128733.2854   21128730.3634
      1914.7494
  -5776416.10947  -4489268.75842  22261424.4414   22261423.8564
      -517.9274
 -19528349.69149 -15208021.02746  19569783.1604   19569781.1684
      2935.3694
  -1313892.11349  -1023919.81245  20031494.2234   20031492.3524
      -980.8784
  -9079437.81246  -7065351.60943  21972209.8874   21972208.7234
      1767.7474
 -12676297.10548  -9869621.34843  21281072.1684   21281070.8054
      4189.9974
 -12131702.21948  -9451863.17246  19374052.6844   19374050.7034
      1745.8694
 04  9  9 22 26 14.9960000  0  7G19G 3G 8G13G10G28G27
 -15677508.00048 -12211246.32044  21123294.3324   21123290.8524
      1905.4494
  -5768525.20747  -4483120.02742  22262925.0594   22262924.7934
      -526.0604
 -19572322.39149 -15242285.45746  19561415.1604   19561413.6724
      2931.5134
  -1299075.25049  -1012374.21545  20034313.5744   20034311.5554
      -987.7914
  -9105809.49246  -7085900.95743  21967190.9344   21967190.4574
      1758.1124
 -12739078.20348  -9918541.66044  21269125.2314   21269123.9264
      4185.4074
 -12157838.44949  -9472229.05946  19369079.0044   19369077.2464
      1742.4154
 04  9  9 22 26 29.9960000  0  7G19G 3G 8G13G10G28G27
 -15705953.25048 -12233411.43444  21117880.9884   21117877.8674
      1896.3504
  -5760515.71947  -4476878.87142  22264449.5664   22264449.6454
      -533.9664
 -19616240.55149 -15276507.39846  19553057.7774   19553056.1294
      2927.8774
  -1284157.69949  -1000750.17245  20037152.1684   20037150.0354
      -994.5034
  -9132039.68046  -7106340.06243  21962199.8714   21962199.6254
      1748.6794
 -12801793.35548  -9967410.58243  21257190.7624   21257189.5594
      4181.0104
 -12183925.84849  -9492556.90646  19364114.9964   19364112.5904
      1739.1604
 04  9  9 22 26 44.9960000  0  7G19G 3G 8G13G10G28G27
 -15734260.51248 -12255469.03544  21112494.6134   21112491.5634
      1887.1514
  -5752386.44547  -4470544.38742  22265996.3634   22265996.6174
      -541.9524
 -19660102.94949 -15310685.87946  19544711.2774   19544709.6884
      2924.1604
  -1269138.60549   -989047.00445  20040010.2314   20040008.4414
     -1001.2734
  -9158126.98046  -7126667.80543  21957235.3564   21957235.1414
      1739.1534
 -12864441.08248 -10016226.96543  21245269.4344   21245268.3054
      4176.5154
 -12209962.91049  -9512845.52346  19359159.9414   19359158.1644
      1735.8044
 04  9  9 22 26 59.9960000  0  7G19G 3G 8G13G10G28G27
 -15762426.10248 -12277416.24244  21107135.0514   21107131.7344
      1877.7064
  -5744134.18447  -4464114.08242  22267567.1214   22267567.8324
      -550.1514
 -19703905.84849 -15344818.00446  19536375.8094   19536374.2704
      2920.1934
  -1254014.66049   -977262.13345  20042888.2854   20042886.7384
     -1008.2634
  -9184068.02346  -7146881.61743  21952299.6844   21952298.4964
      1729.4034
 -12927017.80948 -10064988.02343  21233361.8484   21233360.3364
      4171.7824
 -12235946.16049  -9533092.20746  19354215.7934   19354213.8874
      1732.2174
 04  9  9 22 27 14.9960000  0  7G19G 3G 8G13G10G28G27
 -15790455.04348 -12299256.96544  21101801.1604   21101798.1334
      1868.5964
  -5735764.23447  -4457592.05942  22269160.2624   22269159.9614
      -557.9974
 -19747654.22749 -15378907.63746  19528050.9104   19528049.1374
      2916.5594
  -1238790.99649   -965399.55945  20045785.4024   20045783.6174
     -1014.9114
  -9209867.78146  -7166985.31643  21947389.5354   21947389.1804
      1719.9844
 -12989528.34848 -10113697.50843  21221466.0664   21221465.1564
      4167.3694
 -12261880.53949  -9553300.81646  19349280.3164   19349278.4264
      1728.9594
 04  9  9 22 27 29.9960000  0  7G19G 3G 8G13G10G28G27
 -15818345.25047 -12320989.58644  21096494.0904   21096490.7074
      1859.3474
  -5727274.75447  -4450976.87542  22270776.0984   22270775.3524
      -565.9654
 -19791345.81249 -15412953.01246  19519736.4414   19519734.6374
      2912.7724
  -1223465.66849   -953457.75845  20048701.5904   20048699.9734
     -1021.6894
  -9235524.31246  -7186977.40243  21942506.8164   21942507.3564
      1710.4354
 -13051970.67248 -10162353.82043  21209584.0204   21209582.0084
      4162.8224
 -12287763.92648  -9573469.68746  19344354.9264   19344352.9344
      1725.5594
 04  9  9 22 27 44.9960000  0  7G19G 3G 8G13G10G28G27
 -15846095.63748 -12342613.26244  21091213.0904   21091209.8404
      1850.0264
  -5718665.05947  -4444268.05542  22272414.1764   22272413.9344
      -573.9804
 -19834979.62149 -15446953.37946  19511433.1684   19511431.5704
      2908.9214
  -1208037.84848   -941436.10545  20051637.4264   20051635.6844
     -1028.5214
  -9261036.52746  -7206857.06243  21937652.1764   21937652.2274
      1700.8144
 -13114343.63348 -10210956.10243  21197715.0044   21197713.1454
      4158.1974
 -12313595.32048  -9593598.04746  19339439.4344   19339437.3674
      1722.0934
 04  9  9 22 27 59.9960000  0  7G19G 3G 8G13G10G28G27
 -15873709.62548 -12364130.64144  21085958.3274   21085954.8354
      1840.8104
  -5709939.00847  -4437468.53942  22274074.7184   22274074.6364
      -581.6984
 -19878559.33249 -15480911.58246  19503140.1634   19503139.0154
      2905.1204
  -1192511.31649   -929337.52745  20054592.4834   20054590.2494
     -1035.0334
  -9286408.22346  -7226627.19542  21932824.4764   21932823.5894
      1691.3344
 -13176650.72348 -10259507.05543  21185857.5854   21185856.1634
      4153.5294
 -12339378.25049  -9613688.63346  19334533.0854   19334530.9334
      1718.7474
 04  9  9 22 28 14.9950000  0  7G19G 3G 8G13G10G28G27
 -15901186.99248 -12385541.56644  21080729.7654   21080726.2304
      1831.9474
  -5701099.00047  -4430580.25442  22275756.6944   22275755.9444
      -589.3734
 -19922083.57849 -15514826.57046  19494857.5854   19494856.0384
      2901.8104
  -1176889.04748   -917164.34845  20057564.9134   20057562.8354
     -1041.5544
  -9311639.39547  -7246287.85543  21928022.5774   21928022.8904
      1682.1904
 -13238889.34448 -10308004.64843  21174014.0544   21174012.6484
      4149.5184
 -12365112.62549  -9633741.39846  19329635.6874   19329634.0154
      1715.7394
 04  9  9 22 28 29.9950000  0  7G19G 3G 8G13G10G28G27
 -15928530.40648 -12406848.12544  21075526.5624   21075522.8624
      1822.8944
  -5692143.16847  -4423601.71142  22277460.6944   22277460.4374
      -597.0554
 -19965557.25449 -15548702.15246  19486585.1484   19486583.4524
      2898.2454
  -1161168.35548   -904914.48445  20060556.8044   20060554.6404
     -1048.0464
  -9336732.55147  -7265840.95742  21923248.1164   21923247.8084
      1672.8774
 -13301066.69148 -10356454.50843  21162181.7884   21162180.5624
      4145.1574
 -12390800.87949  -9653758.20346  19324747.6714   19324745.7654
      1712.5504
 04  9  9 22 28 44.9950000  0  7G19G 3G 8G13G10G28G27
 -15955740.12548 -12428050.48844  21070348.7964   21070344.8984
      1813.9814
  -5683074.68047  -4416535.38742  22279186.8274   22279185.8314
      -604.5664
 -20008979.48448 -15582537.64846  19478322.0384   19478320.5234
      2894.8154
  -1145352.51648   -892590.47745  20063565.9684   20063564.3514
     -1054.3894
  -9361688.13747  -7285286.86743  21918499.3824   21918498.2734
      1663.7064
 -13363180.71948 -10404854.99643  21150362.3744   21150360.7734
      4140.9354
 -12416443.41449  -9673739.40246  19319868.2264   19319865.8664
      1709.5024
 04  9  9 22 28 59.9950000  0  7G19G 3G 8G13G10G28G27
 -15982815.98048 -12449148.55544  21065195.8354   21065192.5114
      1805.0574
  -5673893.69947  -4409381.38342  22280934.4834   22280933.2454
      -612.0654
 -20052350.03149 -15616332.86746  19470068.9134   19470067.3584
      2891.3704
  -1129441.71948   -880192.47345  20066593.9374   20066591.9724
     -1060.7204
  -9386506.18048  -7304625.59043  21913776.5624   21913776.0424
      1654.5364
 -13425231.20748 -10453206.01643  21138554.2494   21138552.4444
      4136.6994
 -12442040.12149  -9693684.88346  19314997.0464   19314995.2454
      1706.4474
 04  9  9 22 29 14.9950000  0  7G19G 3G 8G13G10G28G27
 -16009759.63748 -12470143.60244  21060068.6874   21060065.8154
      1796.2444
  -5664602.25847  -4402141.32842  22282701.7884   22282701.6284
      -619.4294
 -20095670.60949 -15650089.15246  19461825.3744   19461823.8864
      2888.0394
  -1113437.91048   -867721.99645  20069639.5544   20069637.4874
     -1066.9214
  -9411188.45347  -7323858.53543  21909079.2804   21909079.7024
      1645.4854
 -13487219.96548 -10501508.89543  21126758.1324   21126756.8124
      4132.5844
 -12467592.66049  -9713595.94946  19310134.6634   19310132.6364
      1703.5034
 04  9  9 22 29 29.9950000  0  7G19G 3G 8G13G10G28G27
 -16036574.28548 -12491038.11744  21054966.4444   21054963.0774
      1787.6434
  -5655203.77747  -4394817.84042  22284490.8124   22284490.0074
      -626.5654
 -20138944.50049 -15683809.05946  19453590.5384   19453588.6874
      2884.9264
  -1097344.52048   -855181.71545  20072702.0074   20072700.1014
     -1072.8934
  -9435738.27748  -7342988.26243  21904407.5624   21904407.3084
      1636.6554
 -13549150.05548 -10549766.09043  21114972.6874   21114971.4764
      4128.6734
 -12493104.25849  -9733475.12146  19305279.9134   19305278.2534
      1700.7734
 04  9  9 22 29 44.9950000  0  7G19G 3G 8G13G10G28G27
 -16063257.90248 -12511830.55944  21049888.5304   21049885.3514
      1778.9084
  -5645696.59047  -4387409.66042  22286300.0544   22286299.1674
      -633.8124
 -20182169.71148 -15717491.03546  19445365.0154   19445363.3474
      2881.6814
  -1081159.72748   -842570.21145  20075781.8984   20075779.8824
     -1078.9864
  -9460153.74248  -7362013.29343  21899761.8824   21899760.9374
      1627.6984
 -13611019.32848 -10597975.87143  21103200.2494   21103198.7024
      4124.6184
 -12518572.86749  -9753320.78546  19300433.2414   19300431.2534
      1697.9074
 04  9  9 22 29 59.9950000  0  7G19G 3G 8G13G10G28G27
 -16089813.40648 -12532523.12944  21044835.1554   21044832.1984
      1770.3674
  -5636083.93447  -4379919.30942  22288128.6944   22288128.6944
      -640.8444
 -20225349.08248 -15751137.28546  19437148.2184   19437146.4604
      2878.6254
  -1064886.59448   -829889.87545  20078878.3744   20078876.7964
     -1084.8764
  -9484437.87948  -7380936.00043  21895140.6014   21895140.5154
      1618.9424
 -13672830.61348 -10646140.48444  21091437.7654   21091436.3744
      4120.7524
 -12544001.41849  -9773135.24246  19295594.3124   19295592.8474
      1695.2374
 04  9  9 22 30 14.9950000  0  7G19G 3G 8G13G10G28G27
 -16116236.71948 -12553112.73044  21039807.0694   21039804.0774
      1761.5544
  -5626362.15647  -4372343.91042  22289978.7264   22289979.2764
      -648.1184
 -20268478.57849 -15784744.67646  19428941.1874   19428939.3314
      2875.3004
  -1048521.55948   -817137.91445  20081992.6404   20081990.8944
     -1091.0024
  -9508586.70747  -7399753.26243  21890544.8514   21890544.9404
      1609.9224
 -13734579.97748 -10694256.82443  21079686.8744   21079685.9684
      4116.6244
 -12569385.93449  -9792915.37146  19290764.1324   19290762.2534
      1692.3014
 04  9  9 22 30 29.9950000  0  7G19G 3G 8G13G10G28G27
 -16142530.40248 -12573601.29744  21034803.2654   21034800.4724
      1752.9124
  -5616534.07047  -4364685.66842  22291848.5544   22291848.3664
      -655.2064
 -20311560.94948 -15818315.34846  19420742.9374   19420741.3314
      2872.1584
  -1032067.45748   -804316.55945  20085123.7104   20085122.2494
     -1096.9404
  -9532602.88748  -7418467.17243  21885975.5154   21885974.9094
      1601.0794
 -13796269.82048 -10742326.80944  21067947.9994   21067946.8664
      4112.6564
 -12594728.81249  -9812663.07846  19285941.6164   19285939.7924
      1689.5254
 04  9  9 22 30 44.9950000  0  7G19G 3G 8G13G10G28G27
 -16168697.45747 -12593991.21144  21029824.1324   21029820.6874
      1744.4704
  -5606603.16448  -4356947.33242  22293738.7804   22293738.4954
      -662.0604
 -20354599.13749 -15851851.59846  19412552.8514   19412551.2104
      2869.2134
  -1015527.65248   -791428.42245  20088270.9134   20088269.6904
     -1102.6544
  -9556489.64148  -7437080.21543  21881429.8434   21881429.4444
      1592.4504
 -13857903.27048 -10790352.83244  21056219.3044   21056217.9254
      4108.8974
 -12620033.32049  -9832380.86746  19281126.4294   19281124.5154
      1686.9674
 04  9  9 22 30 59.9950000  0  7G19G 3G 8G13G10G28G27
 -16194738.11747 -12614282.62144  21024868.7734   21024865.5234
      1736.0444
  -5596569.96547  -4349129.27342  22295648.4444   22295647.9764
      -668.8804
 -20397593.03949 -15885353.32846  19404371.3984   19404369.6124
      2866.2604
   -998902.40248   -778473.71545  20091435.0384   20091433.2224
     -1108.3504
  -9580247.30947  -7455592.68443  21876908.2264   21876908.5304
      1583.8454
 -13919480.38348 -10838334.97344  21044502.1484   21044500.9254
      4105.1414
 -12645299.60248  -9852068.87946  19276317.9294   19276316.3434
      1684.4194
 04  9  9 22 31 14.9950000  0  7G19G 3G 8G13G10G28G27
 -16220651.05148 -12634474.50844  21019937.7264   21019934.1634
      1727.5294
  -5586433.43447  -4341230.69942  22297577.0234   22297577.1714
      -675.7694
 -20440541.69549 -15918819.80146  19396198.3744   19396196.7764
      2863.2444
   -982190.75048   -765451.68045  20094615.0074   20094613.3314
     -1114.1104
  -9603874.76248  -7474003.68443  21872412.5624   21872412.4334
      1575.1644
 -13980999.77348 -10886272.12944  21032795.2574   21032793.6324
      4101.2934
 -12670526.40249  -9871726.11746  19271517.6634   19271515.9874
      1681.7874
 04  9  9 22 31 29.9950000  0  7G19G 3G 8G13G10G28G27
 -16246437.57048 -12654567.89144  21015030.4684   21015027.6404
      1719.1014
  -5576195.18448  -4333252.84442  22299526.0464   22299525.6554
      -682.5504
 -20483446.30949 -15952251.96146  19388033.9054   19388032.6944
      2860.3084
   -965394.20349   -752363.48845  20097810.9764   20097809.9254
     -1119.7704
  -9627373.34048  -7492314.26643  21867940.7884   21867940.4524
      1566.5724
 -14042462.92248 -10934165.45744  21021099.2414   21021097.6794
      4097.5434
 -12695714.87549  -9891353.50446  19266724.3904   19266722.7614
      1679.2324
 04  9  9 22 31 44.9950000  0  7G19G 3G 8G13G10G28G27
 -16272100.47348 -12674564.95344  21010147.0234   21010143.5934
      1710.8604
  -5565858.39847  -4325198.22342  22301492.3744   22301492.0814
      -689.1194
 -20526309.51649 -15985651.84846  19379877.6014   19379876.0624
      2857.5474
   -948515.95749   -739211.63345  20101023.1244   20101021.3624
     -1125.2164
  -9650746.05548  -7510526.75443  21863493.3584   21863492.8434
      1558.1814
 -14103872.42248 -10982016.98844  21009413.0384   21009411.6484
      4093.9674
 -12720867.95749  -9910953.30946  19261938.3824   19261936.1204
      1676.8724
 04  9  9 22 31 59.9950000  0  7G19G 3G 8G13G10G28G27
 -16297642.46148 -12694467.79744  21005286.8124   21005283.0074
      1702.7994
  -5555426.11747  -4317069.19542  22303477.8274   22303477.3784
      -695.4854
 -20569134.31649 -16019021.81646  19371728.1244   19371726.7414
      2854.9874
   -931558.99249   -725998.44545  20104250.0694   20104248.3624
     -1130.4644
  -9673995.63747  -7528643.31643  21859068.6484   21859068.8084
      1549.9724
 -14165230.85248 -11029828.72344  20997736.6944   20997735.4524
      4090.5624
 -12745988.28149  -9930527.57846  19257158.0384   19257155.9054
      1674.6884
 04  9  9 22 32 14.9950000  0  7G19G 3G 8G13G10G28G27
 -16323056.92648 -12714271.27044  21000450.2734   21000447.0694
      1694.2984
  -5544892.04747  -4308860.82842  22305481.8824   22305482.3354
      -702.2714
 -20611913.84449 -16052356.51246  19363587.5154   19363586.1054
      2851.9684
   -914516.94949   -712718.94945  20107492.9604   20107491.6164
     -1136.1364
  -9697115.62547  -7546658.89843  21854669.4524   21854668.8004
      1541.3334
 -14226531.71148 -11077595.59844  20986072.0694   20986070.1054
      4086.7244
 -12771069.28549  -9950071.21946  19252385.2264   19252383.1244
      1672.0674
 04  9  9 22 32 29.9950000  0  7G19G 3G 8G13G10G28G27
 -16348347.98448 -12733978.57844  20995637.8824   20995634.4874
      1686.0714
  -5534260.71147  -4300576.69542  22307505.6404   22307505.1984
      -708.7564
 -20654652.49649 -16085659.34846  19355454.6164   19355453.1674
      2849.2434
   -897394.22749   -699376.59045  20110751.2804   20110749.5194
     -1141.5154
  -9720110.40648  -7564576.90643  21850293.6714   21850293.5424
      1532.9854
 -14287779.13748 -11125320.84044  20974416.6404   20974415.0654
      4083.1624
 -12796115.16449  -9969587.48446  19247619.0234   19247616.7694
      1669.7254
 04  9  9 22 32 44.9950000  0  7G19G 3G 8G13G10G28G27
 -16373516.44548 -12753590.34844  20990848.0074   20990844.9764
      1677.8974
  -5523533.15247  -4292217.59442  22309547.2884   22309546.7764
      -715.1714
 -20697350.81249 -16118930.75446  19347329.1634   19347327.8084
      2846.5544
   -880191.75049   -685972.08645  20114025.2104   20114023.3004
     -1146.8324
  -9742980.72748  -7582397.91843  21845941.3514   21845941.1364
      1524.6884
 -14348973.77048 -11173004.94144  20962771.9914   20962770.5344
      4079.6424
 -12821126.61749  -9989076.93746  19242859.4134   19242857.3624
      1667.4304
 04  9  9 22 32 59.9950000  0  7G19G 3G 8G13G10G28G27
 -16398554.40248 -12773100.44144  20986083.5464   20986079.9444
      1669.1974
  -5512701.91047  -4283777.67242  22311608.2414   22311607.8744
      -722.0834
 -20740001.02349 -16152164.68046  19339212.8584   19339211.4954
      2843.3474
   -862901.95749   -672499.55145  20117315.4054   20117313.5154
     -1152.6534
  -9765718.91848  -7600116.01642  21841614.8584   21841613.9404
      1515.8794
 -14410107.59448 -11220641.64844  20951138.5384   20951136.8314
      4075.5884
 -12846095.67249 -10008533.34046  19238107.9684   19238105.7694
      1664.6044
 04  9  9 22 33 14.9950000  0  7G19G 3G 8G13G10G28G27
 -16423465.86748 -12792511.96544  20981343.1164   20981339.7764
      1660.7644
  -5501771.12947  -4275260.18042  22313688.3044   22313687.6984
      -728.7194
 -20782606.95349 -16185364.09446  19331105.3744   19331103.7024
      2840.3954
   -845529.06249   -658962.26245  20120621.3514   20120619.1084
     -1158.1934
  -9788329.05547  -7617734.28943  21837311.5074   21837311.8234
      1507.3424
 -14471184.54748 -11268234.05144  20939515.5384   20939513.9054
      4071.7974
 -12871026.45349 -10027959.91846  19233364.1554   19233361.8784
      1662.0524
 04  9  9 22 33 29.9950000  0  7G19G 3G 8G13G10G28G27
 -16448249.35548 -12811823.75844  20976627.0154   20976623.9954
      1652.2334
  -5490739.68447  -4266664.27742  22315787.4994   22315786.7304
      -735.4304
 -20825167.14149 -16218527.87546  19323006.6244   19323004.9644
      2837.3464
   -828072.16049   -645359.50445  20123942.9764   20123941.6874
     -1163.7934
  -9810809.85547  -7635251.78543  21833033.7494   21833033.8084
      1498.7204
 -14532203.21948 -11315781.04744  20927904.5694   20927902.9914
      4067.9114
 -12895917.38749 -10047355.45346  19228627.2804   19228625.4914
      1659.3964
 04  9  9 22 33 44.9950000  0  7G19G 3G 8G13G10G28G27
 -16472904.87948 -12831035.83644  20971934.9444   20971931.6324
      1643.7024
  -5479608.16047  -4257990.37942  22317905.2104   22317905.5504
      -742.1024
 -20867681.74649 -16251656.12946  19314916.3274   19314914.4014
      2834.3074
   -810531.33249   -631691.35945  20127281.2884   20127279.1364
     -1169.3894
  -9833161.34848  -7652668.55143  21828780.8124   21828780.4764
      1490.0994
 -14593163.66448 -11363282.65644  20916303.3514   20916302.0584
      4064.0304
 -12920768.64849 -10066720.06646  19223898.4134   19223896.4644
      1656.7514
 04  9  9 22 33 59.9950000  0  7G19G 3G 8G13G10G28G27
 -16497435.17248 -12850150.34044  20967266.8744   20967263.7764
      1635.3534
  -5468379.53547  -4249240.82042  22320042.2734   22320042.2764
      -748.5754
 -20910153.37149 -16284750.88746  19306834.0934   19306832.3234
      2831.4424
   -792909.51249   -617960.09045  20130634.1014   20130632.5384
     -1174.7884
  -9855386.55148  -7669986.89843  21824551.0304   21824551.2884
      1481.6804
 -14654068.45348 -11410740.90244  20904713.8984   20904712.2844
      4060.3194
 -12945582.80949 -10086055.77346  19219176.2804   19219174.3944
      1654.2774
 04  9  9 22 34 14.9950000  0  7G19G 3G 8G13G10G28G27
 -16521836.11748 -12869164.05544  20962623.3824   20962620.7334
      1626.7304
  -5457050.01247  -4240412.64842  22322197.9054   22322197.6054
      -755.3024
 -20952577.86749 -16317808.93046  19298760.8584   19298759.3984
      2828.3004
   -775202.84049   -604162.70745  20134003.7574   20134002.1594
     -1180.4454
  -9877481.35948  -7687203.61743  21820347.2494   21820346.6054
      1472.9874
 -14714913.44148 -11458152.55944  20893135.3514   20893133.6674
      4056.3334
 -12970355.87549 -10105359.46146  19214462.1164   19214460.2184
      1651.5384
 04  9  9 22 34 29.9950000  0  7G19G 3G 8G13G10G28G27
 -16546109.54748 -12888078.40244  20958004.5074   20958001.4914
      1618.2294
  -5445621.70747  -4231507.46942  22324372.7884   22324372.2224
      -761.8874
 -20994956.90249 -16350831.54746  19290696.4524   19290695.1984
      2825.2694
   -757413.41448   -590300.84845  20137388.7024   20137387.1084
     -1185.9624
  -9899447.70748  -7704320.25043  21816166.9994   21816166.8704
      1464.4234
 -14775700.43448 -11505519.02344  20881568.0074   20881566.5624
      4052.4664
 -12995089.53549 -10124632.44546  19209755.4684   19209753.2734
      1648.9114
 04  9  9 22 34 44.9950000  0  7G19G 3G 8G13G10G28G27
 -16570251.46948 -12906890.28144  20953410.6554   20953407.0344
      1609.4614
  -5434091.01247  -4222522.53942  22326567.4524   22326566.5154
      -768.7134
 -21037286.75049 -16383815.83646  19282641.6324   19282639.9374
      2821.9904
   -739537.46149   -576371.56245  20140790.8044   20140788.9804
     -1191.7304
  -9921281.72348  -7721333.78143  21812012.3824   21812011.9834
      1455.6014
 -14836425.28148 -11552837.04343  20870012.6944   20870010.7334
      4048.3234
 -13019779.77349 -10143871.59046  19205056.7884   19205055.0504
      1646.0164
 04  9  9 22 34 59.9950000  0  7G19G 3G 8G13G10G28G27
 -16594266.74648 -12925603.47344  20948840.3664   20948837.4804
      1601.0184
  -5422462.90647  -4213461.69542  22328778.8354   22328779.3554
      -775.2074
 -21079572.02349 -16416765.39546  19274594.8904   19274593.5344
      2819.0184
   -721580.25849   -562378.96144  20144207.7804   20144206.2924
     -1197.1474
  -9942988.45748  -7738248.12543  21807881.8984   21807881.2304
      1447.1164
 -14897092.88748 -11600110.48044  20858468.0074   20858466.2734
      4044.5074
 -13044431.45349 -10163080.69146  19200365.9604   19200363.8044
      1643.4454
 04  9  9 22 35 14.9950000  0  7G19G 3G 8G13G10G28G27
 -16618155.80547 -12944218.31244  20944295.0304   20944291.3394
      1592.6044
  -5410738.32447  -4204325.69542  22331011.2574   22331010.7334
      -781.6394
 -21121813.41849 -16449680.75846  19266556.7574   19266554.9134
      2816.0934
   -703542.47748   -548323.57445  20147640.3514   20147638.6754
     -1202.5194
  -9964568.50048  -7755063.73443  21803774.6404   21803774.7264
      1438.6704
 -14957703.58248 -11647339.55944  20846934.1244   20846932.1594
      4040.7134
 -13069044.99648 -10182260.07046  19195681.9444   19195680.1484
      1640.9034
 04  9  9 22 35 29.9950000  0  7G19G 3G 8G13G10G28G27
 -16641920.53547 -12962736.27344  20939772.7884   20939769.1514
      1584.3154
  -5398919.50847  -4195116.26642  22333260.4834   22333259.7144
      -787.9214
 -21164012.62549 -16482563.25446  19258526.3824   19258524.9684
      2813.2804
   -685426.02348   -534206.89145  20151087.8044   20151086.0154
     -1207.7644
  -9986023.88747  -7771782.21143  21799691.6874   21799691.7844
      1430.3594
 -15018259.33248 -11694525.82844  20835410.5154   20835409.2924
      4037.0504
 -13093622.25449 -10201411.18046  19191005.4374   19191003.3904
      1638.4844
 04  9  9 22 35 44.9950000  0  7G19G 3G 8G13G10G28G27
 -16665555.30948 -12981152.96944  20935275.0624   20935271.6164
      1575.6524
  -5387001.17247  -4185829.24242  22335527.7184   22335527.5464
      -794.5564
 -21206164.00049 -16515408.46946  19250504.9834   19250503.4374
      2810.0924
   -667225.80948   -520024.93045  20154551.4374   20154549.6054
     -1213.3484
 -10007349.12947  -7788399.29343  21795633.9374   21795633.4254
      1421.6834
 -15078754.33248 -11741664.75844  20823898.8664   20823897.2104
      4033.0004
 -13118157.73449 -10220529.73446  19186336.2884   19186334.3084
      1635.6994
 04  9  9 22 35 59.9950000  0  7G19G 3G 8G13G10G28G27
 -16689067.06648 -12999473.82444  20930800.4374   20930796.9444
      1567.4514
  -5374990.42247  -4176470.27042  22337813.4684   22337813.6364
      -800.7174
 -21248274.28149 -16548221.66846  19242491.6484   19242490.3624
      2807.3524
   -648948.94148   -505783.24245  20158029.0854   20158027.1554
     -1218.4584
 -10028551.19148  -7804920.38343  21791599.2654   21791598.7414
      1413.4714
 -15139195.44548 -11788761.70343  20812397.3904   20812395.3004
      4029.4084
 -13142658.28949 -10239621.07046  19181673.8984   19181672.0934
      1633.3704
 04  9  9 22 36 14.9950000  0  7G19G 3G 8G13G10G28G27
 -16712456.49648 -13017699.32444  20926349.6014   20926346.4404
      1559.2954
  -5362888.39547  -4167040.15642  22340116.5694   22340116.7574
      -806.8024
 -21290344.33249 -16581003.51646  19234486.3904   19234484.6674
      2804.6704
   -630596.31648   -491482.52044  20161521.6244   20161520.0154
     -1223.5084
 -10049630.96948  -7821346.19143  21787587.9214   21787587.6984
      1405.3184
 -15199583.32048 -11835817.14844  20800905.5464   20800904.0304
      4025.8584
 -13167124.43449 -10258685.60246  19177018.3044   19177016.2694
      1631.0764
 04  9  9 22 36 29.9950000  0  7G19G 3G 8G13G10G28G27
 -16735721.88748 -13035828.19544  20921922.8274   20921919.3944
      1551.0264
  -5350693.74247  -4157537.83642  22342437.5464   22342437.2024
      -812.9774
 -21332372.46149 -16613752.69946  19226488.2654   19226486.9564
      2801.8754
   -612166.64548   -477121.75045  20165028.7654   20165026.8864
     -1228.6454
 -10070586.93448  -7837675.50443  21783600.7334   21783600.0344
      1397.0644
 -15259916.25448 -11882829.79744  20789424.7024   20789423.3664
      4022.1964
 -13191554.58249 -10277722.08246  19172369.3744   19172367.2104
      1628.6774
 04  9  9 22 36 44.9950000  0  7G19G 3G 8G13G10G28G27
 -16758863.62948 -13053860.71144  20917518.8354   20917515.7224
      1542.7834
  -5338407.02747  -4147963.78542  22344775.9604   22344775.2534
      -819.1144
 -21374358.93749 -16646469.43046  19218498.6634   19218497.3314
      2799.0984
   -593660.36748   -462701.29745  20168550.4134   20168548.5774
     -1233.7524
 -10091419.41447  -7853908.60943  21779635.7494   21779635.5074
      1388.8324
 -15320194.46548 -11929799.79344  20777954.2804   20777952.6404
      4018.5474
 -13215948.93449 -10296730.66446  19167727.2494   19167725.0894
      1626.2904
 04  9  9 22 36 59.9950000  0  7G19G 3G 8G13G10G28G27
 -16781882.27748 -13071797.31644  20913138.3664   20913135.1054
      1534.5774
  -5326029.23847  -4138318.75842  22347131.0544   22347130.8194
      -825.1864
 -21416304.38748 -16679154.18046  19210516.8044   19210515.3864
      2796.3634
   -575078.41848   -448221.89145  20172086.4134   20172084.5264
     -1238.7974
 -10112129.12148  -7870046.05543  21775694.9374   21775694.0344
      1380.6474
 -15380418.61748 -11976727.68744  20766493.9524   20766492.3084
      4014.9434
 -13240308.17249 -10315711.89146  19163091.7024   19163089.9054
      1623.9494
 04  9  9 22 37 14.9950000  0  7G19G 3G 8G13G10G28G27
 -16804778.84048 -13089638.78544  20908781.5934   20908778.1284
      1526.4384
  -5313561.53547  -4128603.68042  22349503.2264   22349503.2574
      -831.1804
 -21458209.71148 -16711807.67646  19202542.5234   19202540.7964
      2793.6884
   -556421.89548   -433684.36344  20175636.4054   20175634.8624
     -1243.7684
 -10132717.16448  -7886088.69943  21771777.6554   21771777.0814
      1372.5364
 -15440589.43048 -12023614.00044  20755043.7964   20755041.8474
      4011.3874
 -13264633.30149 -10334666.53146  19158462.8984   19158460.9444
      1621.6754
 04  9  9 22 37 29.9950000  0  7G19G 3G 8G13G10G28G27
 -16827547.75848 -13107380.78944  20904448.4914   20904445.4804
      1517.9284
  -5300998.94147  -4118814.65642  22351893.7654   22351893.9764
      -837.5064
 -21500069.21549 -16744425.46146  19194577.0304   19194575.4994
      2790.6344
   -537685.74648   -419084.80544  20179202.0854   20179200.3394
     -1249.0774
 -10153178.34448  -7902032.46143  21767884.1554   21767883.2064
      1364.0794
 -15500701.54348 -12070454.58244  20743604.7024   20743603.2144
      4007.4744
 -13288918.68049 -10353590.20346  19153841.3904   19153839.4404
      1619.0254
 04  9  9 22 37 44.9950000  0  7G19G 3G 8G13G10G28G27
 -16850194.11348 -13125027.28944  20900139.0234   20900135.7654
      1509.7574
  -5288346.68047  -4108955.78142  22354301.6944   22354302.1284
      -843.4844
 -21541888.04749 -16777011.55146  19186619.0694   19186617.3624
      2787.9224
   -518875.16848   -404427.23845  20182781.7574   20182779.7374
     -1254.0394
 -10173517.76247  -7917881.37943  21764013.4524   21764012.3274
      1355.9614
 -15560759.89848 -12117253.26644  20732176.5774   20732174.0654
      4003.8904
 -13313169.37949 -10372486.84846  19149226.9134   19149224.9874
      1616.7134
 04  9  9 22 37 59.9950000  0  7G19G 3G 8G13G10G28G27
 -16872716.57848 -13142577.25844  20895853.4914   20895849.5344
      1501.4984
  -5275603.64847  -4099026.17242  22356726.4994   22356726.3044
      -849.5354
 -21583664.66449 -16809564.75446  19178669.3354   19178667.5734
      2785.1084
   -499988.90648   -389710.69945  20186375.5774   20186373.8624
     -1259.0844
 -10193734.03948  -7933634.32042  21760165.8744   21760165.8514
      1347.7524
 -15620762.91448 -12164008.83244  20720757.6714   20720756.2024
      4000.2014
 -13337383.83649 -10391355.25846  19144619.0154   19144617.1324
      1614.2974
 04  9  9 22 38 14.9950000  0  7G19G 3G 8G13G10G28G27
 -16895114.54748 -13160030.20344  20891590.9914   20891587.6084
      1493.1984
  -5262769.80147  -4089025.80142  22359168.4604   22359169.2334
      -855.5904
 -21625398.54749 -16842084.65246  19170727.3194   19170725.7374
      2782.2594
   -481026.78148   -374935.04745  20189984.0774   20189982.1244
     -1264.1424
 -10213826.89848  -7949291.09443  21756342.5854   21756342.9484
      1339.5244
 -15680710.18049 -12210720.94944  20709350.4134   20709348.3234
      3996.4844
 -13361561.63749 -10410195.10246  19140017.7734   19140016.0114
      1611.8534
 04  9  9 22 38 29.9950000  0  7G19G 3G 8G13G10G28G27
 -16917388.32048 -13177386.37944  20887352.8514   20887348.7574
      1484.9184
  -5249845.62947  -4078955.02042  22361628.8354   22361628.1324
      -861.6114
 -21667089.71149 -16874571.27046  19162793.9294   19162792.3434
      2779.4114
   -461989.37948   -360100.73044  20193606.5774   20193605.0734
     -1269.1604
 -10233796.75048  -7964852.02743  21752542.5234   21752542.0544
      1331.3234
 -15740601.64148 -12257389.59044  20697953.1484   20697950.8554
      3992.7644
 -13385702.85549 -10429006.43746  19135424.0854   19135422.0504
      1609.4154
 04  9  9 22 38 44.9950000  0  7G19G 3G 8G13G10G28G27
 -16939534.96148 -13194643.50844  20883138.1484   20883134.8624
      1476.4434
  -5236828.64846  -4068811.93442  22364104.8584   22364105.3314
      -867.7994
 -21708735.55549 -16907022.57446  19154868.9914   19154867.3664
      2776.3904
   -442874.06248   -345205.69944  20197244.0694   20197242.6084
     -1274.3544
 -10253640.82848  -7980314.93743  21748766.5464   21748765.6874
      1322.9394
 -15800434.46149 -12304012.53544  20686567.7104   20686565.8314
      3988.8554
 -13409804.66049 -10447787.06246  19130837.6554   19130835.7184
      1606.7874
 04  9  9 22 38 59.9950000  0  7G19G 3G 8G13G10G28G27
 -16961557.71948 -13211804.09044  20878947.7654   20878943.9684
      1468.1844
  -5223722.27747  -4058599.20742  22366599.0234   22366599.5694
      -873.7584
 -21750339.14849 -16939440.94146  19146951.9684   19146950.3354
      2773.5734
   -423684.30148   -330252.66444  20200895.8664   20200894.5234
     -1279.3174
 -10273362.49248  -7995682.46543  21745012.9214   21745013.0264
      1314.7784
 -15860211.81249 -12350592.25844  20675192.4834   20675190.3434
      3985.1574
 -13433870.14549 -10466539.37946  19126258.1244   19126256.2654
      1604.3664
 04  9  9 22 39 14.9950000  0  7G19G 3G 8G13G10G28G27
 -16983456.97748 -13228868.43444  20874779.8824   20874776.8354
      1459.9514
  -5210527.37547  -4048317.50042  22369110.0694   22369110.2184
      -879.6604
 -21791900.73849 -16971826.59846  19139043.2574   19139041.5854
      2770.7734
   -404420.72748   -315242.12144  20204561.4294   20204560.0584
     -1284.2384
 -10292962.27348  -8010955.03943  21741284.0624   21741283.4804
      1306.6524
 -15919934.13348 -12397129.09844  20663827.7574   20663825.4214
      3981.4884
 -13457899.88349 -10485263.84846  19121685.3744   19121683.5814
      1601.9834
 04  9  9 22 39 29.9950000  0  7G19G 3G 8G13G10G28G27
 -17005231.77048 -13245835.79744  20870636.2334   20870633.1794
      1451.6534
  -5197243.19547  -4037966.18442  22371638.1794   22371637.3124
      -885.6124
 -21833419.43049 -17004178.81246  19131142.6554   19131140.7884
      2767.9134
   -385082.55148   -300173.44544  20208241.4604   20208240.2144
     -1289.2124
 -10312439.25447  -8026131.90242  21737577.1874   21737576.6874
      1298.4654
 -15979600.29348 -12443622.18444  20652473.3514   20652471.3584
      3977.7444
 -13481892.66049 -10503959.52346  19117119.9134   19117117.8864
      1599.5184
 04  9  9 22 39 44.9950000  0  7G19G 3G 8G13G10G28G27
 -17026881.27748 -13262705.54744  20866516.6084   20866513.4834
      1443.3014
  -5183869.20747  -4027544.93442  22374183.4054   22374182.5154
      -891.5994
 -21874894.14849 -17036496.77346  19123249.9294   19123248.0654
      2764.9814
   -365669.34048   -285046.30144  20211936.0624   20211934.1794
     -1294.2144
 -10331792.70347  -8041212.52043  21733894.6244   21733893.3004
      1290.2304
 -16039209.41048 -12490070.81244  20641129.7104   20641128.3434
      3973.9414
 -13505847.65249 -10522625.74646  19112561.3274   19112559.3154
      1596.9994
 04  9  9 22 39 59.9950000  0  7G19G 3G 8G13G10G28G27
 -17048406.57448 -13279478.49644  20862420.7104   20862417.1874
      1435.0204
  -5170406.81247  -4017054.75442  22376745.3124   22376744.6514
      -897.4934
 -21916326.00049 -17068781.31246  19115365.8044   19115364.3084
      2762.1234
   -346182.13748   -269861.49244  20215643.8354   20215642.4254
     -1299.1474
 -10351023.90648  -8056197.88743  21730234.9834   21730235.0504
      1282.0804
 -16098762.46148 -12536475.75444  20629797.4994   20629795.7734
      3970.2034
 -13529765.87549 -10541263.32046  19108009.6944   19108007.9644
      1594.5484
 04  9  9 22 40 14.9950000  0  7G19G 3G 8G13G10G28G27
 -17069808.41448 -13296155.25044  20858347.9054   20858344.4914
      1426.7894
  -5156857.16047  -4006496.57442  22379323.5934   22379323.5034
      -903.3104
 -21957715.69949 -17101033.02346  19107489.6554   19107487.9954
      2759.3134
   -326622.06648   -254619.90644  20219366.0854   20219364.8944
     -1304.0054
 -10370133.81248  -8071088.70343  21726598.1244   21726597.7654
      1273.9944
 -16158260.23848 -12582837.62144  20618475.3744   20618473.3904
      3966.5184
 -13553648.06649 -10559872.82046  19103465.4684   19103463.1754
      1592.1464
 04  9  9 22 40 29.9950000  0  7G19G 3G 8G13G10G28G27
 -17091083.09448 -13312732.91444  20854299.5934   20854296.3514
      1418.3124
  -5143216.58647  -3995867.60242  22381919.2184   22381918.9724
      -909.3724
 -21999059.50449 -17133248.95746  19099622.0234   19099620.4724
      2756.2544
   -306985.71948   -239318.89544  20223102.7734   20223101.4914
     -1309.0904
 -10389118.65248  -8085882.09043  21722985.4294   21722985.4604
      1265.6564
 -16217698.65648 -12629153.23444  20607164.6794   20607162.8434
      3962.5614
 -13577490.47349 -10578451.31246  19098928.3744   19098926.1054
      1589.4944
 04  9  9 22 40 44.9950000  0  7G19G 3G 8G13G10G28G27
 -17112231.00848 -13329211.79744  20850275.4994   20850271.7024
      1409.8614
  -5129485.89847  -3985168.38342  22384531.8824   22384531.4564
      -915.3794
 -22040357.88749 -17165429.51246  19091763.1324   19091761.6084
      2753.2264
   -287273.67248   -223958.89544  20226854.1244   20226852.8084
     -1314.1364
 -10407979.08248  -8100578.54743  21719396.6554   21719396.3084
      1257.3624
 -16277078.33248 -12675423.09044  20595864.8124   20595862.9214
      3958.6454
 -13601293.35949 -10596999.02046  19094398.8194   19094396.5114
      1586.8594
 04  9  9 22 40 59.9950000  0  7G19G 3G 8G13G10G28G27
 -17133251.77348 -13345591.61344  20846274.7494   20846271.7224
      1401.3844
  -5115665.11747  -3974398.94142  22387161.5304   22387161.7414
      -921.3854
 -22081610.09449 -17197574.08246  19083913.2884   19083911.3274
      2750.1474
   -267485.71148   -208539.74644  20230619.5544   20230618.3474
     -1319.1974
 -10426714.80548  -8115177.81643  21715831.4914   21715830.7964
      1249.0484
 -16336398.66048 -12721646.68744  20584576.6944   20584574.5894
      3954.6894
 -13625056.25449 -10615515.55146  19089876.5544   19089874.7104
      1584.1934
 04  9  9 22 41 14.9950000  0  7G19G 3G 8G13G10G28G27
 -17154143.56648 -13361870.93044  20842299.2654   20842295.8394
      1392.7864
  -5101752.74247  -3963558.16842  22389809.7884   22389808.7804
      -927.4924
 -22122814.30549 -17229681.24646  19076072.0234   19076070.5194
      2746.9474
   -247620.35548   -193060.27044  20234400.0934   20234398.3274
     -1324.3574
 -10445324.09848  -8129678.54743  21712290.3274   21712290.0464
      1240.6204
 -16395657.73448 -12767822.54344  20573299.2494   20573298.2454
      3950.6054
 -13648777.35549 -10633999.52346  19085362.4834   19085360.7694
      1581.4074
 04  9  9 22 41 29.9950000  0  7G19G 3G 8G13G10G28G27
 -17174908.23048 -13378051.18444  20838347.8124   20838344.9254
      1384.3114
  -5087750.87147  -3952647.63342  22392473.3274   22392473.5694
      -933.4584
 -22163972.45749 -17261752.52346  19068240.2964   19068238.3044
      2743.8774
   -227679.80148   -177522.20344  20238194.6874   20238193.1834
     -1329.3704
 -10463808.96148  -8144082.35543  21708772.4214   21708772.1324
      1232.3244
 -16454857.39148 -12813952.12144  20562034.4374   20562032.6484
      3946.6444
 -13672458.39849 -10652452.28946  19080856.1634   19080854.1944
      1578.7364
 04  9  9 22 41 44.9950000  0  7G19G 3G 8G13G10G28G27
 -17195543.65648 -13394130.73044  20834420.9994   20834418.0194
      1375.6954
  -5073657.71947  -3941665.97342  22395155.9604   22395155.3194
      -939.5434
 -22205082.13349 -17293786.03546  19060417.4294   19060415.4484
      2740.6454
   -207662.05148   -161923.97744  20242003.4994   20242002.4644
     -1334.5174
 -10482167.44947  -8158387.65643  21705278.6014   21705278.2144
      1223.8994
 -16513995.49648 -12860033.72344  20550780.9604   20550778.9334
      3942.5404
 -13696097.28149 -10670872.19946  19076357.8904   19076356.1634
      1575.9264
 04  9  9 22 41 59.9950000  0  7G19G 3G 8G13G10G28G27
 -17216049.94548 -13410109.64544  20830519.0934   20830515.8314
      1367.0864
  -5059473.67247  -3930613.48442  22397854.6324   22397855.0504
      -945.6034
 -22246143.60949 -17325781.97746  19052603.3354   19052601.7574
      2737.4324
   -187567.41048   -146265.86744  20245827.5774   20245826.1594
     -1339.6434
 -10500399.78947  -8172594.69543  21701809.2414   21701809.2334
      1215.4894
 -16573072.10248 -12906067.41844  20539539.0774   20539537.0894
      3938.4404
 -13719694.05549 -10689259.29346  19071867.4604   19071865.4874
      1573.1184
 04  9  9 22 42 14.9950000  0  7G19G 3G 8G13G10G28G27
 -17236428.26248 -13425988.85244  20826641.4374   20826638.0424
      1358.5544
  -5045200.17247  -3919491.30542  22400570.7884   22400570.8084
      -951.5674
 -22287157.98849 -17357741.22746  19044798.3984   19044797.0774
      2734.2924
   -167397.31248   -130548.92644  20249665.7104   20249664.3084
     -1344.6734
 -10518507.26248  -8186704.41443  21698364.3584   21698363.8554
      1207.1654
 -16632088.16848 -12952053.92644  20528308.5694   20528306.6904
      3934.4044
 -13743249.70349 -10707614.34446  19067385.2334   19067383.0384
      1570.3774
 04  9  9 22 42 29.9950000  0  7G19G 3G 8G13G10G28G27
 -17256672.98048 -13441763.94544  20822788.3824   20822785.3434
      1349.6484
  -5030831.94947  -3908295.28142  22403305.2804   22403304.5814
      -957.8824
 -22328119.33249 -17389659.14846  19037003.9994   19037002.5034
      2730.7564
   -147146.28949   -114768.93744  20253519.7264   20253518.3314
     -1350.0684
 -10536484.33647  -8200712.51643  21694943.0304   21694942.5734
      1198.4724
 -16691037.93448 -12997988.77744  20517090.5304   20517088.6404
      3929.9844
 -13766758.64549 -10725932.99246  19062911.5074   19062909.5654
      1567.2634
 04  9  9 22 42 44.9950000  0  7G19G 3G 8G13G10G28G27
 -17276787.12148 -13457437.30144  20818961.2264   20818958.2534
      1340.9434
  -5016372.29747  -3897028.04742  22406056.9834   22406056.8904
      -963.9774
 -22369030.62149 -17421538.06246  19029219.0544   19029217.3274
      2727.4194
   -126817.76248    -98928.55944  20257388.1794   20257386.4334
     -1355.2354
 -10554334.12948  -8214621.44543  21691546.3514   21691546.0934
      1189.9864
 -16749924.41448 -13043874.31644  20505885.1484   20505882.9444
      3925.7654
 -13790223.74249 -10744217.48446  19058446.3824   19058444.1014
      1564.3404
 04  9  9 22 42 59.9950000  0  7G19G 3G 8G13G10G28G27
 -17296771.62148 -13473009.62944  20815158.2654   20815155.0234
      1332.3004
  -5001822.44947  -3885690.51642  22408825.4294   22408824.9834
      -969.9904
 -22409892.66849 -17453378.61746  19021443.2884   19021441.6014
      2724.1364
   -106412.84048    -83028.64544  20261270.9604   20261269.5424
     -1360.3284
 -10572057.72748  -8228432.05543  21688173.6324   21688172.9564
      1181.5734
 -16808748.42648 -13089711.17244  20494691.3514   20494689.3944
      3921.6014
 -13813645.93049 -10762468.53946  19053989.2414   19053987.2924
      1561.4794
 04  9  9 22 43 14.9950000  0  7G19G 3G 8G13G10G28G27
 -17316620.68448 -13488476.42644  20811381.0624   20811377.4174
      1323.2714
  -4987176.80147  -3874278.35942  22411612.7574   22411613.0584
      -976.3774
 -22450699.83649 -17485176.39846  19013677.7654   19013676.1204
      2720.4784
    -85925.96948    -67064.88344  20265169.4604   20265168.4484
     -1365.7914
 -10589649.50847  -8242139.94543  21684825.9604   21684825.1834
      1172.7854
 -16867504.11748 -13135494.80944  20483510.3664   20483508.1244
      3917.0464
 -13837019.28149 -10780681.53946  19049541.2884   19049539.0234
      1558.2234
 04  9  9 22 43 29.9950000  0  7G19G 3G 8G13G10G28G27
 -17336334.81248 -13503838.07444  20807629.5304   20807625.8434
      1314.2754
  -4972436.27747  -3862792.24642  22414417.5154   22414417.4914
      -982.7024
 -22491452.36749 -17516931.62146  19005922.9294   19005920.9914
      2716.8354
    -65357.90648    -51037.84444  20269083.5154   20269082.0074
     -1371.2044
 -10607110.12148  -8255745.61743  21681503.7964   21681502.8394
      1164.0414
 -16926192.00848 -13181225.60244  20472342.3194   20472340.3584
      3912.5264
 -13860344.27349 -10798856.85946  19045102.7494   19045100.8194
      1554.9994
 04  9  9 22 43 44.9950000  0  7G19G 3G 8G13G10G28G27
 -17355910.81248 -13519092.10244  20803904.1634   20803901.2184
      1305.0674
  -4957598.06247  -3851230.04342  22417241.8354   22417241.1284
      -989.2144
 -22532147.18749 -17548641.85546  18998178.8904   18998176.8354
      2712.9884
    -44705.66448    -34945.22344  20273013.2264   20273012.2104
     -1376.8164
 -10624436.57048  -8269246.73843  21678206.0624   21678205.6754
      1155.0974
 -16984808.75048 -13226900.96144  20461188.1164   20461185.8664
      3907.7834
 -13883617.73049 -10816992.02046  19040673.8664   19040671.8704
      1551.5644
 04  9  9 22 43 59.9950000  0  7G19G 3G 8G13G10G28G27
 -17375351.69948 -13534240.84044  20800205.0854   20800201.3744
      1296.0594
  -4942665.48047  -3839594.26242  22420083.3044   22420082.7764
      -995.5054
 -22572787.19549 -17580309.38346  18990445.2884   18990443.3004
      2709.3344
    -23972.46948    -18789.52044  20276958.9294   20276957.3084
     -1382.2134
 -10641631.92647  -8282645.73043  21674933.9684   21674933.5074
      1146.3574
 -17043357.39848 -13272523.25444  20450046.6714   20450044.2454
      3903.2434
 -13906842.44949 -10835089.19946  19036254.8434   19036252.8664
      1548.3154
 04  9  9 22 44 14.9950000  0  7G19G 3G 8G13G10G28G27
 -17394653.23448 -13549280.99244  20796532.3274   20796528.4914
      1286.7694
  -4927634.44547  -3827881.80142  22422943.1554   22422943.1594
     -1002.0694
 -22613368.00449 -17611930.79346  18982722.8904   18982721.3624
      2705.3874
     -3154.31248     -2567.60244  20280920.3274   20280919.2844
     -1387.8774
 -10658692.03948  -8295939.33642  21671687.7804   21671687.2964
      1137.3414
 -17101833.45348 -13318088.98844  20438919.0774   20438916.3984
      3898.4044
 -13930014.11749 -10853145.04746  19031845.1944   19031843.1634
      1544.7784
 04  9  9 22 44 29.9950000  0  7G19G 3G 8G13G10G28G27
 -17413821.27348 -13564217.12144  20792884.2264   20792880.6204
      1277.8694
  -4912511.05147  -3816097.33642  22425821.1014   22425821.2414
     -1008.2264
 -22653895.09849 -17643510.34046  18975010.9684   18975009.2964
      2701.8064
     17742.87548     13715.87544  20284897.3194   20284896.3274
     -1393.1464
 -10675622.80947  -8309132.14543  21668465.4294   21668464.9484
      1128.7184
 -17160242.46548 -13363602.47744  20427804.1714   20427802.0894
      3893.9344
 -13953138.48049 -10871164.03146  19027444.4524   19027442.2734
      1541.6244
 04  9  9 22 44 44.9950000  0  7G19G 3G 8G13G10G28G27
 -17432848.13748 -13579043.24644  20789264.2024   20789260.3154
      1268.4584
  -4897288.09447  -3804235.30942  22428717.4294   22428717.5304
     -1014.8644
 -22694360.87149 -17675042.10946  18967310.7184   18967308.8944
      2697.7184
     38726.33248     30066.59044  20288890.5074   20288888.7764
     -1398.8974
 -10692416.77748  -8322218.34843  21665270.1244   21665269.3124
      1119.5984
 -17218576.96948 -13409057.91044  20416702.9134   20416701.2804
      3888.9674
 -13976207.77349 -10889140.10546  19023054.7334   19023052.6714
      1537.9534
 04  9  9 22 44 59.9950000  0  7G19G 3G 8G13G10G28G27
 -17451735.88748 -13593760.96144  20785669.7334   20785666.3044
      1259.1834
  -4881967.82447  -3792297.46542  22431632.5624   22431633.2694
     -1021.3514
 -22734767.41449 -17706527.71146  18959621.4604   18959619.7574
      2693.7704
     59793.82048     46482.77744  20292899.7264   20292897.9564
     -1404.4994
 -10709076.21548  -8335199.74243  21662099.8044   21662099.7374
      1110.6294
 -17276838.83648 -13454456.73844  20405616.3124   20405614.6984
      3884.1244
 -13999224.00448 -10907074.82846  19018674.5934   19018672.6244
      1534.4154
 04  9  9 22 45 14.9950000  0  7G19G 3G 8G13G10G28G27
 -17470481.87148 -13608368.22744  20782102.3044   20782098.8124
      1249.7324
  -4866547.85247  -3780281.94142  22434567.7804   22434568.0464
     -1027.9984
 -22775111.94949 -17737965.00846  18951944.2024   18951942.3824
      2689.6364
     80947.76648     62966.34044  20296924.9374   20296923.4334
     -1410.2634
 -10725598.49248  -8348074.24243  21658955.7734   21658954.9334
      1101.4854
 -17335025.42249 -13499796.92244  20394543.8434   20394541.5584
      3879.1064
 -14022184.48449 -10924966.11346  19014305.6554   19014303.4334
      1530.6994
 04  9  9 22 45 29.9950000  0  7G19G 3G 8G13G10G28G27
 -17489087.81648 -13622866.35944  20778562.0154   20778558.1634
      1240.3964
  -4851030.33246  -3768190.39142  22437519.9834   22437520.4994
     -1034.5014
 -22815396.15249 -17769355.30146  18944278.4834   18944276.4604
      2685.6144
    102186.22348     79515.75844  20300966.2024   20300964.8744
     -1415.8974
 -10741985.59448  -8360843.42243  21655837.3744   21655837.0814
      1092.4734
 -17393138.34048 -13545079.69144  20383485.6874   20383483.5344
      3874.1954
 -14045090.88749 -10942815.25846  19009946.6554   19009944.4134
      1527.0934
 04  9  9 22 45 44.9940000  0  7G19G 3G 8G13G10G28G27
 -17507552.59048 -13637254.50044  20775047.9404   20775044.7834
      1230.9854
  -4835416.59046  -3756023.86342  22440491.8544   22440491.8344
     -1040.9164
 -22855617.25449 -17800696.41046  18936624.3854   18936622.5144
      2681.4074
    123507.46148     96129.67244  20305024.2444   20305022.0024
     -1421.4164
 -10758236.59447  -8373506.53143  21652744.6434   21652744.9674
      1083.4004
 -17451173.70348 -13590302.02744  20372441.3774   20372439.3224
      3869.0244
 -14067941.71549 -10960621.10246  19005598.3304   19005596.4164
      1523.3894
 04  9  9 22 45 59.9940000  0  6G19G 8G13G10G28G27
 -17525872.20348 -13651529.51644  20771562.1974   20771558.8344
      1221.3084
 -22895774.29349 -17831987.60246  18928982.6664   18928981.1114
      2677.1364
    144920.60548    112815.21144  20309098.6664   20309097.1394
     -1427.5434
 -10774347.25847  -8386060.31243  21649679.2134   21649678.7644
      1074.0444
 -17509132.66849 -13635464.84444  20361412.3224   20361410.7444
      3863.9314
 -14090733.34449 -10978380.81246  19001261.2364   19001258.8654
      1519.4424
 04  9  9 22 46 14.9940000  0  6G19G 8G13G10G28G27
 -17544047.73848 -13665692.25844  20768103.1744   20768099.7754
      1211.7024
 -22935866.52049 -17863228.29746  18921353.4084   18921351.5254
      2672.8154
    166421.57048    129569.18444  20313190.0884   20313188.5574
     -1433.3984
 -10790319.01647  -8398505.84843  21646639.8224   21646639.8074
      1064.7844
 -17567013.59449 -13680566.84044  20350397.9404   20350395.9004
      3858.7284
 -14113466.47349 -10996094.93446  18996935.1504   18996933.0064
      1515.5424
 04  9  9 22 46 29.9940000  0  6G19G 8G13G10G28G27
 -17562075.70348 -13679740.02744  20764672.4944   20764669.1154
      1201.8644
 -22975890.19549 -17894415.57046  18913737.1584   18913735.5254
      2668.2454
    188013.64848    146394.13744  20317298.8854   20317297.7564
     -1439.4724
 -10806148.47748  -8410840.50443  21643627.8464   21643627.0064
      1055.2974
 -17624812.92248 -13725605.25844  20339399.1434   20339397.0334
      3853.2894
 -14136137.59048 -11013760.74646  18992621.1744   18992619.1744
      1511.4084
 04  9  9 22 46 44.9940000  0  6G19G 8G13G10G28G27
 -17579958.91448 -13693674.99244  20761269.6354   20761266.0964
      1192.2144
 -23015848.25449 -17925551.71146  18906133.5184   18906131.6544
      2663.8714
    209693.92248    163287.83244  20321424.4004   20321423.3074
     -1445.3524
 -10821838.58648  -8423066.56643  21640641.9004   21640641.1074
      1046.0074
 -17682533.36348 -13770582.20744  20328415.5884   20328413.1584
      3848.0294
 -14158749.45749 -11031380.37946  18988317.9404   18988316.0254
      1507.4584
 04  9  9 22 46 59.9940000  0  6G19G 8G13G10G28G27
 -17597692.19548 -13707493.13344  20757895.2134   20757891.6704
      1182.2194
 -23055735.48449 -17956632.66846  18898543.3774   18898541.3974
      2659.1494
    231467.34448    180254.09844  20325567.6904   20325566.3614
     -1451.5614
 -10837384.24248  -8435180.06643  21637683.5334   21637683.2014
      1036.3774
 -17740169.66849 -13815493.59444  20317447.1114   20317445.5254
      3842.4204
 -14181296.61349 -11048949.59446  18984027.6744   18984025.5064
      1503.1444
 04  9  9 22 47 14.9940000  0  6G19G 8G13G10G28G27
 -17615277.43448 -13721195.91444  20754548.4944   20754545.3114
      1172.3494
 -23095553.57449 -17987659.74646  18890966.2054   18890964.3034
      2654.5394
    253331.68048    197291.21544  20329728.4164   20329727.2214
     -1457.6224
 -10852787.50047  -8447182.61743  21634752.6354   21634752.1584
      1026.8844
 -17797723.53948 -13860340.74644  20306494.8854   20306492.9714
      3836.9254
 -14203781.00449 -11066469.89846  18979748.7214   18979746.8464
      1498.9594
 04  9  9 22 47 29.9940000  0  6G19G 8G13G10G28G27
 -17632718.61748 -13734786.43444  20751229.7134   20751226.2444
      1162.7464
 -23135306.34449 -18018635.93046  18883401.6114   18883399.6664
      2650.1854
    275282.68848    214395.84844  20333906.0254   20333904.4434
     -1463.4014
 -10868052.53148  -8459077.45743  21631847.2364   21631847.5684
      1017.6694
 -17855199.00049 -13905126.80144  20295557.4404   20295555.9204
      3831.6974
 -14226206.50449 -11083944.31246  18975481.7294   18975479.7134
      1495.0334
 04  9  9 22 47 44.9940000  0  6G19G 8G13G10G28G27
 -17650005.89148 -13748257.03544  20747940.0414   20747936.2684
      1152.4854
 -23174983.94149 -18049553.52046  18875850.8694   18875849.1544
      2645.1734
    297329.94948    231575.50444  20338101.3154   20338099.9124
     -1469.8174
 -10883169.57847  -8470856.97743  21628970.7364   21628970.3854
      1007.8034
 -17912585.98848 -13949843.90644  20284637.4794   20284635.2054
      3825.7994
 -14248563.09449 -11101365.02746  18971227.2214   18971225.2874
      1490.4394
 04  9  9 22 47 59.9940000  0  6G19G 8G13G10G28G27
 -17667147.24648 -13761613.93744  20744678.1044   20744674.9364
      1142.7574
 -23214594.21149 -18080418.65246  18868313.4634   18868311.4904
      2640.6854
    319465.36748    248823.85244  20342313.4634   20342312.0884
     -1475.6954
 -10898146.91447  -8482527.64542  21626121.0024   21626119.9794
       998.4894
 -17969892.51648 -13994498.30944  20273732.0964   20273730.3574
      3820.4354
 -14270858.81249 -11118738.32446  18966984.6274   18966982.6114
      1486.3814
 04  9  9 22 48 14.9940000  0  6G19G 8G13G10G28G27
 -17684143.80548 -13774858.00044  20741443.5724   20741440.7294
      1133.1044
 -23254138.05949 -18111232.04346  18860788.1904   18860786.3734
      2636.2574
    341687.71148    266139.91844  20346542.5574   20346540.8974
     -1481.4904
 -10912985.53548  -8494090.21143  21623297.0964   21623296.7404
       989.2414
 -18027119.40648 -14039090.67644  20262842.5724   20262840.5024
      3815.1264
 -14293094.55549 -11136064.87146  18962753.0254   18962750.9434
      1482.3834
 04  9  9 22 48 29.9940000  0  6G19G 8G13G10G28G27
 -17700992.87548 -13787987.14844  20738237.7134   20738234.0654
      1123.2714
 -23293612.75449 -18141991.53946  18853276.7834   18853274.7014
      2631.6464
    363999.43848    283525.65644  20350788.1114   20350786.8814
     -1487.4484
 -10927683.02347  -8505542.80142  21620499.6664   21620499.8544
       979.8334
 -18084263.92648 -14083618.84844  20251968.1114   20251966.1974
      3809.6354
 -14315267.35549 -11153342.37546  18958533.7994   18958531.8224
      1478.1874
 04  9  9 22 48 44.9940000  0  6G19G 8G13G10G28G27
 -17717694.95348 -13801001.75444  20735059.0024   20735055.6154
      1113.4724
 -23333018.64549 -18172697.41846  18845777.7604   18845776.3614
      2627.0594
    386399.87148    300980.50444  20355050.6504   20355049.2364
     -1493.3624
 -10942239.89847  -8516885.83642  21617730.3464   21617729.8934
       970.4584
 -18141326.47748 -14128083.16844  20241109.9004   20241107.7754
      3804.1704
 -14337377.82849 -11170571.31246  18954326.3544   18954324.1474
      1474.0324
 04  9  9 22 48 59.9940000  0  6G19G 8G13G10G28G27
 -17734258.03548 -13813908.04344  20731907.4164   20731903.6974
      1104.2054
 -23372363.78149 -18203355.95746  18838290.7524   18838288.8464
      2623.0094
    408880.64848    318497.96144  20359328.7364   20359327.8574
     -1498.7184
 -10956664.35947  -8528125.67642  21614985.2994   21614984.8734
       961.6314
 -18198315.06648 -14172489.83244  20230264.7914   20230263.1744
      3799.2394
 -14359433.84848 -11187757.82446  18950129.4404   18950126.9364
      1470.4014
 04  9  9 22 49 14.9940000  0  6G19G 8G13G10G28G27
 -17750678.93748 -13826703.55144  20728782.3384   20728778.9284
      1094.7274
 -23411644.68449 -18233964.44946  18830816.0104   18830814.0964
      2618.7274
    431444.89548    336080.46144  20363622.3154   20363621.7014
     -1504.2834
 -10970953.27347  -8539259.90642  21612266.2914   21612265.7604
       952.5944
 -18255226.26248 -14216836.19544  20219435.0804   20219432.8734
      3794.0804
 -14381432.02049 -11204899.25446  18945942.9794   18945941.0654
      1466.5454
 04  9  9 22 49 29.9940000  0  6G19G 8G13G10G28G27
 -17766959.37948 -13839389.60944  20725684.2914   20725681.1044
      1085.3634
 -23450862.85949 -18264524.06246  18823352.8934   18823350.9364
      2614.5454
    454090.66448    353726.47744  20367931.5724   20367930.2444
     -1509.7184
 -10985108.55547  -8550289.99642  21609572.7294   21609572.4554
       943.6854
 -18312061.64848 -14261123.48844  20208619.7134   20208617.2684
      3789.0264
 -14403373.96949 -11221996.87946  18941767.5654   18941765.4984
      1462.7974
